<?xml version='1.0' encoding='UTF-8'?>
<gpx version="1.1" creator="https://www.komoot.de" xmlns="http://www.topografix.com/GPX/1/1" xmlns:xsi="http://www.w3.org/2001/XMLSchema-instance" xsi:schemaLocation="http://www.topografix.com/GPX/1/1 http://www.topografix.com/GPX/1/1/gpx.xsd">
  <metadata>
    <name>56_530Oberboelchen</name>
    <author>
      <link href="https://www.komoot.de">
        <text>komoot</text>
        <type>text/html</type>
      </link>
    </author>
  </metadata>
  <trk>
    <name>56_530Oberboelchen</name>
    <trkseg>
      <trkpt lat="47.542555" lon="7.869493">
        <ele>337.568605</ele>
        <time>2021-11-14T16:04:14.196Z</time>
      </trkpt>
      <trkpt lat="47.542657" lon="7.869354">
        <ele>337.568605</ele>
        <time>2021-11-14T16:04:15.790Z</time>
      </trkpt>
      <trkpt lat="47.542696" lon="7.869257">
        <ele>337.568605</ele>
        <time>2021-11-14T16:04:16.735Z</time>
      </trkpt>
      <trkpt lat="47.542722" lon="7.869201">
        <ele>337.568605</ele>
        <time>2021-11-14T16:04:17.377Z</time>
      </trkpt>
      <trkpt lat="47.542998" lon="7.868828">
        <ele>337.568605</ele>
        <time>2021-11-14T16:04:21.599Z</time>
      </trkpt>
      <trkpt lat="47.543049" lon="7.868759">
        <ele>337.568605</ele>
        <time>2021-11-14T16:04:22.353Z</time>
      </trkpt>
      <trkpt lat="47.543105" lon="7.868711">
        <ele>337.568605</ele>
        <time>2021-11-14T16:04:23.091Z</time>
      </trkpt>
      <trkpt lat="47.543201" lon="7.868657">
        <ele>337.568605</ele>
        <time>2021-11-14T16:04:24.159Z</time>
      </trkpt>
      <trkpt lat="47.543657" lon="7.868359">
        <ele>336.931214</ele>
        <time>2021-11-14T16:04:29.881Z</time>
      </trkpt>
      <trkpt lat="47.543801" lon="7.868269">
        <ele>336.719176</ele>
        <time>2021-11-14T16:04:32.361Z</time>
      </trkpt>
      <trkpt lat="47.544214" lon="7.867988">
        <ele>336.102596</ele>
        <time>2021-11-14T16:04:39.977Z</time>
      </trkpt>
      <trkpt lat="47.544246" lon="7.867967">
        <ele>336.055113</ele>
        <time>2021-11-14T16:04:40.573Z</time>
      </trkpt>
      <trkpt lat="47.544410" lon="7.867825">
        <ele>335.797401</ele>
        <time>2021-11-14T16:04:43.832Z</time>
      </trkpt>
      <trkpt lat="47.544469" lon="7.867776">
        <ele>335.705636</ele>
        <time>2021-11-14T16:04:44.854Z</time>
      </trkpt>
      <trkpt lat="47.544568" lon="7.867693">
        <ele>335.551308</ele>
        <time>2021-11-14T16:04:46.781Z</time>
      </trkpt>
      <trkpt lat="47.545003" lon="7.867278">
        <ele>335.295490</ele>
        <time>2021-11-14T16:04:55.630Z</time>
      </trkpt>
      <trkpt lat="47.545160" lon="7.866985">
        <ele>335.500612</ele>
        <time>2021-11-14T16:05:00.280Z</time>
      </trkpt>
      <trkpt lat="47.545240" lon="7.866887">
        <ele>335.584935</ele>
        <time>2021-11-14T16:05:02.554Z</time>
      </trkpt>
      <trkpt lat="47.546096" lon="7.866147">
        <ele>336.389995</ele>
        <time>2021-11-14T16:05:27.624Z</time>
      </trkpt>
      <trkpt lat="47.546327" lon="7.865959">
        <ele>336.625203</ele>
        <time>2021-11-14T16:05:35.361Z</time>
      </trkpt>
      <trkpt lat="47.546510" lon="7.865766">
        <ele>337.071119</ele>
        <time>2021-11-14T16:05:42.462Z</time>
      </trkpt>
      <trkpt lat="47.546819" lon="7.865489">
        <ele>337.788059</ele>
        <time>2021-11-14T16:05:52.693Z</time>
      </trkpt>
      <trkpt lat="47.546889" lon="7.865225">
        <ele>338.168108</ele>
        <time>2021-11-14T16:05:57.884Z</time>
      </trkpt>
      <trkpt lat="47.546894" lon="7.864837">
        <ele>338.688085</ele>
        <time>2021-11-14T16:06:05.304Z</time>
      </trkpt>
      <trkpt lat="47.546885" lon="7.864500">
        <ele>339.139986</ele>
        <time>2021-11-14T16:06:12.093Z</time>
      </trkpt>
      <trkpt lat="47.546877" lon="7.864345">
        <ele>339.348277</ele>
        <time>2021-11-14T16:06:14.987Z</time>
      </trkpt>
      <trkpt lat="47.546592" lon="7.863006">
        <ele>340.589219</ele>
        <time>2021-11-14T16:06:40.996Z</time>
      </trkpt>
      <trkpt lat="47.546526" lon="7.861665">
        <ele>341.312332</ele>
        <time>2021-11-14T16:07:01.728Z</time>
      </trkpt>
      <trkpt lat="47.546487" lon="7.859119">
        <ele>341.176530</ele>
        <time>2021-11-14T16:07:34.348Z</time>
      </trkpt>
      <trkpt lat="47.546537" lon="7.857497">
        <ele>340.872027</ele>
        <time>2021-11-14T16:07:55.360Z</time>
      </trkpt>
      <trkpt lat="47.546582" lon="7.856413">
        <ele>340.681177</ele>
        <time>2021-11-14T16:08:09.714Z</time>
      </trkpt>
      <trkpt lat="47.546945" lon="7.851719">
        <ele>339.210990</ele>
        <time>2021-11-14T16:09:10.748Z</time>
      </trkpt>
      <trkpt lat="47.547141" lon="7.850355">
        <ele>338.242486</ele>
        <time>2021-11-14T16:09:26.313Z</time>
      </trkpt>
      <trkpt lat="47.547143" lon="7.849985">
        <ele>337.753375</ele>
        <time>2021-11-14T16:09:30.222Z</time>
      </trkpt>
      <trkpt lat="47.547124" lon="7.848795">
        <ele>336.179898</ele>
        <time>2021-11-14T16:09:42.820Z</time>
      </trkpt>
      <trkpt lat="47.547274" lon="7.845536">
        <ele>332.121710</ele>
        <time>2021-11-14T16:10:17.579Z</time>
      </trkpt>
      <trkpt lat="47.547295" lon="7.844722">
        <ele>331.590552</ele>
        <time>2021-11-14T16:10:27.072Z</time>
      </trkpt>
      <trkpt lat="47.547313" lon="7.843735">
        <ele>331.281878</ele>
        <time>2021-11-14T16:10:39.479Z</time>
      </trkpt>
      <trkpt lat="47.547354" lon="7.842839">
        <ele>331.001122</ele>
        <time>2021-11-14T16:10:51.645Z</time>
      </trkpt>
      <trkpt lat="47.547380" lon="7.842683">
        <ele>330.950887</ele>
        <time>2021-11-14T16:10:53.932Z</time>
      </trkpt>
      <trkpt lat="47.547448" lon="7.842262">
        <ele>330.792624</ele>
        <time>2021-11-14T16:10:59.982Z</time>
      </trkpt>
      <trkpt lat="47.547362" lon="7.841665">
        <ele>330.558213</ele>
        <time>2021-11-14T16:11:08.242Z</time>
      </trkpt>
      <trkpt lat="47.547339" lon="7.841072">
        <ele>330.330126</ele>
        <time>2021-11-14T16:11:15.779Z</time>
      </trkpt>
      <trkpt lat="47.547332" lon="7.840572">
        <ele>330.138085</ele>
        <time>2021-11-14T16:11:21.871Z</time>
      </trkpt>
      <trkpt lat="47.547300" lon="7.838688">
        <ele>328.490325</ele>
        <time>2021-11-14T16:11:43.086Z</time>
      </trkpt>
      <trkpt lat="47.547276" lon="7.837287">
        <ele>326.912552</ele>
        <time>2021-11-14T16:11:57.962Z</time>
      </trkpt>
      <trkpt lat="47.547240" lon="7.836221">
        <ele>325.579339</ele>
        <time>2021-11-14T16:12:09.382Z</time>
      </trkpt>
      <trkpt lat="47.547190" lon="7.835066">
        <ele>324.131266</ele>
        <time>2021-11-14T16:12:21.888Z</time>
      </trkpt>
      <trkpt lat="47.547020" lon="7.831965">
        <ele>320.377746</ele>
        <time>2021-11-14T16:12:55.687Z</time>
      </trkpt>
      <trkpt lat="47.546946" lon="7.830852">
        <ele>318.901966</ele>
        <time>2021-11-14T16:13:07.720Z</time>
      </trkpt>
      <trkpt lat="47.546823" lon="7.829336">
        <ele>316.885253</ele>
        <time>2021-11-14T16:13:23.912Z</time>
      </trkpt>
      <trkpt lat="47.546721" lon="7.828140">
        <ele>315.113906</ele>
        <time>2021-11-14T16:13:36.634Z</time>
      </trkpt>
      <trkpt lat="47.546592" lon="7.826850">
        <ele>313.192681</ele>
        <time>2021-11-14T16:13:50.101Z</time>
      </trkpt>
      <trkpt lat="47.546574" lon="7.826239">
        <ele>312.447766</ele>
        <time>2021-11-14T16:13:56.542Z</time>
      </trkpt>
      <trkpt lat="47.546583" lon="7.825882">
        <ele>312.052370</ele>
        <time>2021-11-14T16:14:00.336Z</time>
      </trkpt>
      <trkpt lat="47.546589" lon="7.825597">
        <ele>311.736784</ele>
        <time>2021-11-14T16:14:03.362Z</time>
      </trkpt>
      <trkpt lat="47.546693" lon="7.825618">
        <ele>311.564679</ele>
        <time>2021-11-14T16:14:05.038Z</time>
      </trkpt>
      <trkpt lat="47.547233" lon="7.825872">
        <ele>310.635686</ele>
        <time>2021-11-14T16:14:14.152Z</time>
      </trkpt>
      <trkpt lat="47.547666" lon="7.826091">
        <ele>309.999433</ele>
        <time>2021-11-14T16:14:21.855Z</time>
      </trkpt>
      <trkpt lat="47.548237" lon="7.826410">
        <ele>310.348407</ele>
        <time>2021-11-14T16:14:33.987Z</time>
      </trkpt>
      <trkpt lat="47.548679" lon="7.826710">
        <ele>310.626429</ele>
        <time>2021-11-14T16:14:45.200Z</time>
      </trkpt>
      <trkpt lat="47.549105" lon="7.827067">
        <ele>310.906311</ele>
        <time>2021-11-14T16:14:57.688Z</time>
      </trkpt>
      <trkpt lat="47.550183" lon="7.828277">
        <ele>312.736518</ele>
        <time>2021-11-14T16:15:35.738Z</time>
      </trkpt>
      <trkpt lat="47.550522" lon="7.828744">
        <ele>313.411908</ele>
        <time>2021-11-14T16:15:47.798Z</time>
      </trkpt>
      <trkpt lat="47.550675" lon="7.828955">
        <ele>313.591491</ele>
        <time>2021-11-14T16:15:52.417Z</time>
      </trkpt>
      <trkpt lat="47.551640" lon="7.830558">
        <ele>312.885803</ele>
        <time>2021-11-14T16:16:19.571Z</time>
      </trkpt>
      <trkpt lat="47.552065" lon="7.831350">
        <ele>311.954952</ele>
        <time>2021-11-14T16:16:30.651Z</time>
      </trkpt>
      <trkpt lat="47.552251" lon="7.831814">
        <ele>311.230606</ele>
        <time>2021-11-14T16:16:36.391Z</time>
      </trkpt>
      <trkpt lat="47.552268" lon="7.831887">
        <ele>311.126957</ele>
        <time>2021-11-14T16:16:37.175Z</time>
      </trkpt>
      <trkpt lat="47.552368" lon="7.832305">
        <ele>310.531717</ele>
        <time>2021-11-14T16:16:41.865Z</time>
      </trkpt>
      <trkpt lat="47.552458" lon="7.832824">
        <ele>309.812493</ele>
        <time>2021-11-14T16:16:47.466Z</time>
      </trkpt>
      <trkpt lat="47.552508" lon="7.832936">
        <ele>309.632258</ele>
        <time>2021-11-14T16:16:48.856Z</time>
      </trkpt>
      <trkpt lat="47.552556" lon="7.832977">
        <ele>309.522075</ele>
        <time>2021-11-14T16:16:49.845Z</time>
      </trkpt>
      <trkpt lat="47.552616" lon="7.832891">
        <ele>309.356060</ele>
        <time>2021-11-14T16:16:50.658Z</time>
      </trkpt>
      <trkpt lat="47.552690" lon="7.832598">
        <ele>308.889888</ele>
        <time>2021-11-14T16:16:52.952Z</time>
      </trkpt>
      <trkpt lat="47.552645" lon="7.830686">
        <ele>305.814772</ele>
        <time>2021-11-14T16:17:06.689Z</time>
      </trkpt>
      <trkpt lat="47.552554" lon="7.829266">
        <ele>303.893296</ele>
        <time>2021-11-14T16:17:16.975Z</time>
      </trkpt>
      <trkpt lat="47.552416" lon="7.828822">
        <ele>303.321309</ele>
        <time>2021-11-14T16:17:20.639Z</time>
      </trkpt>
      <trkpt lat="47.552404" lon="7.828582">
        <ele>303.039706</ele>
        <time>2021-11-14T16:17:22.554Z</time>
      </trkpt>
      <trkpt lat="47.552421" lon="7.828481">
        <ele>302.917902</ele>
        <time>2021-11-14T16:17:23.309Z</time>
      </trkpt>
      <trkpt lat="47.552477" lon="7.828294">
        <ele>302.678513</ele>
        <time>2021-11-14T16:17:24.885Z</time>
      </trkpt>
      <trkpt lat="47.552515" lon="7.828094">
        <ele>302.435388</ele>
        <time>2021-11-14T16:17:26.603Z</time>
      </trkpt>
      <trkpt lat="47.552491" lon="7.827227">
        <ele>301.618012</ele>
        <time>2021-11-14T16:17:33.511Z</time>
      </trkpt>
      <trkpt lat="47.552567" lon="7.824508">
        <ele>300.246035</ele>
        <time>2021-11-14T16:17:57.359Z</time>
      </trkpt>
      <trkpt lat="47.552896" lon="7.820699">
        <ele>298.317643</ele>
        <time>2021-11-14T16:18:30.032Z</time>
      </trkpt>
      <trkpt lat="47.552948" lon="7.819358">
        <ele>297.698283</ele>
        <time>2021-11-14T16:18:41.508Z</time>
      </trkpt>
      <trkpt lat="47.552924" lon="7.818693">
        <ele>297.566998</ele>
        <time>2021-11-14T16:18:47.324Z</time>
      </trkpt>
      <trkpt lat="47.552844" lon="7.816432">
        <ele>297.361001</ele>
        <time>2021-11-14T16:19:09.282Z</time>
      </trkpt>
      <trkpt lat="47.552711" lon="7.812955">
        <ele>298.597470</ele>
        <time>2021-11-14T16:19:50.172Z</time>
      </trkpt>
      <trkpt lat="47.552566" lon="7.810386">
        <ele>299.736940</ele>
        <time>2021-11-14T16:20:20.204Z</time>
      </trkpt>
      <trkpt lat="47.552398" lon="7.808880">
        <ele>300.420450</ele>
        <time>2021-11-14T16:20:38.685Z</time>
      </trkpt>
      <trkpt lat="47.552068" lon="7.806445">
        <ele>301.003947</ele>
        <time>2021-11-14T16:21:07.025Z</time>
      </trkpt>
      <trkpt lat="47.552015" lon="7.806307">
        <ele>301.011644</ele>
        <time>2021-11-14T16:21:08.747Z</time>
      </trkpt>
      <trkpt lat="47.551895" lon="7.806278">
        <ele>300.926184</ele>
        <time>2021-11-14T16:21:10.057Z</time>
      </trkpt>
      <trkpt lat="47.551651" lon="7.806246">
        <ele>300.754013</ele>
        <time>2021-11-14T16:21:13.819Z</time>
      </trkpt>
      <trkpt lat="47.551671" lon="7.806117">
        <ele>300.691223</ele>
        <time>2021-11-14T16:21:15.133Z</time>
      </trkpt>
      <trkpt lat="47.551681" lon="7.805477">
        <ele>300.387534</ele>
        <time>2021-11-14T16:21:22.831Z</time>
      </trkpt>
      <trkpt lat="47.551709" lon="7.805000">
        <ele>300.160398</ele>
        <time>2021-11-14T16:21:28.476Z</time>
      </trkpt>
      <trkpt lat="47.551731" lon="7.804667">
        <ele>300.001672</ele>
        <time>2021-11-14T16:21:33.111Z</time>
      </trkpt>
      <trkpt lat="47.551744" lon="7.804473">
        <ele>299.909188</ele>
        <time>2021-11-14T16:21:35.117Z</time>
      </trkpt>
      <trkpt lat="47.551741" lon="7.804294">
        <ele>299.824247</ele>
        <time>2021-11-14T16:21:37.496Z</time>
      </trkpt>
      <trkpt lat="47.551692" lon="7.803510">
        <ele>299.665887</ele>
        <time>2021-11-14T16:21:46.645Z</time>
      </trkpt>
      <trkpt lat="47.551751" lon="7.803369">
        <ele>299.640687</ele>
        <time>2021-11-14T16:21:48.650Z</time>
      </trkpt>
      <trkpt lat="47.551744" lon="7.803277">
        <ele>299.626624</ele>
        <time>2021-11-14T16:21:49.469Z</time>
      </trkpt>
      <trkpt lat="47.551732" lon="7.803125">
        <ele>299.603378</ele>
        <time>2021-11-14T16:21:50.857Z</time>
      </trkpt>
      <trkpt lat="47.551666" lon="7.803144">
        <ele>299.588246</ele>
        <time>2021-11-14T16:21:55.523Z</time>
      </trkpt>
      <trkpt lat="47.551598" lon="7.803160">
        <ele>299.572751</ele>
        <time>2021-11-14T16:22:00.268Z</time>
      </trkpt>
      <trkpt lat="47.551163" lon="7.803129">
        <ele>299.474737</ele>
        <time>2021-11-14T16:22:09.293Z</time>
      </trkpt>
      <trkpt lat="47.550981" lon="7.803132">
        <ele>299.433773</ele>
        <time>2021-11-14T16:22:13.306Z</time>
      </trkpt>
      <trkpt lat="47.550196" lon="7.803120">
        <ele>299.521449</ele>
        <time>2021-11-14T16:22:30.632Z</time>
      </trkpt>
      <trkpt lat="47.550134" lon="7.803051">
        <ele>299.547796</ele>
        <time>2021-11-14T16:22:32.314Z</time>
      </trkpt>
      <trkpt lat="47.550146" lon="7.802262">
        <ele>299.728784</ele>
        <time>2021-11-14T16:22:43.692Z</time>
      </trkpt>
      <trkpt lat="47.549879" lon="7.802247">
        <ele>299.819569</ele>
        <time>2021-11-14T16:22:49.473Z</time>
      </trkpt>
      <trkpt lat="47.549481" lon="7.802234">
        <ele>299.954834</ele>
        <time>2021-11-14T16:22:58.194Z</time>
      </trkpt>
      <trkpt lat="47.549410" lon="7.802226">
        <ele>299.975762</ele>
        <time>2021-11-14T16:22:59.797Z</time>
      </trkpt>
      <trkpt lat="47.549069" lon="7.802189">
        <ele>300.022499</ele>
        <time>2021-11-14T16:23:07.061Z</time>
      </trkpt>
      <trkpt lat="47.548877" lon="7.802168">
        <ele>300.048816</ele>
        <time>2021-11-14T16:23:11.014Z</time>
      </trkpt>
      <trkpt lat="47.548729" lon="7.802145">
        <ele>300.069158</ele>
        <time>2021-11-14T16:23:14.115Z</time>
      </trkpt>
      <trkpt lat="47.548626" lon="7.802129">
        <ele>300.083315</ele>
        <time>2021-11-14T16:23:16.221Z</time>
      </trkpt>
      <trkpt lat="47.548607" lon="7.801690">
        <ele>300.123902</ele>
        <time>2021-11-14T16:23:22.291Z</time>
      </trkpt>
      <trkpt lat="47.548596" lon="7.801213">
        <ele>300.167938</ele>
        <time>2021-11-14T16:23:28.821Z</time>
      </trkpt>
      <trkpt lat="47.548576" lon="7.800968">
        <ele>300.190707</ele>
        <time>2021-11-14T16:23:32.189Z</time>
      </trkpt>
      <trkpt lat="47.548569" lon="7.800838">
        <ele>300.202740</ele>
        <time>2021-11-14T16:23:33.952Z</time>
      </trkpt>
      <trkpt lat="47.548560" lon="7.800672">
        <ele>300.218105</ele>
        <time>2021-11-14T16:23:36.265Z</time>
      </trkpt>
      <trkpt lat="47.548545" lon="7.800404">
        <ele>300.261134</ele>
        <time>2021-11-14T16:23:39.917Z</time>
      </trkpt>
      <trkpt lat="47.548519" lon="7.799896">
        <ele>300.344596</ele>
        <time>2021-11-14T16:23:47.033Z</time>
      </trkpt>
      <trkpt lat="47.548514" lon="7.799795">
        <ele>300.361187</ele>
        <time>2021-11-14T16:23:48.437Z</time>
      </trkpt>
      <trkpt lat="47.548535" lon="7.799720">
        <ele>300.374489</ele>
        <time>2021-11-14T16:23:49.587Z</time>
      </trkpt>
      <trkpt lat="47.548459" lon="7.799691">
        <ele>300.393538</ele>
        <time>2021-11-14T16:23:51.234Z</time>
      </trkpt>
      <trkpt lat="47.547912" lon="7.799646">
        <ele>300.526509</ele>
        <time>2021-11-14T16:24:02.476Z</time>
      </trkpt>
      <trkpt lat="47.547540" lon="7.799538">
        <ele>300.618517</ele>
        <time>2021-11-14T16:24:10.437Z</time>
      </trkpt>
      <trkpt lat="47.546418" lon="7.798980">
        <ele>301.141402</ele>
        <time>2021-11-14T16:24:38.884Z</time>
      </trkpt>
      <trkpt lat="47.545807" lon="7.798846">
        <ele>301.432732</ele>
        <time>2021-11-14T16:24:51.824Z</time>
      </trkpt>
      <trkpt lat="47.545731" lon="7.798810">
        <ele>301.470366</ele>
        <time>2021-11-14T16:24:53.867Z</time>
      </trkpt>
      <trkpt lat="47.545581" lon="7.798713">
        <ele>301.499121</ele>
        <time>2021-11-14T16:24:56.671Z</time>
      </trkpt>
      <trkpt lat="47.545511" lon="7.798680">
        <ele>301.494926</ele>
        <time>2021-11-14T16:24:58.167Z</time>
      </trkpt>
      <trkpt lat="47.545558" lon="7.798144">
        <ele>301.474090</ele>
        <time>2021-11-14T16:25:04.955Z</time>
      </trkpt>
      <trkpt lat="47.545593" lon="7.797773">
        <ele>301.459649</ele>
        <time>2021-11-14T16:25:09.687Z</time>
      </trkpt>
      <trkpt lat="47.545637" lon="7.797310">
        <ele>301.441624</ele>
        <time>2021-11-14T16:25:16.740Z</time>
      </trkpt>
      <trkpt lat="47.545645" lon="7.797258">
        <ele>301.439568</ele>
        <time>2021-11-14T16:25:17.235Z</time>
      </trkpt>
      <trkpt lat="47.545670" lon="7.797142">
        <ele>301.434874</ele>
        <time>2021-11-14T16:25:18.807Z</time>
      </trkpt>
      <trkpt lat="47.545689" lon="7.797076">
        <ele>301.432108</ele>
        <time>2021-11-14T16:25:19.712Z</time>
      </trkpt>
      <trkpt lat="47.545728" lon="7.796950">
        <ele>301.426765</ele>
        <time>2021-11-14T16:25:22.419Z</time>
      </trkpt>
      <trkpt lat="47.545788" lon="7.796748">
        <ele>301.418257</ele>
        <time>2021-11-14T16:25:25.190Z</time>
      </trkpt>
      <trkpt lat="47.545889" lon="7.796500">
        <ele>301.407092</ele>
        <time>2021-11-14T16:25:29.479Z</time>
      </trkpt>
      <trkpt lat="47.546038" lon="7.796107">
        <ele>301.486959</ele>
        <time>2021-11-14T16:25:35.026Z</time>
      </trkpt>
      <trkpt lat="47.546105" lon="7.795928">
        <ele>301.543454</ele>
        <time>2021-11-14T16:25:38.536Z</time>
      </trkpt>
      <trkpt lat="47.546154" lon="7.795747">
        <ele>301.597282</ele>
        <time>2021-11-14T16:25:40.857Z</time>
      </trkpt>
      <trkpt lat="47.546170" lon="7.795612">
        <ele>301.635114</ele>
        <time>2021-11-14T16:25:42.773Z</time>
      </trkpt>
      <trkpt lat="47.546165" lon="7.795511">
        <ele>301.663067</ele>
        <time>2021-11-14T16:25:44.798Z</time>
      </trkpt>
      <trkpt lat="47.546019" lon="7.795020">
        <ele>301.811159</ele>
        <time>2021-11-14T16:25:52.561Z</time>
      </trkpt>
      <trkpt lat="47.545947" lon="7.794710">
        <ele>301.901649</ele>
        <time>2021-11-14T16:25:57.603Z</time>
      </trkpt>
      <trkpt lat="47.545921" lon="7.794468">
        <ele>301.969286</ele>
        <time>2021-11-14T16:26:01.718Z</time>
      </trkpt>
      <trkpt lat="47.545958" lon="7.793845">
        <ele>302.132154</ele>
        <time>2021-11-14T16:26:11.551Z</time>
      </trkpt>
      <trkpt lat="47.545969" lon="7.793663">
        <ele>302.079659</ele>
        <time>2021-11-14T16:26:14.240Z</time>
      </trkpt>
      <trkpt lat="47.546027" lon="7.793254">
        <ele>301.959595</ele>
        <time>2021-11-14T16:26:20.662Z</time>
      </trkpt>
      <trkpt lat="47.546253" lon="7.791998">
        <ele>301.586166</ele>
        <time>2021-11-14T16:26:36.907Z</time>
      </trkpt>
      <trkpt lat="47.546483" lon="7.790319">
        <ele>300.763988</ele>
        <time>2021-11-14T16:26:56.158Z</time>
      </trkpt>
      <trkpt lat="47.546673" lon="7.788921">
        <ele>299.867347</ele>
        <time>2021-11-14T16:27:13.340Z</time>
      </trkpt>
      <trkpt lat="47.546695" lon="7.788763">
        <ele>299.765912</ele>
        <time>2021-11-14T16:27:15.252Z</time>
      </trkpt>
      <trkpt lat="47.546775" lon="7.788115">
        <ele>299.870186</ele>
        <time>2021-11-14T16:27:23.676Z</time>
      </trkpt>
      <trkpt lat="47.546897" lon="7.787133">
        <ele>300.187345</ele>
        <time>2021-11-14T16:27:36.661Z</time>
      </trkpt>
      <trkpt lat="47.546959" lon="7.786598">
        <ele>300.359767</ele>
        <time>2021-11-14T16:27:44.297Z</time>
      </trkpt>
      <trkpt lat="47.546952" lon="7.786540">
        <ele>300.378482</ele>
        <time>2021-11-14T16:27:45.262Z</time>
      </trkpt>
      <trkpt lat="47.546913" lon="7.786470">
        <ele>300.407312</ele>
        <time>2021-11-14T16:27:47.043Z</time>
      </trkpt>
      <trkpt lat="47.546526" lon="7.786353">
        <ele>301.112540</ele>
        <time>2021-11-14T16:27:58.418Z</time>
      </trkpt>
      <trkpt lat="47.546464" lon="7.786335">
        <ele>301.447442</ele>
        <time>2021-11-14T16:28:00.213Z</time>
      </trkpt>
      <trkpt lat="47.546417" lon="7.786331">
        <ele>301.696991</ele>
        <time>2021-11-14T16:28:01.444Z</time>
      </trkpt>
      <trkpt lat="47.546102" lon="7.786217">
        <ele>303.415846</ele>
        <time>2021-11-14T16:28:12.964Z</time>
      </trkpt>
      <trkpt lat="47.545856" lon="7.785973">
        <ele>304.985120</ele>
        <time>2021-11-14T16:28:25.108Z</time>
      </trkpt>
      <trkpt lat="47.545672" lon="7.785654">
        <ele>306.486486</ele>
        <time>2021-11-14T16:28:36.434Z</time>
      </trkpt>
      <trkpt lat="47.545624" lon="7.785548">
        <ele>306.943201</ele>
        <time>2021-11-14T16:28:43.099Z</time>
      </trkpt>
      <trkpt lat="47.545250" lon="7.784778">
        <ele>310.213493</ele>
        <time>2021-11-14T16:29:14.625Z</time>
      </trkpt>
      <trkpt lat="47.545240" lon="7.784746">
        <ele>310.279647</ele>
        <time>2021-11-14T16:29:17.304Z</time>
      </trkpt>
      <trkpt lat="47.545054" lon="7.784227">
        <ele>311.382021</ele>
        <time>2021-11-14T16:29:35.454Z</time>
      </trkpt>
      <trkpt lat="47.544950" lon="7.784008">
        <ele>311.884358</ele>
        <time>2021-11-14T16:29:41.785Z</time>
      </trkpt>
      <trkpt lat="47.544627" lon="7.783499">
        <ele>313.194967</ele>
        <time>2021-11-14T16:29:57.648Z</time>
      </trkpt>
      <trkpt lat="47.544555" lon="7.783372">
        <ele>313.506108</ele>
        <time>2021-11-14T16:29:59.725Z</time>
      </trkpt>
      <trkpt lat="47.544490" lon="7.783060">
        <ele>314.118676</ele>
        <time>2021-11-14T16:30:04.471Z</time>
      </trkpt>
      <trkpt lat="47.544474" lon="7.782623">
        <ele>314.939712</ele>
        <time>2021-11-14T16:30:09.478Z</time>
      </trkpt>
      <trkpt lat="47.544469" lon="7.782455">
        <ele>314.719745</ele>
        <time>2021-11-14T16:30:10.778Z</time>
      </trkpt>
      <trkpt lat="47.544461" lon="7.782254">
        <ele>313.970429</ele>
        <time>2021-11-14T16:30:12.042Z</time>
      </trkpt>
      <trkpt lat="47.544100" lon="7.779438">
        <ele>303.768207</ele>
        <time>2021-11-14T16:30:29.531Z</time>
      </trkpt>
      <trkpt lat="47.543933" lon="7.778374">
        <ele>300.720908</ele>
        <time>2021-11-14T16:30:36.602Z</time>
      </trkpt>
      <trkpt lat="47.543707" lon="7.777394">
        <ele>297.831967</ele>
        <time>2021-11-14T16:30:43.823Z</time>
      </trkpt>
      <trkpt lat="47.543527" lon="7.776532">
        <ele>297.267147</ele>
        <time>2021-11-14T16:30:50.966Z</time>
      </trkpt>
      <trkpt lat="47.543482" lon="7.776095">
        <ele>297.032255</ele>
        <time>2021-11-14T16:30:54.843Z</time>
      </trkpt>
      <trkpt lat="47.543449" lon="7.775478">
        <ele>296.703375</ele>
        <time>2021-11-14T16:31:00.585Z</time>
      </trkpt>
      <trkpt lat="47.543402" lon="7.775016">
        <ele>296.455112</ele>
        <time>2021-11-14T16:31:05.254Z</time>
      </trkpt>
      <trkpt lat="47.543350" lon="7.774507">
        <ele>296.283600</ele>
        <time>2021-11-14T16:31:10.492Z</time>
      </trkpt>
      <trkpt lat="47.543145" lon="7.773277">
        <ele>296.142449</ele>
        <time>2021-11-14T16:31:23.391Z</time>
      </trkpt>
      <trkpt lat="47.543108" lon="7.773069">
        <ele>296.118484</ele>
        <time>2021-11-14T16:31:25.571Z</time>
      </trkpt>
      <trkpt lat="47.542720" lon="7.770771">
        <ele>295.674576</ele>
        <time>2021-11-14T16:31:46.794Z</time>
      </trkpt>
      <trkpt lat="47.542450" lon="7.769311">
        <ele>295.767381</ele>
        <time>2021-11-14T16:32:00.766Z</time>
      </trkpt>
      <trkpt lat="47.542317" lon="7.768533">
        <ele>296.879396</ele>
        <time>2021-11-14T16:32:09.139Z</time>
      </trkpt>
      <trkpt lat="47.541697" lon="7.765479">
        <ele>305.049286</ele>
        <time>2021-11-14T16:33:11.405Z</time>
      </trkpt>
      <trkpt lat="47.541552" lon="7.764869">
        <ele>307.456095</ele>
        <time>2021-11-14T16:33:31.144Z</time>
      </trkpt>
      <trkpt lat="47.541443" lon="7.764512">
        <ele>308.914288</ele>
        <time>2021-11-14T16:33:44.996Z</time>
      </trkpt>
      <trkpt lat="47.541364" lon="7.764150">
        <ele>311.299074</ele>
        <time>2021-11-14T16:33:55.962Z</time>
      </trkpt>
      <trkpt lat="47.541377" lon="7.764045">
        <ele>311.983433</ele>
        <time>2021-11-14T16:34:00.526Z</time>
      </trkpt>
      <trkpt lat="47.541334" lon="7.764020">
        <ele>312.422114</ele>
        <time>2021-11-14T16:34:05.369Z</time>
      </trkpt>
      <trkpt lat="47.541219" lon="7.763853">
        <ele>313.951459</ele>
        <time>2021-11-14T16:34:11.956Z</time>
      </trkpt>
      <trkpt lat="47.541023" lon="7.762922">
        <ele>320.203429</ele>
        <time>2021-11-14T16:34:50.288Z</time>
      </trkpt>
      <trkpt lat="47.541004" lon="7.762306">
        <ele>324.156614</ele>
        <time>2021-11-14T16:35:13.107Z</time>
      </trkpt>
      <trkpt lat="47.540921" lon="7.761599">
        <ele>327.703872</ele>
        <time>2021-11-14T16:35:37.776Z</time>
      </trkpt>
      <trkpt lat="47.540567" lon="7.759901">
        <ele>334.630752</ele>
        <time>2021-11-14T16:36:22.450Z</time>
      </trkpt>
      <trkpt lat="47.540447" lon="7.759585">
        <ele>336.043966</ele>
        <time>2021-11-14T16:36:30.033Z</time>
      </trkpt>
      <trkpt lat="47.539949" lon="7.758688">
        <ele>336.266756</ele>
        <time>2021-11-14T16:36:48.277Z</time>
      </trkpt>
      <trkpt lat="47.539722" lon="7.758107">
        <ele>336.146704</ele>
        <time>2021-11-14T16:36:54.567Z</time>
      </trkpt>
      <trkpt lat="47.539595" lon="7.757548">
        <ele>336.041224</ele>
        <time>2021-11-14T16:36:58.960Z</time>
      </trkpt>
      <trkpt lat="47.539346" lon="7.755736">
        <ele>330.616052</ele>
        <time>2021-11-14T16:37:10.705Z</time>
      </trkpt>
      <trkpt lat="47.539230" lon="7.755294">
        <ele>328.922427</ele>
        <time>2021-11-14T16:37:13.596Z</time>
      </trkpt>
      <trkpt lat="47.539079" lon="7.754976">
        <ele>327.533933</ele>
        <time>2021-11-14T16:37:15.987Z</time>
      </trkpt>
      <trkpt lat="47.538792" lon="7.754549">
        <ele>325.773159</ele>
        <time>2021-11-14T16:37:19.721Z</time>
      </trkpt>
      <trkpt lat="47.538723" lon="7.754445">
        <ele>325.440680</ele>
        <time>2021-11-14T16:37:20.619Z</time>
      </trkpt>
      <trkpt lat="47.538494" lon="7.754103">
        <ele>324.342358</ele>
        <time>2021-11-14T16:37:23.779Z</time>
      </trkpt>
      <trkpt lat="47.538359" lon="7.753900">
        <ele>323.692630</ele>
        <time>2021-11-14T16:37:25.681Z</time>
      </trkpt>
      <trkpt lat="47.538052" lon="7.753460">
        <ele>322.249828</ele>
        <time>2021-11-14T16:37:30.088Z</time>
      </trkpt>
      <trkpt lat="47.537715" lon="7.753194">
        <ele>320.960099</ele>
        <time>2021-11-14T16:37:34.206Z</time>
      </trkpt>
      <trkpt lat="47.537564" lon="7.753073">
        <ele>320.387732</ele>
        <time>2021-11-14T16:37:36.109Z</time>
      </trkpt>
      <trkpt lat="47.537371" lon="7.752851">
        <ele>320.272647</ele>
        <time>2021-11-14T16:37:39.546Z</time>
      </trkpt>
      <trkpt lat="47.537134" lon="7.752309">
        <ele>320.067326</ele>
        <time>2021-11-14T16:37:45.833Z</time>
      </trkpt>
      <trkpt lat="47.535912" lon="7.749669">
        <ele>319.232892</ele>
        <time>2021-11-14T16:38:16.013Z</time>
      </trkpt>
      <trkpt lat="47.534874" lon="7.746551">
        <ele>318.563997</ele>
        <time>2021-11-14T16:38:47.864Z</time>
      </trkpt>
      <trkpt lat="47.534429" lon="7.744856">
        <ele>318.705544</ele>
        <time>2021-11-14T16:39:06.774Z</time>
      </trkpt>
      <trkpt lat="47.534370" lon="7.744709">
        <ele>318.727999</ele>
        <time>2021-11-14T16:39:08.422Z</time>
      </trkpt>
      <trkpt lat="47.534179" lon="7.744495">
        <ele>318.774576</ele>
        <time>2021-11-14T16:39:12.305Z</time>
      </trkpt>
      <trkpt lat="47.534097" lon="7.744343">
        <ele>318.800123</ele>
        <time>2021-11-14T16:39:14.316Z</time>
      </trkpt>
      <trkpt lat="47.534043" lon="7.744207">
        <ele>318.820840</ele>
        <time>2021-11-14T16:39:16.061Z</time>
      </trkpt>
      <trkpt lat="47.533870" lon="7.743466">
        <ele>318.711694</ele>
        <time>2021-11-14T16:39:24.757Z</time>
      </trkpt>
      <trkpt lat="47.533707" lon="7.742025">
        <ele>318.299603</ele>
        <time>2021-11-14T16:39:43.170Z</time>
      </trkpt>
      <trkpt lat="47.533399" lon="7.740642">
        <ele>314.920863</ele>
        <time>2021-11-14T16:39:53.195Z</time>
      </trkpt>
      <trkpt lat="47.533352" lon="7.740430">
        <ele>313.993855</ele>
        <time>2021-11-14T16:39:54.598Z</time>
      </trkpt>
      <trkpt lat="47.533191" lon="7.739816">
        <ele>311.257402</ele>
        <time>2021-11-14T16:39:58.602Z</time>
      </trkpt>
      <trkpt lat="47.533226" lon="7.739781">
        <ele>310.997548</ele>
        <time>2021-11-14T16:39:58.954Z</time>
      </trkpt>
      <trkpt lat="47.533446" lon="7.739598">
        <ele>309.444953</ele>
        <time>2021-11-14T16:40:01.201Z</time>
      </trkpt>
      <trkpt lat="47.534011" lon="7.739126">
        <ele>305.303381</ele>
        <time>2021-11-14T16:40:06.883Z</time>
      </trkpt>
      <trkpt lat="47.534755" lon="7.738529">
        <ele>299.603287</ele>
        <time>2021-11-14T16:40:14.292Z</time>
      </trkpt>
      <trkpt lat="47.535216" lon="7.738157">
        <ele>296.066857</ele>
        <time>2021-11-14T16:40:19.124Z</time>
      </trkpt>
      <trkpt lat="47.534875" lon="7.737213">
        <ele>294.646699</ele>
        <time>2021-11-14T16:40:27.265Z</time>
      </trkpt>
      <trkpt lat="47.534765" lon="7.736911">
        <ele>294.531661</ele>
        <time>2021-11-14T16:40:30.438Z</time>
      </trkpt>
      <trkpt lat="47.534670" lon="7.736644">
        <ele>294.430481</ele>
        <time>2021-11-14T16:40:33.925Z</time>
      </trkpt>
      <trkpt lat="47.534450" lon="7.736026">
        <ele>294.196263</ele>
        <time>2021-11-14T16:40:42.247Z</time>
      </trkpt>
      <trkpt lat="47.534301" lon="7.735625">
        <ele>294.042815</ele>
        <time>2021-11-14T16:40:48.096Z</time>
      </trkpt>
      <trkpt lat="47.533860" lon="7.734479">
        <ele>294.647194</ele>
        <time>2021-11-14T16:41:04.986Z</time>
      </trkpt>
      <trkpt lat="47.533685" lon="7.734026">
        <ele>294.900635</ele>
        <time>2021-11-14T16:41:11.216Z</time>
      </trkpt>
      <trkpt lat="47.533577" lon="7.733712">
        <ele>295.071760</ele>
        <time>2021-11-14T16:41:15.280Z</time>
      </trkpt>
      <trkpt lat="47.533436" lon="7.733399">
        <ele>295.254480</ele>
        <time>2021-11-14T16:41:19.352Z</time>
      </trkpt>
      <trkpt lat="47.533324" lon="7.733190">
        <ele>295.316969</ele>
        <time>2021-11-14T16:41:22.460Z</time>
      </trkpt>
      <trkpt lat="47.533220" lon="7.733022">
        <ele>295.308561</ele>
        <time>2021-11-14T16:41:24.719Z</time>
      </trkpt>
      <trkpt lat="47.532961" lon="7.732599">
        <ele>295.287495</ele>
        <time>2021-11-14T16:41:30.621Z</time>
      </trkpt>
      <trkpt lat="47.532853" lon="7.732416">
        <ele>295.278528</ele>
        <time>2021-11-14T16:41:33.216Z</time>
      </trkpt>
      <trkpt lat="47.532776" lon="7.732283">
        <ele>295.272065</ele>
        <time>2021-11-14T16:41:34.836Z</time>
      </trkpt>
      <trkpt lat="47.532665" lon="7.732105">
        <ele>295.263126</ele>
        <time>2021-11-14T16:41:37.131Z</time>
      </trkpt>
      <trkpt lat="47.532473" lon="7.731703">
        <ele>295.244960</ele>
        <time>2021-11-14T16:41:41.600Z</time>
      </trkpt>
      <trkpt lat="47.532405" lon="7.731493">
        <ele>295.236368</ele>
        <time>2021-11-14T16:41:43.810Z</time>
      </trkpt>
      <trkpt lat="47.532193" lon="7.730459">
        <ele>295.281094</ele>
        <time>2021-11-14T16:41:53.685Z</time>
      </trkpt>
      <trkpt lat="47.531944" lon="7.728603">
        <ele>295.430601</ele>
        <time>2021-11-14T16:42:14.246Z</time>
      </trkpt>
      <trkpt lat="47.531815" lon="7.728165">
        <ele>295.593735</ele>
        <time>2021-11-14T16:42:19.525Z</time>
      </trkpt>
      <trkpt lat="47.531623" lon="7.727725">
        <ele>295.785762</ele>
        <time>2021-11-14T16:42:25.363Z</time>
      </trkpt>
      <trkpt lat="47.531296" lon="7.727089">
        <ele>296.078777</ele>
        <time>2021-11-14T16:42:34.607Z</time>
      </trkpt>
      <trkpt lat="47.531193" lon="7.726888">
        <ele>296.171268</ele>
        <time>2021-11-14T16:42:37.107Z</time>
      </trkpt>
      <trkpt lat="47.531031" lon="7.726569">
        <ele>296.317577</ele>
        <time>2021-11-14T16:42:41.944Z</time>
      </trkpt>
      <trkpt lat="47.530756" lon="7.726844">
        <ele>296.554953</ele>
        <time>2021-11-14T16:42:48.028Z</time>
      </trkpt>
      <trkpt lat="47.530372" lon="7.727161">
        <ele>296.949970</ele>
        <time>2021-11-14T16:42:56.277Z</time>
      </trkpt>
      <trkpt lat="47.529976" lon="7.727410">
        <ele>297.336532</ele>
        <time>2021-11-14T16:43:04.166Z</time>
      </trkpt>
      <trkpt lat="47.529269" lon="7.727844">
        <ele>298.024205</ele>
        <time>2021-11-14T16:43:18.748Z</time>
      </trkpt>
      <trkpt lat="47.528941" lon="7.728048">
        <ele>298.081892</ele>
        <time>2021-11-14T16:43:25.211Z</time>
      </trkpt>
      <trkpt lat="47.528848" lon="7.728118">
        <ele>298.098256</ele>
        <time>2021-11-14T16:43:27.036Z</time>
      </trkpt>
      <trkpt lat="47.528803" lon="7.728159">
        <ele>298.106544</ele>
        <time>2021-11-14T16:43:27.884Z</time>
      </trkpt>
      <trkpt lat="47.528746" lon="7.728265">
        <ele>298.120896</ele>
        <time>2021-11-14T16:43:29.411Z</time>
      </trkpt>
      <trkpt lat="47.528715" lon="7.728334">
        <ele>298.129675</ele>
        <time>2021-11-14T16:43:30.315Z</time>
      </trkpt>
      <trkpt lat="47.528688" lon="7.728441">
        <ele>298.141773</ele>
        <time>2021-11-14T16:43:31.639Z</time>
      </trkpt>
      <trkpt lat="47.528614" lon="7.728431">
        <ele>298.153429</ele>
        <time>2021-11-14T16:43:32.864Z</time>
      </trkpt>
      <trkpt lat="47.528552" lon="7.728411">
        <ele>298.163383</ele>
        <time>2021-11-14T16:43:33.849Z</time>
      </trkpt>
      <trkpt lat="47.528408" lon="7.728307">
        <ele>298.188513</ele>
        <time>2021-11-14T16:43:36.349Z</time>
      </trkpt>
      <trkpt lat="47.528320" lon="7.728136">
        <ele>298.211286</ele>
        <time>2021-11-14T16:43:38.515Z</time>
      </trkpt>
      <trkpt lat="47.528164" lon="7.727824">
        <ele>298.252406</ele>
        <time>2021-11-14T16:43:42.160Z</time>
      </trkpt>
      <trkpt lat="47.528065" lon="7.727556">
        <ele>298.284762</ele>
        <time>2021-11-14T16:43:44.828Z</time>
      </trkpt>
      <trkpt lat="47.528009" lon="7.727429">
        <ele>298.300828</ele>
        <time>2021-11-14T16:43:46.151Z</time>
      </trkpt>
      <trkpt lat="47.527862" lon="7.727114">
        <ele>298.238993</ele>
        <time>2021-11-14T16:43:49.323Z</time>
      </trkpt>
      <trkpt lat="47.526894" lon="7.725042">
        <ele>297.834800</ele>
        <time>2021-11-14T16:44:12.113Z</time>
      </trkpt>
      <trkpt lat="47.526744" lon="7.724750">
        <ele>298.114480</ele>
        <time>2021-11-14T16:44:16.766Z</time>
      </trkpt>
      <trkpt lat="47.526099" lon="7.723563">
        <ele>299.275926</ele>
        <time>2021-11-14T16:44:37.903Z</time>
      </trkpt>
      <trkpt lat="47.525373" lon="7.722545">
        <ele>299.642032</ele>
        <time>2021-11-14T16:44:59.133Z</time>
      </trkpt>
      <trkpt lat="47.525258" lon="7.722384">
        <ele>299.615876</ele>
        <time>2021-11-14T16:45:01.921Z</time>
      </trkpt>
      <trkpt lat="47.524884" lon="7.722022">
        <ele>299.542027</ele>
        <time>2021-11-14T16:45:09.125Z</time>
      </trkpt>
      <trkpt lat="47.524632" lon="7.721805">
        <ele>299.493846</ele>
        <time>2021-11-14T16:45:12.803Z</time>
      </trkpt>
      <trkpt lat="47.524263" lon="7.721598">
        <ele>299.001815</ele>
        <time>2021-11-14T16:45:17.059Z</time>
      </trkpt>
      <trkpt lat="47.523902" lon="7.721670">
        <ele>297.039686</ele>
        <time>2021-11-14T16:45:20.608Z</time>
      </trkpt>
      <trkpt lat="47.523671" lon="7.721634">
        <ele>295.788505</ele>
        <time>2021-11-14T16:45:22.751Z</time>
      </trkpt>
      <trkpt lat="47.523300" lon="7.721328">
        <ele>293.500995</ele>
        <time>2021-11-14T16:45:26.682Z</time>
      </trkpt>
      <trkpt lat="47.523111" lon="7.721224">
        <ele>292.414908</ele>
        <time>2021-11-14T16:45:28.461Z</time>
      </trkpt>
      <trkpt lat="47.522888" lon="7.721170">
        <ele>291.197736</ele>
        <time>2021-11-14T16:45:30.559Z</time>
      </trkpt>
      <trkpt lat="47.522682" lon="7.721170">
        <ele>290.088092</ele>
        <time>2021-11-14T16:45:32.379Z</time>
      </trkpt>
      <trkpt lat="47.522498" lon="7.721207">
        <ele>289.118818</ele>
        <time>2021-11-14T16:45:34.074Z</time>
      </trkpt>
      <trkpt lat="47.522249" lon="7.721165">
        <ele>287.831664</ele>
        <time>2021-11-14T16:45:36.326Z</time>
      </trkpt>
      <trkpt lat="47.521984" lon="7.721168">
        <ele>286.470562</ele>
        <time>2021-11-14T16:45:38.683Z</time>
      </trkpt>
      <trkpt lat="47.521846" lon="7.721211">
        <ele>285.746261</ele>
        <time>2021-11-14T16:45:40.021Z</time>
      </trkpt>
      <trkpt lat="47.521722" lon="7.721283">
        <ele>285.062176</ele>
        <time>2021-11-14T16:45:41.191Z</time>
      </trkpt>
      <trkpt lat="47.521455" lon="7.721426">
        <ele>283.603902</ele>
        <time>2021-11-14T16:45:43.896Z</time>
      </trkpt>
      <trkpt lat="47.521121" lon="7.721544">
        <ele>281.840303</ele>
        <time>2021-11-14T16:45:47.199Z</time>
      </trkpt>
      <trkpt lat="47.520760" lon="7.721667">
        <ele>280.450578</ele>
        <time>2021-11-14T16:45:51.065Z</time>
      </trkpt>
      <trkpt lat="47.519305" lon="7.722165">
        <ele>279.588192</ele>
        <time>2021-11-14T16:46:11.613Z</time>
      </trkpt>
      <trkpt lat="47.518237" lon="7.722578">
        <ele>280.525617</ele>
        <time>2021-11-14T16:46:32.194Z</time>
      </trkpt>
      <trkpt lat="47.518038" lon="7.722700">
        <ele>280.773556</ele>
        <time>2021-11-14T16:46:36.287Z</time>
      </trkpt>
      <trkpt lat="47.517885" lon="7.722793">
        <ele>280.963945</ele>
        <time>2021-11-14T16:46:39.766Z</time>
      </trkpt>
      <trkpt lat="47.517269" lon="7.723372">
        <ele>282.015351</ele>
        <time>2021-11-14T16:46:55.186Z</time>
      </trkpt>
      <trkpt lat="47.516416" lon="7.724623">
        <ele>284.537037</ele>
        <time>2021-11-14T16:47:23.146Z</time>
      </trkpt>
      <trkpt lat="47.515959" lon="7.725102">
        <ele>285.666958</ele>
        <time>2021-11-14T16:47:36.842Z</time>
      </trkpt>
      <trkpt lat="47.515697" lon="7.725255">
        <ele>286.188202</ele>
        <time>2021-11-14T16:47:43.831Z</time>
      </trkpt>
      <trkpt lat="47.515140" lon="7.725368">
        <ele>287.228695</ele>
        <time>2021-11-14T16:47:58.582Z</time>
      </trkpt>
      <trkpt lat="47.514143" lon="7.725538">
        <ele>288.488653</ele>
        <time>2021-11-14T16:48:18.394Z</time>
      </trkpt>
      <trkpt lat="47.513681" lon="7.725617">
        <ele>288.159339</ele>
        <time>2021-11-14T16:48:23.768Z</time>
      </trkpt>
      <trkpt lat="47.513538" lon="7.725582">
        <ele>288.056707</ele>
        <time>2021-11-14T16:48:25.773Z</time>
      </trkpt>
      <trkpt lat="47.513232" lon="7.725318">
        <ele>287.805927</ele>
        <time>2021-11-14T16:48:29.935Z</time>
      </trkpt>
      <trkpt lat="47.513193" lon="7.725244">
        <ele>287.761037</ele>
        <time>2021-11-14T16:48:30.732Z</time>
      </trkpt>
      <trkpt lat="47.513150" lon="7.725105">
        <ele>287.687917</ele>
        <time>2021-11-14T16:48:31.760Z</time>
      </trkpt>
      <trkpt lat="47.513078" lon="7.724821">
        <ele>287.542838</ele>
        <time>2021-11-14T16:48:36.001Z</time>
      </trkpt>
      <trkpt lat="47.512976" lon="7.724418">
        <ele>287.313157</ele>
        <time>2021-11-14T16:48:39.379Z</time>
      </trkpt>
      <trkpt lat="47.512910" lon="7.724174">
        <ele>287.118295</ele>
        <time>2021-11-14T16:48:41.528Z</time>
      </trkpt>
      <trkpt lat="47.512888" lon="7.724074">
        <ele>287.040324</ele>
        <time>2021-11-14T16:48:42.267Z</time>
      </trkpt>
      <trkpt lat="47.512857" lon="7.723931">
        <ele>286.928980</ele>
        <time>2021-11-14T16:48:43.448Z</time>
      </trkpt>
      <trkpt lat="47.512277" lon="7.724501">
        <ele>286.164859</ele>
        <time>2021-11-14T16:48:54.101Z</time>
      </trkpt>
      <trkpt lat="47.512214" lon="7.724543">
        <ele>286.089020</ele>
        <time>2021-11-14T16:48:56.008Z</time>
      </trkpt>
      <trkpt lat="47.511979" lon="7.724618">
        <ele>285.825149</ele>
        <time>2021-11-14T16:49:00.047Z</time>
      </trkpt>
      <trkpt lat="47.511791" lon="7.724622">
        <ele>285.618771</ele>
        <time>2021-11-14T16:49:03.814Z</time>
      </trkpt>
      <trkpt lat="47.511606" lon="7.724590">
        <ele>285.414325</ele>
        <time>2021-11-14T16:49:07.789Z</time>
      </trkpt>
      <trkpt lat="47.510952" lon="7.724263">
        <ele>285.368768</ele>
        <time>2021-11-14T16:49:23.647Z</time>
      </trkpt>
      <trkpt lat="47.510349" lon="7.724011">
        <ele>285.334513</ele>
        <time>2021-11-14T16:49:35.178Z</time>
      </trkpt>
      <trkpt lat="47.509849" lon="7.723882">
        <ele>285.322647</ele>
        <time>2021-11-14T16:49:44.817Z</time>
      </trkpt>
      <trkpt lat="47.509672" lon="7.723906">
        <ele>285.467611</ele>
        <time>2021-11-14T16:49:48.398Z</time>
      </trkpt>
      <trkpt lat="47.509150" lon="7.724070">
        <ele>285.902832</ele>
        <time>2021-11-14T16:49:57.638Z</time>
      </trkpt>
      <trkpt lat="47.508823" lon="7.724215">
        <ele>286.181238</ele>
        <time>2021-11-14T16:50:04.061Z</time>
      </trkpt>
      <trkpt lat="47.508629" lon="7.724301">
        <ele>286.346404</ele>
        <time>2021-11-14T16:50:07.847Z</time>
      </trkpt>
      <trkpt lat="47.508425" lon="7.724317">
        <ele>286.513018</ele>
        <time>2021-11-14T16:50:13.192Z</time>
      </trkpt>
      <trkpt lat="47.508175" lon="7.724311">
        <ele>286.716944</ele>
        <time>2021-11-14T16:50:19.481Z</time>
      </trkpt>
      <trkpt lat="47.507810" lon="7.724326">
        <ele>287.320033</ele>
        <time>2021-11-14T16:50:29.005Z</time>
      </trkpt>
      <trkpt lat="47.507444" lon="7.724343">
        <ele>287.998539</ele>
        <time>2021-11-14T16:50:38.665Z</time>
      </trkpt>
      <trkpt lat="47.507064" lon="7.724278">
        <ele>288.707336</ele>
        <time>2021-11-14T16:50:49.174Z</time>
      </trkpt>
      <trkpt lat="47.506945" lon="7.724261">
        <ele>288.928859</ele>
        <time>2021-11-14T16:50:52.561Z</time>
      </trkpt>
      <trkpt lat="47.506921" lon="7.724257">
        <ele>288.973610</ele>
        <time>2021-11-14T16:50:53.231Z</time>
      </trkpt>
      <trkpt lat="47.506607" lon="7.724268">
        <ele>289.555593</ele>
        <time>2021-11-14T16:51:02.017Z</time>
      </trkpt>
      <trkpt lat="47.506453" lon="7.724284">
        <ele>289.841646</ele>
        <time>2021-11-14T16:51:06.717Z</time>
      </trkpt>
      <trkpt lat="47.505930" lon="7.724337">
        <ele>290.899003</ele>
        <time>2021-11-14T16:51:22.551Z</time>
      </trkpt>
      <trkpt lat="47.505891" lon="7.724339">
        <ele>290.980125</ele>
        <time>2021-11-14T16:51:23.736Z</time>
      </trkpt>
      <trkpt lat="47.505851" lon="7.724341">
        <ele>291.063325</ele>
        <time>2021-11-14T16:51:24.948Z</time>
      </trkpt>
      <trkpt lat="47.505783" lon="7.724344">
        <ele>291.204747</ele>
        <time>2021-11-14T16:51:26.895Z</time>
      </trkpt>
      <trkpt lat="47.505646" lon="7.724350">
        <ele>291.489669</ele>
        <time>2021-11-14T16:51:31.216Z</time>
      </trkpt>
      <trkpt lat="47.505365" lon="7.724317">
        <ele>292.075651</ele>
        <time>2021-11-14T16:51:39.698Z</time>
      </trkpt>
      <trkpt lat="47.505161" lon="7.724267">
        <ele>292.505503</ele>
        <time>2021-11-14T16:51:45.243Z</time>
      </trkpt>
      <trkpt lat="47.505073" lon="7.724246">
        <ele>292.690800</ele>
        <time>2021-11-14T16:51:47.666Z</time>
      </trkpt>
      <trkpt lat="47.505012" lon="7.724231">
        <ele>292.819345</ele>
        <time>2021-11-14T16:51:49.856Z</time>
      </trkpt>
      <trkpt lat="47.504856" lon="7.724220">
        <ele>293.144008</ele>
        <time>2021-11-14T16:51:53.981Z</time>
      </trkpt>
      <trkpt lat="47.504610" lon="7.724250">
        <ele>293.657129</ele>
        <time>2021-11-14T16:52:00.885Z</time>
      </trkpt>
      <trkpt lat="47.504514" lon="7.724269">
        <ele>293.849216</ele>
        <time>2021-11-14T16:52:03.255Z</time>
      </trkpt>
      <trkpt lat="47.504396" lon="7.724291">
        <ele>293.904867</ele>
        <time>2021-11-14T16:52:06.188Z</time>
      </trkpt>
      <trkpt lat="47.504048" lon="7.724357">
        <ele>294.069035</ele>
        <time>2021-11-14T16:52:15.059Z</time>
      </trkpt>
      <trkpt lat="47.503945" lon="7.724377">
        <ele>294.117644</ele>
        <time>2021-11-14T16:52:17.793Z</time>
      </trkpt>
      <trkpt lat="47.503494" lon="7.724462">
        <ele>294.330381</ele>
        <time>2021-11-14T16:52:28.153Z</time>
      </trkpt>
      <trkpt lat="47.503457" lon="7.724469">
        <ele>294.347835</ele>
        <time>2021-11-14T16:52:28.856Z</time>
      </trkpt>
      <trkpt lat="47.503333" lon="7.724502">
        <ele>294.406788</ele>
        <time>2021-11-14T16:52:31.346Z</time>
      </trkpt>
      <trkpt lat="47.503201" lon="7.724541">
        <ele>294.469773</ele>
        <time>2021-11-14T16:52:33.908Z</time>
      </trkpt>
      <trkpt lat="47.502794" lon="7.724635">
        <ele>294.662522</ele>
        <time>2021-11-14T16:52:41.335Z</time>
      </trkpt>
      <trkpt lat="47.502584" lon="7.724671">
        <ele>294.791305</ele>
        <time>2021-11-14T16:52:45.205Z</time>
      </trkpt>
      <trkpt lat="47.502283" lon="7.724703">
        <ele>294.990051</ele>
        <time>2021-11-14T16:52:50.702Z</time>
      </trkpt>
      <trkpt lat="47.502205" lon="7.724690">
        <ele>295.041745</ele>
        <time>2021-11-14T16:52:52.248Z</time>
      </trkpt>
      <trkpt lat="47.502179" lon="7.724686">
        <ele>295.058961</ele>
        <time>2021-11-14T16:52:52.768Z</time>
      </trkpt>
      <trkpt lat="47.502172" lon="7.724685">
        <ele>295.063592</ele>
        <time>2021-11-14T16:52:52.899Z</time>
      </trkpt>
      <trkpt lat="47.502055" lon="7.724669">
        <ele>295.140975</ele>
        <time>2021-11-14T16:52:56.152Z</time>
      </trkpt>
      <trkpt lat="47.502040" lon="7.724902">
        <ele>295.245111</ele>
        <time>2021-11-14T16:52:58.822Z</time>
      </trkpt>
      <trkpt lat="47.502029" lon="7.725074">
        <ele>295.321979</ele>
        <time>2021-11-14T16:53:00.480Z</time>
      </trkpt>
      <trkpt lat="47.502031" lon="7.725298">
        <ele>295.421650</ele>
        <time>2021-11-14T16:53:03.682Z</time>
      </trkpt>
      <trkpt lat="47.502031" lon="7.725427">
        <ele>295.479044</ele>
        <time>2021-11-14T16:53:05.426Z</time>
      </trkpt>
      <trkpt lat="47.502048" lon="7.725782">
        <ele>295.637387</ele>
        <time>2021-11-14T16:53:10.034Z</time>
      </trkpt>
      <trkpt lat="47.502115" lon="7.726246">
        <ele>295.848492</ele>
        <time>2021-11-14T16:53:17.045Z</time>
      </trkpt>
      <trkpt lat="47.502122" lon="7.726303">
        <ele>295.876914</ele>
        <time>2021-11-14T16:53:17.547Z</time>
      </trkpt>
      <trkpt lat="47.502177" lon="7.726706">
        <ele>296.372785</ele>
        <time>2021-11-14T16:53:23.257Z</time>
      </trkpt>
      <trkpt lat="47.502177" lon="7.726706">
        <ele>296.372785</ele>
        <time>2021-11-14T16:53:23.417Z</time>
      </trkpt>
      <trkpt lat="47.502189" lon="7.726824">
        <ele>296.516707</ele>
        <time>2021-11-14T16:53:24.916Z</time>
      </trkpt>
      <trkpt lat="47.502204" lon="7.726964">
        <ele>296.687669</ele>
        <time>2021-11-14T16:53:27.298Z</time>
      </trkpt>
      <trkpt lat="47.502089" lon="7.726997">
        <ele>296.896801</ele>
        <time>2021-11-14T16:53:29.544Z</time>
      </trkpt>
      <trkpt lat="47.502070" lon="7.727002">
        <ele>296.931254</ele>
        <time>2021-11-14T16:53:29.905Z</time>
      </trkpt>
      <trkpt lat="47.501683" lon="7.727114">
        <ele>297.635248</ele>
        <time>2021-11-14T16:53:38.953Z</time>
      </trkpt>
      <trkpt lat="47.500808" lon="7.727366">
        <ele>299.139498</ele>
        <time>2021-11-14T16:54:00.227Z</time>
      </trkpt>
      <trkpt lat="47.499222" lon="7.727694">
        <ele>300.253421</ele>
        <time>2021-11-14T16:54:26.725Z</time>
      </trkpt>
      <trkpt lat="47.498171" lon="7.727736">
        <ele>300.827585</ele>
        <time>2021-11-14T16:54:43.776Z</time>
      </trkpt>
      <trkpt lat="47.496689" lon="7.727441">
        <ele>301.694165</ele>
        <time>2021-11-14T16:55:10.127Z</time>
      </trkpt>
      <trkpt lat="47.496367" lon="7.727420">
        <ele>301.903996</ele>
        <time>2021-11-14T16:55:15.991Z</time>
      </trkpt>
      <trkpt lat="47.496162" lon="7.727414">
        <ele>302.037481</ele>
        <time>2021-11-14T16:55:19.692Z</time>
      </trkpt>
      <trkpt lat="47.496039" lon="7.727411">
        <ele>302.117567</ele>
        <time>2021-11-14T16:55:21.820Z</time>
      </trkpt>
      <trkpt lat="47.495921" lon="7.727411">
        <ele>302.194387</ele>
        <time>2021-11-14T16:55:23.788Z</time>
      </trkpt>
      <trkpt lat="47.495777" lon="7.727410">
        <ele>302.288134</ele>
        <time>2021-11-14T16:55:26.371Z</time>
      </trkpt>
      <trkpt lat="47.495736" lon="7.727409">
        <ele>302.314830</ele>
        <time>2021-11-14T16:55:27.062Z</time>
      </trkpt>
      <trkpt lat="47.495388" lon="7.727405">
        <ele>302.502570</ele>
        <time>2021-11-14T16:55:32.931Z</time>
      </trkpt>
      <trkpt lat="47.493928" lon="7.727382">
        <ele>303.028823</ele>
        <time>2021-11-14T16:55:55.792Z</time>
      </trkpt>
      <trkpt lat="47.493736" lon="7.727441">
        <ele>303.099501</ele>
        <time>2021-11-14T16:55:59.124Z</time>
      </trkpt>
      <trkpt lat="47.493304" lon="7.727627">
        <ele>303.517232</ele>
        <time>2021-11-14T16:56:06.964Z</time>
      </trkpt>
      <trkpt lat="47.493051" lon="7.727844">
        <ele>303.792074</ele>
        <time>2021-11-14T16:56:12.487Z</time>
      </trkpt>
      <trkpt lat="47.492640" lon="7.728394">
        <ele>304.312874</ele>
        <time>2021-11-14T16:56:22.978Z</time>
      </trkpt>
      <trkpt lat="47.492253" lon="7.728955">
        <ele>304.830573</ele>
        <time>2021-11-14T16:56:33.506Z</time>
      </trkpt>
      <trkpt lat="47.492160" lon="7.729079">
        <ele>304.983124</ele>
        <time>2021-11-14T16:56:35.829Z</time>
      </trkpt>
      <trkpt lat="47.492018" lon="7.729265">
        <ele>305.214224</ele>
        <time>2021-11-14T16:56:39.812Z</time>
      </trkpt>
      <trkpt lat="47.491764" lon="7.729620">
        <ele>305.639991</ele>
        <time>2021-11-14T16:56:46.570Z</time>
      </trkpt>
      <trkpt lat="47.491749" lon="7.729641">
        <ele>305.665155</ele>
        <time>2021-11-14T16:56:47.332Z</time>
      </trkpt>
      <trkpt lat="47.491352" lon="7.730195">
        <ele>306.330140</ele>
        <time>2021-11-14T16:56:57.902Z</time>
      </trkpt>
      <trkpt lat="47.491274" lon="7.730304">
        <ele>306.460879</ele>
        <time>2021-11-14T16:57:00.172Z</time>
      </trkpt>
      <trkpt lat="47.491229" lon="7.730369">
        <ele>306.537511</ele>
        <time>2021-11-14T16:57:01.298Z</time>
      </trkpt>
      <trkpt lat="47.491189" lon="7.730425">
        <ele>306.604615</ele>
        <time>2021-11-14T16:57:02.330Z</time>
      </trkpt>
      <trkpt lat="47.491123" lon="7.730521">
        <ele>306.717394</ele>
        <time>2021-11-14T16:57:03.996Z</time>
      </trkpt>
      <trkpt lat="47.489972" lon="7.732312">
        <ele>309.069668</ele>
        <time>2021-11-14T16:57:37.361Z</time>
      </trkpt>
      <trkpt lat="47.489918" lon="7.732395">
        <ele>309.181560</ele>
        <time>2021-11-14T16:57:39.363Z</time>
      </trkpt>
      <trkpt lat="47.489032" lon="7.734791">
        <ele>312.449052</ele>
        <time>2021-11-14T16:58:20.913Z</time>
      </trkpt>
      <trkpt lat="47.488949" lon="7.734979">
        <ele>312.726390</ele>
        <time>2021-11-14T16:58:24.342Z</time>
      </trkpt>
      <trkpt lat="47.488804" lon="7.735382">
        <ele>312.978792</ele>
        <time>2021-11-14T16:58:30.699Z</time>
      </trkpt>
      <trkpt lat="47.488606" lon="7.735964">
        <ele>313.204403</ele>
        <time>2021-11-14T16:58:39.598Z</time>
      </trkpt>
      <trkpt lat="47.488046" lon="7.737266">
        <ele>313.738786</ele>
        <time>2021-11-14T16:58:55.554Z</time>
      </trkpt>
      <trkpt lat="47.487864" lon="7.737500">
        <ele>313.799506</ele>
        <time>2021-11-14T16:58:58.503Z</time>
      </trkpt>
      <trkpt lat="47.487621" lon="7.737779">
        <ele>313.838196</ele>
        <time>2021-11-14T16:59:02.496Z</time>
      </trkpt>
      <trkpt lat="47.487552" lon="7.737858">
        <ele>313.849170</ele>
        <time>2021-11-14T16:59:03.451Z</time>
      </trkpt>
      <trkpt lat="47.487288" lon="7.738117">
        <ele>313.889015</ele>
        <time>2021-11-14T16:59:07.929Z</time>
      </trkpt>
      <trkpt lat="47.486827" lon="7.738319">
        <ele>313.949495</ele>
        <time>2021-11-14T16:59:15.834Z</time>
      </trkpt>
      <trkpt lat="47.486689" lon="7.738358">
        <ele>313.967168</ele>
        <time>2021-11-14T16:59:18.733Z</time>
      </trkpt>
      <trkpt lat="47.486676" lon="7.738293">
        <ele>313.972930</ele>
        <time>2021-11-14T16:59:19.738Z</time>
      </trkpt>
      <trkpt lat="47.486621" lon="7.738169">
        <ele>313.985539</ele>
        <time>2021-11-14T16:59:20.933Z</time>
      </trkpt>
      <trkpt lat="47.486495" lon="7.737981">
        <ele>314.023984</ele>
        <time>2021-11-14T16:59:24.796Z</time>
      </trkpt>
      <trkpt lat="47.486384" lon="7.737805">
        <ele>314.164284</ele>
        <time>2021-11-14T16:59:27.178Z</time>
      </trkpt>
      <trkpt lat="47.486354" lon="7.737753">
        <ele>314.204130</ele>
        <time>2021-11-14T16:59:27.838Z</time>
      </trkpt>
      <trkpt lat="47.486314" lon="7.737686">
        <ele>314.256232</ele>
        <time>2021-11-14T16:59:29.279Z</time>
      </trkpt>
      <trkpt lat="47.486287" lon="7.737642">
        <ele>314.290868</ele>
        <time>2021-11-14T16:59:30.437Z</time>
      </trkpt>
      <trkpt lat="47.486087" lon="7.737329">
        <ele>314.541912</ele>
        <time>2021-11-14T16:59:35.802Z</time>
      </trkpt>
      <trkpt lat="47.485976" lon="7.737217">
        <ele>314.657773</ele>
        <time>2021-11-14T16:59:38.367Z</time>
      </trkpt>
      <trkpt lat="47.485875" lon="7.737156">
        <ele>314.751851</ele>
        <time>2021-11-14T16:59:40.463Z</time>
      </trkpt>
      <trkpt lat="47.485806" lon="7.737111">
        <ele>314.816879</ele>
        <time>2021-11-14T16:59:41.457Z</time>
      </trkpt>
      <trkpt lat="47.485750" lon="7.737070">
        <ele>314.870761</ele>
        <time>2021-11-14T16:59:42.808Z</time>
      </trkpt>
      <trkpt lat="47.485696" lon="7.737158">
        <ele>314.940035</ele>
        <time>2021-11-14T16:59:44.280Z</time>
      </trkpt>
      <trkpt lat="47.485631" lon="7.737265">
        <ele>315.023885</ele>
        <time>2021-11-14T16:59:46.101Z</time>
      </trkpt>
      <trkpt lat="47.485384" lon="7.737678">
        <ele>315.345299</ele>
        <time>2021-11-14T16:59:53.341Z</time>
      </trkpt>
      <trkpt lat="47.485326" lon="7.737773">
        <ele>315.419913</ele>
        <time>2021-11-14T16:59:54.579Z</time>
      </trkpt>
      <trkpt lat="47.485202" lon="7.737978">
        <ele>315.560271</ele>
        <time>2021-11-14T16:59:58.314Z</time>
      </trkpt>
      <trkpt lat="47.485121" lon="7.738124">
        <ele>315.577853</ele>
        <time>2021-11-14T17:00:00.680Z</time>
      </trkpt>
      <trkpt lat="47.485088" lon="7.738190">
        <ele>315.585495</ele>
        <time>2021-11-14T17:00:01.378Z</time>
      </trkpt>
      <trkpt lat="47.485067" lon="7.738278">
        <ele>315.594181</ele>
        <time>2021-11-14T17:00:02.625Z</time>
      </trkpt>
      <trkpt lat="47.485045" lon="7.738427">
        <ele>315.608377</ele>
        <time>2021-11-14T17:00:04.224Z</time>
      </trkpt>
      <trkpt lat="47.485032" lon="7.738535">
        <ele>315.618588</ele>
        <time>2021-11-14T17:00:05.723Z</time>
      </trkpt>
      <trkpt lat="47.485014" lon="7.738715">
        <ele>315.635524</ele>
        <time>2021-11-14T17:00:07.431Z</time>
      </trkpt>
      <trkpt lat="47.484997" lon="7.738871">
        <ele>315.650232</ele>
        <time>2021-11-14T17:00:09.057Z</time>
      </trkpt>
      <trkpt lat="47.484807" lon="7.739866">
        <ele>315.746471</ele>
        <time>2021-11-14T17:00:18.439Z</time>
      </trkpt>
      <trkpt lat="47.484365" lon="7.740878">
        <ele>316.026005</ele>
        <time>2021-11-14T17:00:30.733Z</time>
      </trkpt>
      <trkpt lat="47.484268" lon="7.741010">
        <ele>316.099980</ele>
        <time>2021-11-14T17:00:33.289Z</time>
      </trkpt>
      <trkpt lat="47.484154" lon="7.741142">
        <ele>316.181237</ele>
        <time>2021-11-14T17:00:36.043Z</time>
      </trkpt>
      <trkpt lat="47.483946" lon="7.741362">
        <ele>316.324757</ele>
        <time>2021-11-14T17:00:40.624Z</time>
      </trkpt>
      <trkpt lat="47.483828" lon="7.741475">
        <ele>316.403657</ele>
        <time>2021-11-14T17:00:43.198Z</time>
      </trkpt>
      <trkpt lat="47.483508" lon="7.741807">
        <ele>316.623043</ele>
        <time>2021-11-14T17:00:49.886Z</time>
      </trkpt>
      <trkpt lat="47.483275" lon="7.742050">
        <ele>316.783058</ele>
        <time>2021-11-14T17:00:54.722Z</time>
      </trkpt>
      <trkpt lat="47.482927" lon="7.742421">
        <ele>317.212884</ele>
        <time>2021-11-14T17:01:02.626Z</time>
      </trkpt>
      <trkpt lat="47.482889" lon="7.742461">
        <ele>317.262634</ele>
        <time>2021-11-14T17:01:03.299Z</time>
      </trkpt>
      <trkpt lat="47.482599" lon="7.742771">
        <ele>317.644295</ele>
        <time>2021-11-14T17:01:09.911Z</time>
      </trkpt>
      <trkpt lat="47.482182" lon="7.743222">
        <ele>318.195318</ele>
        <time>2021-11-14T17:01:19.758Z</time>
      </trkpt>
      <trkpt lat="47.481990" lon="7.742865">
        <ele>318.524260</ele>
        <time>2021-11-14T17:01:25.792Z</time>
      </trkpt>
      <trkpt lat="47.481963" lon="7.742814">
        <ele>318.570968</ele>
        <time>2021-11-14T17:01:26.756Z</time>
      </trkpt>
      <trkpt lat="47.481898" lon="7.742719">
        <ele>318.668435</ele>
        <time>2021-11-14T17:01:28.808Z</time>
      </trkpt>
      <trkpt lat="47.481698" lon="7.742446">
        <ele>319.091670</ele>
        <time>2021-11-14T17:01:34.341Z</time>
      </trkpt>
      <trkpt lat="47.481605" lon="7.742324">
        <ele>319.302248</ele>
        <time>2021-11-14T17:01:37.386Z</time>
      </trkpt>
      <trkpt lat="47.481177" lon="7.741735">
        <ele>320.292563</ele>
        <time>2021-11-14T17:01:49.981Z</time>
      </trkpt>
      <trkpt lat="47.480648" lon="7.741012">
        <ele>321.512692</ele>
        <time>2021-11-14T17:02:06.301Z</time>
      </trkpt>
      <trkpt lat="47.480591" lon="7.740959">
        <ele>321.626753</ele>
        <time>2021-11-14T17:02:08.254Z</time>
      </trkpt>
      <trkpt lat="47.480539" lon="7.740961">
        <ele>321.714886</ele>
        <time>2021-11-14T17:02:09.023Z</time>
      </trkpt>
      <trkpt lat="47.480294" lon="7.741119">
        <ele>322.019470</ele>
        <time>2021-11-14T17:02:14.547Z</time>
      </trkpt>
      <trkpt lat="47.480104" lon="7.741241">
        <ele>322.236181</ele>
        <time>2021-11-14T17:02:18.530Z</time>
      </trkpt>
      <trkpt lat="47.479963" lon="7.741350">
        <ele>322.402633</ele>
        <time>2021-11-14T17:02:21.788Z</time>
      </trkpt>
      <trkpt lat="47.479843" lon="7.741440">
        <ele>322.543399</ele>
        <time>2021-11-14T17:02:24.231Z</time>
      </trkpt>
      <trkpt lat="47.479629" lon="7.741696">
        <ele>322.831336</ele>
        <time>2021-11-14T17:02:29.497Z</time>
      </trkpt>
      <trkpt lat="47.479130" lon="7.742380">
        <ele>323.543063</ele>
        <time>2021-11-14T17:02:40.753Z</time>
      </trkpt>
      <trkpt lat="47.479105" lon="7.742414">
        <ele>323.578592</ele>
        <time>2021-11-14T17:02:41.418Z</time>
      </trkpt>
      <trkpt lat="47.478949" lon="7.742644">
        <ele>323.938234</ele>
        <time>2021-11-14T17:02:45.508Z</time>
      </trkpt>
      <trkpt lat="47.478895" lon="7.742714">
        <ele>324.079398</ele>
        <time>2021-11-14T17:02:46.773Z</time>
      </trkpt>
      <trkpt lat="47.478848" lon="7.742778">
        <ele>324.204993</ele>
        <time>2021-11-14T17:02:47.964Z</time>
      </trkpt>
      <trkpt lat="47.478747" lon="7.742916">
        <ele>324.475311</ele>
        <time>2021-11-14T17:02:50.660Z</time>
      </trkpt>
      <trkpt lat="47.478673" lon="7.743018">
        <ele>324.674171</ele>
        <time>2021-11-14T17:02:52.869Z</time>
      </trkpt>
      <trkpt lat="47.478481" lon="7.743277">
        <ele>325.185045</ele>
        <time>2021-11-14T17:02:58.172Z</time>
      </trkpt>
      <trkpt lat="47.478402" lon="7.743393">
        <ele>325.403890</ele>
        <time>2021-11-14T17:03:01.357Z</time>
      </trkpt>
      <trkpt lat="47.478238" lon="7.743706">
        <ele>325.930203</ele>
        <time>2021-11-14T17:03:07.057Z</time>
      </trkpt>
      <trkpt lat="47.478211" lon="7.743772">
        <ele>326.032729</ele>
        <time>2021-11-14T17:03:08.929Z</time>
      </trkpt>
      <trkpt lat="47.478130" lon="7.743970">
        <ele>326.340306</ele>
        <time>2021-11-14T17:03:12.175Z</time>
      </trkpt>
      <trkpt lat="47.478089" lon="7.744093">
        <ele>326.522565</ele>
        <time>2021-11-14T17:03:14.211Z</time>
      </trkpt>
      <trkpt lat="47.478062" lon="7.744180">
        <ele>326.649789</ele>
        <time>2021-11-14T17:03:15.856Z</time>
      </trkpt>
      <trkpt lat="47.478021" lon="7.744260">
        <ele>326.783213</ele>
        <time>2021-11-14T17:03:18.051Z</time>
      </trkpt>
      <trkpt lat="47.477976" lon="7.744460">
        <ele>327.063343</ele>
        <time>2021-11-14T17:03:21.620Z</time>
      </trkpt>
      <trkpt lat="47.477881" lon="7.744927">
        <ele>328.069717</ele>
        <time>2021-11-14T17:03:30.852Z</time>
      </trkpt>
      <trkpt lat="47.477870" lon="7.744978">
        <ele>328.190564</ele>
        <time>2021-11-14T17:03:31.709Z</time>
      </trkpt>
      <trkpt lat="47.477849" lon="7.745070">
        <ele>328.409767</ele>
        <time>2021-11-14T17:03:33.333Z</time>
      </trkpt>
      <trkpt lat="47.477786" lon="7.745056">
        <ele>328.622544</ele>
        <time>2021-11-14T17:03:35.010Z</time>
      </trkpt>
      <trkpt lat="47.477736" lon="7.745053">
        <ele>328.789678</ele>
        <time>2021-11-14T17:03:37.113Z</time>
      </trkpt>
      <trkpt lat="47.476942" lon="7.745085">
        <ele>331.442574</ele>
        <time>2021-11-14T17:03:59.833Z</time>
      </trkpt>
      <trkpt lat="47.476878" lon="7.745112">
        <ele>331.664850</ele>
        <time>2021-11-14T17:04:01.992Z</time>
      </trkpt>
      <trkpt lat="47.476266" lon="7.745001">
        <ele>333.632292</ele>
        <time>2021-11-14T17:04:19.417Z</time>
      </trkpt>
      <trkpt lat="47.476020" lon="7.744951">
        <ele>334.314541</ele>
        <time>2021-11-14T17:04:26.282Z</time>
      </trkpt>
      <trkpt lat="47.475441" lon="7.744847">
        <ele>335.917061</ele>
        <time>2021-11-14T17:04:42.101Z</time>
      </trkpt>
      <trkpt lat="47.475301" lon="7.744824">
        <ele>336.304084</ele>
        <time>2021-11-14T17:04:45.991Z</time>
      </trkpt>
      <trkpt lat="47.475240" lon="7.744800">
        <ele>336.477511</ele>
        <time>2021-11-14T17:04:47.644Z</time>
      </trkpt>
      <trkpt lat="47.475040" lon="7.744695">
        <ele>337.060595</ele>
        <time>2021-11-14T17:04:52.665Z</time>
      </trkpt>
      <trkpt lat="47.474911" lon="7.744614">
        <ele>337.445631</ele>
        <time>2021-11-14T17:04:56.325Z</time>
      </trkpt>
      <trkpt lat="47.474825" lon="7.744552">
        <ele>337.708482</ele>
        <time>2021-11-14T17:04:58.382Z</time>
      </trkpt>
      <trkpt lat="47.474802" lon="7.744534">
        <ele>337.779973</ele>
        <time>2021-11-14T17:04:58.947Z</time>
      </trkpt>
      <trkpt lat="47.474415" lon="7.744233">
        <ele>338.514783</ele>
        <time>2021-11-14T17:05:09.068Z</time>
      </trkpt>
      <trkpt lat="47.473167" lon="7.743264">
        <ele>340.219598</ele>
        <time>2021-11-14T17:05:36.093Z</time>
      </trkpt>
      <trkpt lat="47.473017" lon="7.743146">
        <ele>340.352672</ele>
        <time>2021-11-14T17:05:38.704Z</time>
      </trkpt>
      <trkpt lat="47.472975" lon="7.743113">
        <ele>340.369186</ele>
        <time>2021-11-14T17:05:39.424Z</time>
      </trkpt>
      <trkpt lat="47.472647" lon="7.742849">
        <ele>340.498850</ele>
        <time>2021-11-14T17:05:45.189Z</time>
      </trkpt>
      <trkpt lat="47.472097" lon="7.742408">
        <ele>340.716086</ele>
        <time>2021-11-14T17:05:54.611Z</time>
      </trkpt>
      <trkpt lat="47.470851" lon="7.741453">
        <ele>341.875338</ele>
        <time>2021-11-14T17:06:18.280Z</time>
      </trkpt>
      <trkpt lat="47.470256" lon="7.740990">
        <ele>342.723272</ele>
        <time>2021-11-14T17:06:32.256Z</time>
      </trkpt>
      <trkpt lat="47.467978" lon="7.739203">
        <ele>347.984502</ele>
        <time>2021-11-14T17:07:33.094Z</time>
      </trkpt>
      <trkpt lat="47.467405" lon="7.738857">
        <ele>349.322027</ele>
        <time>2021-11-14T17:07:47.916Z</time>
      </trkpt>
      <trkpt lat="47.467174" lon="7.738757">
        <ele>349.842187</ele>
        <time>2021-11-14T17:07:53.677Z</time>
      </trkpt>
      <trkpt lat="47.467080" lon="7.738726">
        <ele>350.050321</ele>
        <time>2021-11-14T17:07:55.955Z</time>
      </trkpt>
      <trkpt lat="47.466320" lon="7.738600">
        <ele>351.559768</ele>
        <time>2021-11-14T17:08:13.496Z</time>
      </trkpt>
      <trkpt lat="47.466070" lon="7.738615">
        <ele>351.985085</ele>
        <time>2021-11-14T17:08:19.209Z</time>
      </trkpt>
      <trkpt lat="47.466017" lon="7.738617">
        <ele>352.075207</ele>
        <time>2021-11-14T17:08:20.381Z</time>
      </trkpt>
      <trkpt lat="47.465278" lon="7.738667">
        <ele>353.332725</ele>
        <time>2021-11-14T17:08:36.090Z</time>
      </trkpt>
      <trkpt lat="47.465111" lon="7.738724">
        <ele>353.624063</ele>
        <time>2021-11-14T17:08:39.644Z</time>
      </trkpt>
      <trkpt lat="47.464818" lon="7.738771">
        <ele>354.117895</ele>
        <time>2021-11-14T17:08:45.621Z</time>
      </trkpt>
      <trkpt lat="47.464525" lon="7.738789">
        <ele>354.517124</ele>
        <time>2021-11-14T17:08:51.663Z</time>
      </trkpt>
      <trkpt lat="47.464246" lon="7.738800">
        <ele>354.897085</ele>
        <time>2021-11-14T17:08:57.294Z</time>
      </trkpt>
      <trkpt lat="47.462754" lon="7.738927">
        <ele>356.898681</ele>
        <time>2021-11-14T17:09:27.745Z</time>
      </trkpt>
      <trkpt lat="47.462428" lon="7.738996">
        <ele>357.309505</ele>
        <time>2021-11-14T17:09:33.773Z</time>
      </trkpt>
      <trkpt lat="47.462257" lon="7.739044">
        <ele>357.526633</ele>
        <time>2021-11-14T17:09:36.795Z</time>
      </trkpt>
      <trkpt lat="47.462058" lon="7.739121">
        <ele>357.783237</ele>
        <time>2021-11-14T17:09:41.099Z</time>
      </trkpt>
      <trkpt lat="47.461764" lon="7.739271">
        <ele>358.171205</ele>
        <time>2021-11-14T17:09:47.280Z</time>
      </trkpt>
      <trkpt lat="47.461511" lon="7.739436">
        <ele>358.516138</ele>
        <time>2021-11-14T17:09:52.514Z</time>
      </trkpt>
      <trkpt lat="47.461070" lon="7.739839">
        <ele>359.195444</ele>
        <time>2021-11-14T17:10:03.480Z</time>
      </trkpt>
      <trkpt lat="47.460986" lon="7.739937">
        <ele>359.340331</ele>
        <time>2021-11-14T17:10:05.340Z</time>
      </trkpt>
      <trkpt lat="47.460849" lon="7.740105">
        <ele>359.581338</ele>
        <time>2021-11-14T17:10:09.484Z</time>
      </trkpt>
      <trkpt lat="47.460198" lon="7.741001">
        <ele>360.785628</ele>
        <time>2021-11-14T17:10:27.594Z</time>
      </trkpt>
      <trkpt lat="47.459971" lon="7.741305">
        <ele>361.200338</ele>
        <time>2021-11-14T17:10:33.764Z</time>
      </trkpt>
      <trkpt lat="47.459913" lon="7.741325">
        <ele>361.223771</ele>
        <time>2021-11-14T17:10:34.767Z</time>
      </trkpt>
      <trkpt lat="47.459783" lon="7.741480">
        <ele>361.246384</ele>
        <time>2021-11-14T17:10:38.327Z</time>
      </trkpt>
      <trkpt lat="47.459608" lon="7.741712">
        <ele>361.278209</ele>
        <time>2021-11-14T17:10:42.501Z</time>
      </trkpt>
      <trkpt lat="47.459358" lon="7.742054">
        <ele>361.324326</ele>
        <time>2021-11-14T17:10:48.007Z</time>
      </trkpt>
      <trkpt lat="47.459335" lon="7.742086">
        <ele>361.328602</ele>
        <time>2021-11-14T17:10:48.552Z</time>
      </trkpt>
      <trkpt lat="47.459262" lon="7.742192">
        <ele>361.342456</ele>
        <time>2021-11-14T17:10:50.055Z</time>
      </trkpt>
      <trkpt lat="47.459161" lon="7.742348">
        <ele>361.362232</ele>
        <time>2021-11-14T17:10:51.997Z</time>
      </trkpt>
      <trkpt lat="47.459104" lon="7.742436">
        <ele>361.373390</ele>
        <time>2021-11-14T17:10:53.089Z</time>
      </trkpt>
      <trkpt lat="47.458942" lon="7.742676">
        <ele>361.404442</ele>
        <time>2021-11-14T17:10:56.199Z</time>
      </trkpt>
      <trkpt lat="47.458180" lon="7.743736">
        <ele>361.623765</ele>
        <time>2021-11-14T17:11:09.978Z</time>
      </trkpt>
      <trkpt lat="47.458097" lon="7.743895">
        <ele>361.658940</ele>
        <time>2021-11-14T17:11:11.788Z</time>
      </trkpt>
      <trkpt lat="47.457850" lon="7.744234">
        <ele>361.746209</ele>
        <time>2021-11-14T17:11:16.696Z</time>
      </trkpt>
      <trkpt lat="47.457302" lon="7.744993">
        <ele>362.019679</ele>
        <time>2021-11-14T17:11:30.603Z</time>
      </trkpt>
      <trkpt lat="47.457103" lon="7.745266">
        <ele>362.491462</ele>
        <time>2021-11-14T17:11:36.739Z</time>
      </trkpt>
      <trkpt lat="47.456072" lon="7.746683">
        <ele>364.937828</ele>
        <time>2021-11-14T17:12:08.962Z</time>
      </trkpt>
      <trkpt lat="47.456065" lon="7.746691">
        <ele>364.953204</ele>
        <time>2021-11-14T17:12:09.314Z</time>
      </trkpt>
      <trkpt lat="47.455618" lon="7.747172">
        <ele>365.705240</ele>
        <time>2021-11-14T17:12:20.239Z</time>
      </trkpt>
      <trkpt lat="47.453184" lon="7.748733">
        <ele>369.940451</ele>
        <time>2021-11-14T17:13:12.432Z</time>
      </trkpt>
      <trkpt lat="47.452785" lon="7.748985">
        <ele>370.750290</ele>
        <time>2021-11-14T17:13:23.724Z</time>
      </trkpt>
      <trkpt lat="47.452651" lon="7.749069">
        <ele>371.423332</ele>
        <time>2021-11-14T17:13:28.363Z</time>
      </trkpt>
      <trkpt lat="47.452067" lon="7.749491">
        <ele>374.636697</ele>
        <time>2021-11-14T17:13:49.318Z</time>
      </trkpt>
      <trkpt lat="47.451732" lon="7.749739">
        <ele>376.488769</ele>
        <time>2021-11-14T17:14:02.982Z</time>
      </trkpt>
      <trkpt lat="47.451310" lon="7.750030">
        <ele>378.790686</ele>
        <time>2021-11-14T17:14:21.830Z</time>
      </trkpt>
      <trkpt lat="47.451102" lon="7.750197">
        <ele>379.930208</ele>
        <time>2021-11-14T17:14:30.934Z</time>
      </trkpt>
      <trkpt lat="47.450829" lon="7.750425">
        <ele>381.317061</ele>
        <time>2021-11-14T17:14:42.653Z</time>
      </trkpt>
      <trkpt lat="47.450534" lon="7.750678">
        <ele>382.825522</ele>
        <time>2021-11-14T17:14:55.475Z</time>
      </trkpt>
      <trkpt lat="47.450300" lon="7.750889">
        <ele>384.037839</ele>
        <time>2021-11-14T17:15:05.323Z</time>
      </trkpt>
      <trkpt lat="47.450098" lon="7.751078">
        <ele>385.095190</ele>
        <time>2021-11-14T17:15:13.537Z</time>
      </trkpt>
      <trkpt lat="47.448903" lon="7.752305">
        <ele>387.994660</ele>
        <time>2021-11-14T17:15:47.957Z</time>
      </trkpt>
      <trkpt lat="47.448053" lon="7.753318">
        <ele>388.022756</ele>
        <time>2021-11-14T17:16:00.841Z</time>
      </trkpt>
      <trkpt lat="47.447682" lon="7.753856">
        <ele>386.975198</ele>
        <time>2021-11-14T17:16:06.460Z</time>
      </trkpt>
      <trkpt lat="47.446908" lon="7.755161">
        <ele>384.711708</ele>
        <time>2021-11-14T17:16:19.068Z</time>
      </trkpt>
      <trkpt lat="47.446884" lon="7.755192">
        <ele>384.694055</ele>
        <time>2021-11-14T17:16:19.382Z</time>
      </trkpt>
      <trkpt lat="47.446447" lon="7.755758">
        <ele>384.372245</ele>
        <time>2021-11-14T17:16:26.145Z</time>
      </trkpt>
      <trkpt lat="47.446380" lon="7.755845">
        <ele>384.322851</ele>
        <time>2021-11-14T17:16:27.201Z</time>
      </trkpt>
      <trkpt lat="47.446148" lon="7.756104">
        <ele>384.161819</ele>
        <time>2021-11-14T17:16:30.905Z</time>
      </trkpt>
      <trkpt lat="47.445858" lon="7.756435">
        <ele>383.958881</ele>
        <time>2021-11-14T17:16:36.107Z</time>
      </trkpt>
      <trkpt lat="47.445278" lon="7.757084">
        <ele>384.568784</ele>
        <time>2021-11-14T17:16:50.334Z</time>
      </trkpt>
      <trkpt lat="47.444843" lon="7.757585">
        <ele>385.822603</ele>
        <time>2021-11-14T17:17:03.304Z</time>
      </trkpt>
      <trkpt lat="47.444749" lon="7.757695">
        <ele>386.095195</ele>
        <time>2021-11-14T17:17:06.326Z</time>
      </trkpt>
      <trkpt lat="47.444198" lon="7.758252">
        <ele>387.612962</ele>
        <time>2021-11-14T17:17:23.549Z</time>
      </trkpt>
      <trkpt lat="47.443856" lon="7.758691">
        <ele>389.207017</ele>
        <time>2021-11-14T17:17:36.647Z</time>
      </trkpt>
      <trkpt lat="47.443560" lon="7.758889">
        <ele>390.467800</ele>
        <time>2021-11-14T17:17:46.416Z</time>
      </trkpt>
      <trkpt lat="47.443134" lon="7.759475">
        <ele>392.725809</ele>
        <time>2021-11-14T17:18:03.974Z</time>
      </trkpt>
      <trkpt lat="47.442943" lon="7.759844">
        <ele>393.945394</ele>
        <time>2021-11-14T17:18:13.980Z</time>
      </trkpt>
      <trkpt lat="47.443002" lon="7.759874">
        <ele>394.187518</ele>
        <time>2021-11-14T17:18:15.640Z</time>
      </trkpt>
      <trkpt lat="47.443041" lon="7.759900">
        <ele>394.353541</ele>
        <time>2021-11-14T17:18:16.832Z</time>
      </trkpt>
      <trkpt lat="47.443200" lon="7.760059">
        <ele>395.151031</ele>
        <time>2021-11-14T17:18:23.286Z</time>
      </trkpt>
      <trkpt lat="47.443255" lon="7.760116">
        <ele>395.461700</ele>
        <time>2021-11-14T17:18:25.402Z</time>
      </trkpt>
      <trkpt lat="47.443178" lon="7.760281">
        <ele>396.088821</ele>
        <time>2021-11-14T17:18:29.848Z</time>
      </trkpt>
      <trkpt lat="47.443112" lon="7.760477">
        <ele>396.773763</ele>
        <time>2021-11-14T17:18:35.693Z</time>
      </trkpt>
      <trkpt lat="47.443049" lon="7.760704">
        <ele>397.541353</ele>
        <time>2021-11-14T17:18:41.023Z</time>
      </trkpt>
      <trkpt lat="47.442878" lon="7.761382">
        <ele>399.805030</ele>
        <time>2021-11-14T17:18:58.773Z</time>
      </trkpt>
      <trkpt lat="47.442562" lon="7.762024">
        <ele>402.288983</ele>
        <time>2021-11-14T17:19:16.681Z</time>
      </trkpt>
      <trkpt lat="47.442389" lon="7.762334">
        <ele>403.418731</ele>
        <time>2021-11-14T17:19:25.033Z</time>
      </trkpt>
      <trkpt lat="47.442382" lon="7.762437">
        <ele>403.639888</ele>
        <time>2021-11-14T17:19:26.876Z</time>
      </trkpt>
      <trkpt lat="47.441500" lon="7.763896">
        <ele>407.820560</ele>
        <time>2021-11-14T17:20:05.583Z</time>
      </trkpt>
      <trkpt lat="47.441114" lon="7.764541">
        <ele>409.122352</ele>
        <time>2021-11-14T17:20:17.816Z</time>
      </trkpt>
      <trkpt lat="47.440724" lon="7.765190">
        <ele>409.781608</ele>
        <time>2021-11-14T17:20:28.513Z</time>
      </trkpt>
      <trkpt lat="47.440245" lon="7.765985">
        <ele>410.590120</ele>
        <time>2021-11-14T17:20:41.962Z</time>
      </trkpt>
      <trkpt lat="47.439603" lon="7.767042">
        <ele>411.916018</ele>
        <time>2021-11-14T17:20:58.926Z</time>
      </trkpt>
      <trkpt lat="47.439506" lon="7.767200">
        <ele>412.126650</ele>
        <time>2021-11-14T17:21:02.073Z</time>
      </trkpt>
      <trkpt lat="47.438768" lon="7.768399">
        <ele>414.007578</ele>
        <time>2021-11-14T17:21:25.527Z</time>
      </trkpt>
      <trkpt lat="47.437853" lon="7.769608">
        <ele>417.754952</ele>
        <time>2021-11-14T17:22:00.742Z</time>
      </trkpt>
      <trkpt lat="47.437408" lon="7.770018">
        <ele>419.285754</ele>
        <time>2021-11-14T17:22:15.520Z</time>
      </trkpt>
      <trkpt lat="47.437200" lon="7.770210">
        <ele>419.900703</ele>
        <time>2021-11-14T17:22:22.390Z</time>
      </trkpt>
      <trkpt lat="47.435819" lon="7.771833">
        <ele>423.314600</ele>
        <time>2021-11-14T17:23:05.381Z</time>
      </trkpt>
      <trkpt lat="47.435758" lon="7.771905">
        <ele>423.278163</ele>
        <time>2021-11-14T17:23:07.283Z</time>
      </trkpt>
      <trkpt lat="47.434841" lon="7.772600">
        <ele>422.797135</ele>
        <time>2021-11-14T17:23:19.904Z</time>
      </trkpt>
      <trkpt lat="47.434141" lon="7.773072">
        <ele>421.371711</ele>
        <time>2021-11-14T17:23:28.186Z</time>
      </trkpt>
      <trkpt lat="47.434119" lon="7.772984">
        <ele>421.180560</ele>
        <time>2021-11-14T17:23:29.022Z</time>
      </trkpt>
      <trkpt lat="47.433941" lon="7.773088">
        <ele>420.604057</ele>
        <time>2021-11-14T17:23:31.027Z</time>
      </trkpt>
      <trkpt lat="47.433246" lon="7.773363">
        <ele>418.436980</ele>
        <time>2021-11-14T17:23:38.194Z</time>
      </trkpt>
      <trkpt lat="47.432741" lon="7.773429">
        <ele>417.079599</ele>
        <time>2021-11-14T17:23:43.221Z</time>
      </trkpt>
      <trkpt lat="47.432060" lon="7.773355">
        <ele>416.163275</ele>
        <time>2021-11-14T17:23:50.488Z</time>
      </trkpt>
      <trkpt lat="47.431423" lon="7.773118">
        <ele>415.281802</ele>
        <time>2021-11-14T17:23:58.656Z</time>
      </trkpt>
      <trkpt lat="47.431011" lon="7.772908">
        <ele>414.944868</ele>
        <time>2021-11-14T17:24:05.471Z</time>
      </trkpt>
      <trkpt lat="47.430283" lon="7.772555">
        <ele>416.337957</ele>
        <time>2021-11-14T17:24:21.442Z</time>
      </trkpt>
      <trkpt lat="47.429020" lon="7.771862">
        <ele>418.896502</ele>
        <time>2021-11-14T17:24:55.422Z</time>
      </trkpt>
      <trkpt lat="47.428770" lon="7.771707">
        <ele>419.464577</ele>
        <time>2021-11-14T17:25:01.925Z</time>
      </trkpt>
      <trkpt lat="47.428601" lon="7.771642">
        <ele>419.830498</ele>
        <time>2021-11-14T17:25:06.374Z</time>
      </trkpt>
      <trkpt lat="47.427870" lon="7.771359">
        <ele>421.413932</ele>
        <time>2021-11-14T17:25:23.370Z</time>
      </trkpt>
      <trkpt lat="47.427740" lon="7.771340">
        <ele>421.687668</ele>
        <time>2021-11-14T17:25:25.929Z</time>
      </trkpt>
      <trkpt lat="47.427702" lon="7.771335">
        <ele>421.767610</ele>
        <time>2021-11-14T17:25:26.671Z</time>
      </trkpt>
      <trkpt lat="47.427593" lon="7.771328">
        <ele>421.953359</ele>
        <time>2021-11-14T17:25:29.145Z</time>
      </trkpt>
      <trkpt lat="47.427296" lon="7.771252">
        <ele>422.409846</ele>
        <time>2021-11-14T17:25:34.828Z</time>
      </trkpt>
      <trkpt lat="47.427175" lon="7.771179">
        <ele>422.607773</ele>
        <time>2021-11-14T17:25:37.536Z</time>
      </trkpt>
      <trkpt lat="47.427112" lon="7.771125">
        <ele>422.718066</ele>
        <time>2021-11-14T17:25:38.860Z</time>
      </trkpt>
      <trkpt lat="47.426997" lon="7.771000">
        <ele>422.934250</ele>
        <time>2021-11-14T17:25:41.518Z</time>
      </trkpt>
      <trkpt lat="47.426977" lon="7.770973">
        <ele>422.975272</ele>
        <time>2021-11-14T17:25:42.183Z</time>
      </trkpt>
      <trkpt lat="47.426821" lon="7.770734">
        <ele>423.315539</ele>
        <time>2021-11-14T17:25:46.527Z</time>
      </trkpt>
      <trkpt lat="47.426586" lon="7.770441">
        <ele>423.781143</ele>
        <time>2021-11-14T17:25:53.011Z</time>
      </trkpt>
      <trkpt lat="47.426561" lon="7.770421">
        <ele>423.824195</ele>
        <time>2021-11-14T17:25:53.570Z</time>
      </trkpt>
      <trkpt lat="47.426442" lon="7.770325">
        <ele>424.029511</ele>
        <time>2021-11-14T17:25:56.481Z</time>
      </trkpt>
      <trkpt lat="47.426137" lon="7.770135">
        <ele>424.530771</ele>
        <time>2021-11-14T17:26:04.087Z</time>
      </trkpt>
      <trkpt lat="47.425937" lon="7.770017">
        <ele>425.179515</ele>
        <time>2021-11-14T17:26:08.767Z</time>
      </trkpt>
      <trkpt lat="47.425665" lon="7.769858">
        <ele>426.113080</ele>
        <time>2021-11-14T17:26:15.573Z</time>
      </trkpt>
      <trkpt lat="47.425372" lon="7.769666">
        <ele>427.136026</ele>
        <time>2021-11-14T17:26:22.903Z</time>
      </trkpt>
      <trkpt lat="47.425140" lon="7.769501">
        <ele>427.957757</ele>
        <time>2021-11-14T17:26:29.785Z</time>
      </trkpt>
      <trkpt lat="47.424876" lon="7.769315">
        <ele>428.891191</ele>
        <time>2021-11-14T17:26:37.597Z</time>
      </trkpt>
      <trkpt lat="47.424861" lon="7.769306">
        <ele>428.942861</ele>
        <time>2021-11-14T17:26:38.451Z</time>
      </trkpt>
      <trkpt lat="47.424704" lon="7.769209">
        <ele>429.485971</ele>
        <time>2021-11-14T17:26:45.626Z</time>
      </trkpt>
      <trkpt lat="47.424599" lon="7.769145">
        <ele>429.848476</ele>
        <time>2021-11-14T17:26:48.280Z</time>
      </trkpt>
      <trkpt lat="47.424523" lon="7.769284">
        <ele>430.234391</ele>
        <time>2021-11-14T17:26:52.966Z</time>
      </trkpt>
      <trkpt lat="47.424175" lon="7.769729">
        <ele>432.364404</ele>
        <time>2021-11-14T17:27:10.301Z</time>
      </trkpt>
      <trkpt lat="47.424021" lon="7.769926">
        <ele>433.322222</ele>
        <time>2021-11-14T17:27:15.030Z</time>
      </trkpt>
      <trkpt lat="47.423938" lon="7.769994">
        <ele>433.768512</ele>
        <time>2021-11-14T17:27:19.913Z</time>
      </trkpt>
      <trkpt lat="47.423921" lon="7.770007">
        <ele>433.858526</ele>
        <time>2021-11-14T17:27:20.988Z</time>
      </trkpt>
      <trkpt lat="47.423658" lon="7.770256">
        <ele>435.327364</ele>
        <time>2021-11-14T17:27:29.988Z</time>
      </trkpt>
      <trkpt lat="47.423641" lon="7.770276">
        <ele>435.429547</ele>
        <time>2021-11-14T17:27:31.530Z</time>
      </trkpt>
      <trkpt lat="47.423589" lon="7.770342">
        <ele>435.751887</ele>
        <time>2021-11-14T17:27:33.994Z</time>
      </trkpt>
      <trkpt lat="47.423377" lon="7.770427">
        <ele>436.784922</ele>
        <time>2021-11-14T17:27:39.759Z</time>
      </trkpt>
      <trkpt lat="47.423330" lon="7.770415">
        <ele>437.009229</ele>
        <time>2021-11-14T17:27:42.084Z</time>
      </trkpt>
      <trkpt lat="47.423115" lon="7.770334">
        <ele>438.052671</ele>
        <time>2021-11-14T17:27:49.715Z</time>
      </trkpt>
      <trkpt lat="47.422737" lon="7.770283">
        <ele>439.418831</ele>
        <time>2021-11-14T17:28:02.127Z</time>
      </trkpt>
      <trkpt lat="47.422620" lon="7.770267">
        <ele>439.755620</ele>
        <time>2021-11-14T17:28:06.054Z</time>
      </trkpt>
      <trkpt lat="47.422547" lon="7.770298">
        <ele>439.973325</ele>
        <time>2021-11-14T17:28:09.778Z</time>
      </trkpt>
      <trkpt lat="47.422480" lon="7.770363">
        <ele>440.203041</ele>
        <time>2021-11-14T17:28:12.314Z</time>
      </trkpt>
      <trkpt lat="47.422227" lon="7.770645">
        <ele>441.111313</ele>
        <time>2021-11-14T17:28:21.878Z</time>
      </trkpt>
      <trkpt lat="47.422134" lon="7.770697">
        <ele>441.396316</ele>
        <time>2021-11-14T17:28:24.567Z</time>
      </trkpt>
      <trkpt lat="47.421917" lon="7.770778">
        <ele>442.037832</ele>
        <time>2021-11-14T17:28:29.265Z</time>
      </trkpt>
      <trkpt lat="47.421479" lon="7.770970">
        <ele>443.347324</ele>
        <time>2021-11-14T17:28:38.740Z</time>
      </trkpt>
      <trkpt lat="47.420948" lon="7.771461">
        <ele>444.130984</ele>
        <time>2021-11-14T17:28:50.734Z</time>
      </trkpt>
      <trkpt lat="47.420752" lon="7.771639">
        <ele>444.244550</ele>
        <time>2021-11-14T17:28:54.749Z</time>
      </trkpt>
      <trkpt lat="47.420502" lon="7.771823">
        <ele>444.382423</ele>
        <time>2021-11-14T17:28:58.742Z</time>
      </trkpt>
      <trkpt lat="47.420038" lon="7.772054">
        <ele>444.624131</ele>
        <time>2021-11-14T17:29:05.827Z</time>
      </trkpt>
      <trkpt lat="47.419668" lon="7.772445">
        <ele>444.959667</ele>
        <time>2021-11-14T17:29:13.305Z</time>
      </trkpt>
      <trkpt lat="47.419457" lon="7.772722">
        <ele>445.483099</ele>
        <time>2021-11-14T17:29:18.021Z</time>
      </trkpt>
      <trkpt lat="47.419231" lon="7.773074">
        <ele>446.092052</ele>
        <time>2021-11-14T17:29:23.931Z</time>
      </trkpt>
      <trkpt lat="47.419197" lon="7.773144">
        <ele>446.200187</ele>
        <time>2021-11-14T17:29:25.665Z</time>
      </trkpt>
      <trkpt lat="47.419187" lon="7.773164">
        <ele>446.231395</ele>
        <time>2021-11-14T17:29:26.117Z</time>
      </trkpt>
      <trkpt lat="47.419119" lon="7.773306">
        <ele>446.449709</ele>
        <time>2021-11-14T17:29:28.047Z</time>
      </trkpt>
      <trkpt lat="47.419091" lon="7.773374">
        <ele>446.549604</ele>
        <time>2021-11-14T17:29:29.194Z</time>
      </trkpt>
      <trkpt lat="47.419001" lon="7.773564">
        <ele>446.840664</ele>
        <time>2021-11-14T17:29:33.348Z</time>
      </trkpt>
      <trkpt lat="47.418918" lon="7.773736">
        <ele>447.105783</ele>
        <time>2021-11-14T17:29:36.103Z</time>
      </trkpt>
      <trkpt lat="47.418795" lon="7.773989">
        <ele>447.496740</ele>
        <time>2021-11-14T17:29:41.508Z</time>
      </trkpt>
      <trkpt lat="47.418362" lon="7.774660">
        <ele>449.519645</ele>
        <time>2021-11-14T17:29:59.048Z</time>
      </trkpt>
      <trkpt lat="47.418266" lon="7.774789">
        <ele>450.161006</ele>
        <time>2021-11-14T17:30:03.628Z</time>
      </trkpt>
      <trkpt lat="47.418115" lon="7.774939">
        <ele>451.060353</ele>
        <time>2021-11-14T17:30:11.100Z</time>
      </trkpt>
      <trkpt lat="47.417859" lon="7.775235">
        <ele>452.667046</ele>
        <time>2021-11-14T17:30:24.078Z</time>
      </trkpt>
      <trkpt lat="47.417414" lon="7.775292">
        <ele>454.874959</ele>
        <time>2021-11-14T17:30:44.494Z</time>
      </trkpt>
      <trkpt lat="47.417170" lon="7.775339">
        <ele>456.091269</ele>
        <time>2021-11-14T17:30:53.582Z</time>
      </trkpt>
      <trkpt lat="47.417095" lon="7.775341">
        <ele>456.462060</ele>
        <time>2021-11-14T17:30:58.150Z</time>
      </trkpt>
      <trkpt lat="47.416531" lon="7.775374">
        <ele>458.838213</ele>
        <time>2021-11-14T17:31:17.343Z</time>
      </trkpt>
      <trkpt lat="47.415950" lon="7.775644">
        <ele>461.286695</ele>
        <time>2021-11-14T17:31:39.214Z</time>
      </trkpt>
      <trkpt lat="47.415830" lon="7.775752">
        <ele>461.851536</ele>
        <time>2021-11-14T17:31:42.896Z</time>
      </trkpt>
      <trkpt lat="47.415206" lon="7.776746">
        <ele>464.452006</ele>
        <time>2021-11-14T17:32:05.448Z</time>
      </trkpt>
      <trkpt lat="47.414806" lon="7.777866">
        <ele>464.954981</ele>
        <time>2021-11-14T17:32:19.089Z</time>
      </trkpt>
      <trkpt lat="47.414733" lon="7.778030">
        <ele>465.032945</ele>
        <time>2021-11-14T17:32:20.536Z</time>
      </trkpt>
      <trkpt lat="47.414539" lon="7.778426">
        <ele>465.227113</ele>
        <time>2021-11-14T17:32:24.944Z</time>
      </trkpt>
      <trkpt lat="47.414194" lon="7.779208">
        <ele>465.916951</ele>
        <time>2021-11-14T17:32:35.310Z</time>
      </trkpt>
      <trkpt lat="47.413847" lon="7.780178">
        <ele>466.856156</ele>
        <time>2021-11-14T17:32:49.566Z</time>
      </trkpt>
      <trkpt lat="47.413801" lon="7.780338">
        <ele>467.004965</ele>
        <time>2021-11-14T17:32:52.077Z</time>
      </trkpt>
      <trkpt lat="47.413793" lon="7.780381">
        <ele>467.043139</ele>
        <time>2021-11-14T17:32:52.681Z</time>
      </trkpt>
      <trkpt lat="47.413769" lon="7.780518">
        <ele>467.164277</ele>
        <time>2021-11-14T17:32:54.675Z</time>
      </trkpt>
      <trkpt lat="47.413743" lon="7.780665">
        <ele>467.294337</ele>
        <time>2021-11-14T17:32:58.027Z</time>
      </trkpt>
      <trkpt lat="47.413631" lon="7.781411">
        <ele>468.371872</ele>
        <time>2021-11-14T17:33:10.642Z</time>
      </trkpt>
      <trkpt lat="47.413278" lon="7.782611">
        <ele>470.841072</ele>
        <time>2021-11-14T17:33:33.543Z</time>
      </trkpt>
      <trkpt lat="47.413097" lon="7.783444">
        <ele>472.492064</ele>
        <time>2021-11-14T17:33:49.515Z</time>
      </trkpt>
      <trkpt lat="47.412810" lon="7.784555">
        <ele>474.908939</ele>
        <time>2021-11-14T17:34:11.476Z</time>
      </trkpt>
      <trkpt lat="47.412650" lon="7.785562">
        <ele>477.019722</ele>
        <time>2021-11-14T17:34:30.245Z</time>
      </trkpt>
      <trkpt lat="47.412584" lon="7.785944">
        <ele>477.824245</ele>
        <time>2021-11-14T17:34:37.182Z</time>
      </trkpt>
      <trkpt lat="47.412318" lon="7.786627">
        <ele>479.584263</ele>
        <time>2021-11-14T17:34:51.255Z</time>
      </trkpt>
      <trkpt lat="47.411184" lon="7.788871">
        <ele>487.204966</ele>
        <time>2021-11-14T17:35:45.658Z</time>
      </trkpt>
      <trkpt lat="47.411048" lon="7.789140">
        <ele>488.486027</ele>
        <time>2021-11-14T17:35:55.313Z</time>
      </trkpt>
      <trkpt lat="47.411032" lon="7.789237">
        <ele>488.866934</ele>
        <time>2021-11-14T17:35:56.941Z</time>
      </trkpt>
      <trkpt lat="47.411026" lon="7.789475">
        <ele>489.775578</ele>
        <time>2021-11-14T17:36:05.152Z</time>
      </trkpt>
      <trkpt lat="47.411138" lon="7.790215">
        <ele>492.668560</ele>
        <time>2021-11-14T17:36:24.644Z</time>
      </trkpt>
      <trkpt lat="47.411256" lon="7.790603">
        <ele>494.310346</ele>
        <time>2021-11-14T17:36:37.397Z</time>
      </trkpt>
      <trkpt lat="47.411382" lon="7.790776">
        <ele>495.461771</ele>
        <time>2021-11-14T17:36:42.998Z</time>
      </trkpt>
      <trkpt lat="47.411437" lon="7.790833">
        <ele>495.911496</ele>
        <time>2021-11-14T17:36:47.673Z</time>
      </trkpt>
      <trkpt lat="47.411537" lon="7.790899">
        <ele>496.644686</ele>
        <time>2021-11-14T17:36:52.321Z</time>
      </trkpt>
      <trkpt lat="47.411889" lon="7.790879">
        <ele>499.002894</ele>
        <time>2021-11-14T17:37:09.407Z</time>
      </trkpt>
      <trkpt lat="47.411990" lon="7.790873">
        <ele>499.679586</ele>
        <time>2021-11-14T17:37:12.488Z</time>
      </trkpt>
      <trkpt lat="47.412811" lon="7.790495">
        <ele>505.436372</ele>
        <time>2021-11-14T17:37:49.581Z</time>
      </trkpt>
      <trkpt lat="47.413058" lon="7.790541">
        <ele>506.563770</ele>
        <time>2021-11-14T17:37:58.166Z</time>
      </trkpt>
      <trkpt lat="47.413105" lon="7.790579">
        <ele>506.700453</ele>
        <time>2021-11-14T17:38:00.906Z</time>
      </trkpt>
      <trkpt lat="47.413181" lon="7.790657">
        <ele>506.936525</ele>
        <time>2021-11-14T17:38:03.999Z</time>
      </trkpt>
      <trkpt lat="47.413286" lon="7.790823">
        <ele>507.328820</ele>
        <time>2021-11-14T17:38:08.338Z</time>
      </trkpt>
      <trkpt lat="47.413437" lon="7.791275">
        <ele>508.199088</ele>
        <time>2021-11-14T17:38:18.485Z</time>
      </trkpt>
      <trkpt lat="47.413547" lon="7.791735">
        <ele>509.041381</ele>
        <time>2021-11-14T17:38:27.314Z</time>
      </trkpt>
      <trkpt lat="47.413568" lon="7.792136">
        <ele>509.735755</ele>
        <time>2021-11-14T17:38:33.338Z</time>
      </trkpt>
      <trkpt lat="47.413564" lon="7.792225">
        <ele>509.889747</ele>
        <time>2021-11-14T17:38:34.811Z</time>
      </trkpt>
      <trkpt lat="47.413540" lon="7.792402">
        <ele>510.201402</ele>
        <time>2021-11-14T17:38:36.268Z</time>
      </trkpt>
      <trkpt lat="47.413515" lon="7.792523">
        <ele>510.419822</ele>
        <time>2021-11-14T17:38:38.586Z</time>
      </trkpt>
      <trkpt lat="47.413485" lon="7.792636">
        <ele>510.629387</ele>
        <time>2021-11-14T17:38:39.540Z</time>
      </trkpt>
      <trkpt lat="47.413420" lon="7.792802">
        <ele>510.633324</ele>
        <time>2021-11-14T17:38:41.194Z</time>
      </trkpt>
      <trkpt lat="47.413855" lon="7.793733">
        <ele>508.020364</ele>
        <time>2021-11-14T17:38:52.593Z</time>
      </trkpt>
      <trkpt lat="47.414103" lon="7.794308">
        <ele>506.445567</ele>
        <time>2021-11-14T17:38:59.053Z</time>
      </trkpt>
      <trkpt lat="47.414215" lon="7.794273">
        <ele>506.054859</ele>
        <time>2021-11-14T17:39:00.547Z</time>
      </trkpt>
      <trkpt lat="47.414574" lon="7.794332">
        <ele>504.822046</ele>
        <time>2021-11-14T17:39:05.418Z</time>
      </trkpt>
      <trkpt lat="47.415443" lon="7.795097">
        <ele>499.967458</ele>
        <time>2021-11-14T17:39:19.021Z</time>
      </trkpt>
      <trkpt lat="47.416168" lon="7.796441">
        <ele>494.574612</ele>
        <time>2021-11-14T17:39:35.010Z</time>
      </trkpt>
      <trkpt lat="47.416244" lon="7.796575">
        <ele>494.090804</ele>
        <time>2021-11-14T17:39:36.583Z</time>
      </trkpt>
      <trkpt lat="47.417398" lon="7.798623">
        <ele>487.414756</ele>
        <time>2021-11-14T17:40:01.951Z</time>
      </trkpt>
      <trkpt lat="47.417895" lon="7.799566">
        <ele>485.341067</ele>
        <time>2021-11-14T17:40:14.391Z</time>
      </trkpt>
      <trkpt lat="47.418027" lon="7.799823">
        <ele>484.781308</ele>
        <time>2021-11-14T17:40:17.932Z</time>
      </trkpt>
      <trkpt lat="47.418187" lon="7.800057">
        <ele>484.204173</ele>
        <time>2021-11-14T17:40:21.536Z</time>
      </trkpt>
      <trkpt lat="47.418719" lon="7.800568">
        <ele>483.283863</ele>
        <time>2021-11-14T17:40:31.961Z</time>
      </trkpt>
      <trkpt lat="47.419295" lon="7.801295">
        <ele>482.321968</ele>
        <time>2021-11-14T17:40:45.082Z</time>
      </trkpt>
      <trkpt lat="47.419609" lon="7.801838">
        <ele>481.708223</ele>
        <time>2021-11-14T17:40:53.286Z</time>
      </trkpt>
      <trkpt lat="47.420176" lon="7.802594">
        <ele>481.139849</ele>
        <time>2021-11-14T17:41:06.211Z</time>
      </trkpt>
      <trkpt lat="47.420910" lon="7.803864">
        <ele>480.483045</ele>
        <time>2021-11-14T17:41:26.183Z</time>
      </trkpt>
      <trkpt lat="47.421190" lon="7.804479">
        <ele>481.168581</ele>
        <time>2021-11-14T17:41:38.448Z</time>
      </trkpt>
      <trkpt lat="47.421413" lon="7.804692">
        <ele>481.531500</ele>
        <time>2021-11-14T17:41:49.687Z</time>
      </trkpt>
      <trkpt lat="47.422016" lon="7.805023">
        <ele>482.410715</ele>
        <time>2021-11-14T17:42:09.362Z</time>
      </trkpt>
      <trkpt lat="47.422176" lon="7.805125">
        <ele>482.648886</ele>
        <time>2021-11-14T17:42:12.301Z</time>
      </trkpt>
      <trkpt lat="47.422151" lon="7.805274">
        <ele>482.790854</ele>
        <time>2021-11-14T17:42:18.887Z</time>
      </trkpt>
      <trkpt lat="47.422022" lon="7.805754">
        <ele>481.318121</ele>
        <time>2021-11-14T17:42:29.495Z</time>
      </trkpt>
      <trkpt lat="47.422010" lon="7.805908">
        <ele>480.826988</ele>
        <time>2021-11-14T17:42:34.220Z</time>
      </trkpt>
      <trkpt lat="47.422138" lon="7.806089">
        <ele>479.997470</ele>
        <time>2021-11-14T17:42:38.630Z</time>
      </trkpt>
      <trkpt lat="47.422199" lon="7.806185">
        <ele>479.580220</ele>
        <time>2021-11-14T17:42:43.830Z</time>
      </trkpt>
      <trkpt lat="47.422255" lon="7.806325">
        <ele>479.064951</ele>
        <time>2021-11-14T17:42:45.473Z</time>
      </trkpt>
      <trkpt lat="47.422531" lon="7.807279">
        <ele>475.777750</ele>
        <time>2021-11-14T17:42:54.916Z</time>
      </trkpt>
      <trkpt lat="47.422532" lon="7.807347">
        <ele>475.562261</ele>
        <time>2021-11-14T17:42:55.451Z</time>
      </trkpt>
      <trkpt lat="47.422537" lon="7.807434">
        <ele>475.285634</ele>
        <time>2021-11-14T17:42:56.138Z</time>
      </trkpt>
      <trkpt lat="47.422498" lon="7.808033">
        <ele>472.373519</ele>
        <time>2021-11-14T17:43:01.166Z</time>
      </trkpt>
      <trkpt lat="47.422447" lon="7.808245">
        <ele>470.962207</ele>
        <time>2021-11-14T17:43:03.032Z</time>
      </trkpt>
      <trkpt lat="47.422283" lon="7.808539">
        <ele>468.572160</ele>
        <time>2021-11-14T17:43:06.099Z</time>
      </trkpt>
      <trkpt lat="47.421932" lon="7.808790">
        <ele>464.957279</ele>
        <time>2021-11-14T17:43:10.847Z</time>
      </trkpt>
      <trkpt lat="47.421860" lon="7.808837">
        <ele>464.227583</ele>
        <time>2021-11-14T17:43:11.782Z</time>
      </trkpt>
      <trkpt lat="47.421864" lon="7.808875">
        <ele>463.986360</ele>
        <time>2021-11-14T17:43:12.091Z</time>
      </trkpt>
      <trkpt lat="47.422811" lon="7.809317">
        <ele>456.051380</ele>
        <time>2021-11-14T17:43:24.632Z</time>
      </trkpt>
      <trkpt lat="47.423650" lon="7.809399">
        <ele>451.615485</ele>
        <time>2021-11-14T17:43:35.735Z</time>
      </trkpt>
      <trkpt lat="47.423989" lon="7.809433">
        <ele>449.822944</ele>
        <time>2021-11-14T17:43:40.675Z</time>
      </trkpt>
      <trkpt lat="47.424069" lon="7.809421">
        <ele>449.398728</ele>
        <time>2021-11-14T17:43:41.783Z</time>
      </trkpt>
      <trkpt lat="47.424349" lon="7.809415">
        <ele>448.092834</ele>
        <time>2021-11-14T17:43:46.000Z</time>
      </trkpt>
      <trkpt lat="47.424796" lon="7.809409">
        <ele>446.996361</ele>
        <time>2021-11-14T17:43:52.565Z</time>
      </trkpt>
      <trkpt lat="47.424872" lon="7.809392">
        <ele>446.807822</ele>
        <time>2021-11-14T17:43:53.772Z</time>
      </trkpt>
      <trkpt lat="47.425101" lon="7.809368">
        <ele>446.244707</ele>
        <time>2021-11-14T17:43:57.219Z</time>
      </trkpt>
      <trkpt lat="47.425224" lon="7.809342">
        <ele>445.939935</ele>
        <time>2021-11-14T17:43:59.086Z</time>
      </trkpt>
      <trkpt lat="47.425289" lon="7.809334">
        <ele>445.779948</ele>
        <time>2021-11-14T17:43:59.754Z</time>
      </trkpt>
      <trkpt lat="47.426272" lon="7.809123">
        <ele>443.430402</ele>
        <time>2021-11-14T17:44:10.818Z</time>
      </trkpt>
      <trkpt lat="47.427274" lon="7.808820">
        <ele>441.369880</ele>
        <time>2021-11-14T17:44:22.037Z</time>
      </trkpt>
      <trkpt lat="47.427429" lon="7.808737">
        <ele>441.037744</ele>
        <time>2021-11-14T17:44:23.871Z</time>
      </trkpt>
      <trkpt lat="47.427539" lon="7.808592">
        <ele>440.740808</ele>
        <time>2021-11-14T17:44:25.500Z</time>
      </trkpt>
      <trkpt lat="47.427681" lon="7.808295">
        <ele>440.245116</ele>
        <time>2021-11-14T17:44:28.204Z</time>
      </trkpt>
      <trkpt lat="47.427771" lon="7.808159">
        <ele>439.974944</ele>
        <time>2021-11-14T17:44:29.594Z</time>
      </trkpt>
      <trkpt lat="47.427920" lon="7.807976">
        <ele>439.565413</ele>
        <time>2021-11-14T17:44:31.697Z</time>
      </trkpt>
      <trkpt lat="47.428305" lon="7.807684">
        <ele>438.650633</ele>
        <time>2021-11-14T17:44:36.326Z</time>
      </trkpt>
      <trkpt lat="47.428483" lon="7.807631">
        <ele>438.266780</ele>
        <time>2021-11-14T17:44:38.260Z</time>
      </trkpt>
      <trkpt lat="47.428749" lon="7.807676">
        <ele>437.700781</ele>
        <time>2021-11-14T17:44:41.118Z</time>
      </trkpt>
      <trkpt lat="47.429226" lon="7.807832">
        <ele>436.668010</ele>
        <time>2021-11-14T17:44:46.429Z</time>
      </trkpt>
      <trkpt lat="47.429602" lon="7.807940">
        <ele>436.134248</ele>
        <time>2021-11-14T17:44:50.761Z</time>
      </trkpt>
      <trkpt lat="47.430186" lon="7.808045">
        <ele>435.519578</ele>
        <time>2021-11-14T17:44:57.474Z</time>
      </trkpt>
      <trkpt lat="47.430680" lon="7.808257">
        <ele>434.982128</ele>
        <time>2021-11-14T17:45:04.162Z</time>
      </trkpt>
      <trkpt lat="47.431104" lon="7.808253">
        <ele>434.539117</ele>
        <time>2021-11-14T17:45:09.976Z</time>
      </trkpt>
      <trkpt lat="47.431245" lon="7.808039">
        <ele>434.427279</ele>
        <time>2021-11-14T17:45:12.580Z</time>
      </trkpt>
      <trkpt lat="47.431372" lon="7.807553">
        <ele>434.244943</ele>
        <time>2021-11-14T17:45:17.753Z</time>
      </trkpt>
      <trkpt lat="47.431386" lon="7.807502">
        <ele>434.225681</ele>
        <time>2021-11-14T17:45:18.576Z</time>
      </trkpt>
      <trkpt lat="47.431493" lon="7.807482">
        <ele>434.169884</ele>
        <time>2021-11-14T17:45:20.547Z</time>
      </trkpt>
      <trkpt lat="47.432518" lon="7.807488">
        <ele>433.639597</ele>
        <time>2021-11-14T17:45:34.234Z</time>
      </trkpt>
      <trkpt lat="47.433295" lon="7.807681">
        <ele>431.740368</ele>
        <time>2021-11-14T17:45:43.025Z</time>
      </trkpt>
      <trkpt lat="47.433708" lon="7.807856">
        <ele>430.602673</ele>
        <time>2021-11-14T17:45:47.401Z</time>
      </trkpt>
      <trkpt lat="47.433785" lon="7.807876">
        <ele>430.395648</ele>
        <time>2021-11-14T17:45:48.123Z</time>
      </trkpt>
      <trkpt lat="47.433833" lon="7.807952">
        <ele>430.209397</ele>
        <time>2021-11-14T17:45:49.117Z</time>
      </trkpt>
      <trkpt lat="47.433883" lon="7.808024">
        <ele>430.024561</ele>
        <time>2021-11-14T17:45:50.154Z</time>
      </trkpt>
      <trkpt lat="47.434032" lon="7.808101">
        <ele>429.606584</ele>
        <time>2021-11-14T17:45:52.499Z</time>
      </trkpt>
      <trkpt lat="47.434429" lon="7.808290">
        <ele>428.536297</ele>
        <time>2021-11-14T17:45:58.405Z</time>
      </trkpt>
      <trkpt lat="47.434490" lon="7.808337">
        <ele>428.373055</ele>
        <time>2021-11-14T17:45:59.363Z</time>
      </trkpt>
      <trkpt lat="47.434924" lon="7.809008">
        <ele>426.882758</ele>
        <time>2021-11-14T17:46:08.554Z</time>
      </trkpt>
      <trkpt lat="47.434967" lon="7.809045">
        <ele>426.764687</ele>
        <time>2021-11-14T17:46:09.295Z</time>
      </trkpt>
      <trkpt lat="47.435289" lon="7.809150">
        <ele>425.982169</ele>
        <time>2021-11-14T17:46:14.543Z</time>
      </trkpt>
      <trkpt lat="47.435489" lon="7.809215">
        <ele>425.496209</ele>
        <time>2021-11-14T17:46:18.005Z</time>
      </trkpt>
      <trkpt lat="47.435556" lon="7.809237">
        <ele>425.333334</ele>
        <time>2021-11-14T17:46:19.118Z</time>
      </trkpt>
      <trkpt lat="47.435649" lon="7.809355">
        <ele>425.042494</ele>
        <time>2021-11-14T17:46:21.223Z</time>
      </trkpt>
      <trkpt lat="47.435726" lon="7.809439">
        <ele>424.815398</ele>
        <time>2021-11-14T17:46:22.801Z</time>
      </trkpt>
      <trkpt lat="47.435790" lon="7.809553">
        <ele>424.577585</ele>
        <time>2021-11-14T17:46:24.399Z</time>
      </trkpt>
      <trkpt lat="47.435849" lon="7.809664">
        <ele>424.470429</ele>
        <time>2021-11-14T17:46:25.897Z</time>
      </trkpt>
      <trkpt lat="47.435884" lon="7.809759">
        <ele>424.394714</ele>
        <time>2021-11-14T17:46:27.352Z</time>
      </trkpt>
      <trkpt lat="47.435972" lon="7.810114">
        <ele>424.130084</ele>
        <time>2021-11-14T17:46:31.584Z</time>
      </trkpt>
      <trkpt lat="47.436034" lon="7.810517">
        <ele>423.840815</ele>
        <time>2021-11-14T17:46:36.794Z</time>
      </trkpt>
      <trkpt lat="47.436286" lon="7.810439">
        <ele>423.574406</ele>
        <time>2021-11-14T17:46:41.328Z</time>
      </trkpt>
      <trkpt lat="47.436714" lon="7.810307">
        <ele>423.122002</ele>
        <time>2021-11-14T17:46:49.067Z</time>
      </trkpt>
      <trkpt lat="47.436754" lon="7.810295">
        <ele>423.079769</ele>
        <time>2021-11-14T17:46:49.716Z</time>
      </trkpt>
      <trkpt lat="47.436910" lon="7.810231">
        <ele>422.912249</ele>
        <time>2021-11-14T17:46:52.680Z</time>
      </trkpt>
      <trkpt lat="47.436971" lon="7.810198">
        <ele>422.845037</ele>
        <time>2021-11-14T17:46:53.794Z</time>
      </trkpt>
      <trkpt lat="47.437405" lon="7.809871">
        <ele>422.451213</ele>
        <time>2021-11-14T17:47:02.183Z</time>
      </trkpt>
      <trkpt lat="47.437530" lon="7.809761">
        <ele>422.346690</ele>
        <time>2021-11-14T17:47:04.517Z</time>
      </trkpt>
      <trkpt lat="47.437880" lon="7.809448">
        <ele>422.052776</ele>
        <time>2021-11-14T17:47:11.018Z</time>
      </trkpt>
      <trkpt lat="47.438351" lon="7.809132">
        <ele>421.681132</ele>
        <time>2021-11-14T17:47:19.997Z</time>
      </trkpt>
      <trkpt lat="47.438917" lon="7.808920">
        <ele>421.953090</ele>
        <time>2021-11-14T17:47:33.212Z</time>
      </trkpt>
      <trkpt lat="47.439160" lon="7.808856">
        <ele>422.606205</ele>
        <time>2021-11-14T17:47:39.745Z</time>
      </trkpt>
      <trkpt lat="47.439256" lon="7.808836">
        <ele>422.862737</ele>
        <time>2021-11-14T17:47:42.758Z</time>
      </trkpt>
      <trkpt lat="47.439561" lon="7.808777">
        <ele>423.676664</ele>
        <time>2021-11-14T17:47:51.896Z</time>
      </trkpt>
      <trkpt lat="47.439717" lon="7.808754">
        <ele>424.091497</ele>
        <time>2021-11-14T17:47:57.918Z</time>
      </trkpt>
      <trkpt lat="47.440417" lon="7.808777">
        <ele>425.944198</ele>
        <time>2021-11-14T17:48:23.068Z</time>
      </trkpt>
      <trkpt lat="47.442177" lon="7.809333">
        <ele>430.410745</ele>
        <time>2021-11-14T17:49:21.149Z</time>
      </trkpt>
      <trkpt lat="47.442683" lon="7.809428">
        <ele>429.543870</ele>
        <time>2021-11-14T17:49:30.129Z</time>
      </trkpt>
      <trkpt lat="47.442919" lon="7.809465">
        <ele>428.946047</ele>
        <time>2021-11-14T17:49:33.848Z</time>
      </trkpt>
      <trkpt lat="47.443441" lon="7.809553">
        <ele>427.622596</ele>
        <time>2021-11-14T17:49:42.248Z</time>
      </trkpt>
      <trkpt lat="47.443720" lon="7.809596">
        <ele>426.915979</ele>
        <time>2021-11-14T17:49:46.188Z</time>
      </trkpt>
      <trkpt lat="47.443991" lon="7.809623">
        <ele>426.231775</ele>
        <time>2021-11-14T17:49:49.748Z</time>
      </trkpt>
      <trkpt lat="47.444386" lon="7.809626">
        <ele>423.976880</ele>
        <time>2021-11-14T17:49:54.864Z</time>
      </trkpt>
      <trkpt lat="47.445054" lon="7.809404">
        <ele>419.696655</ele>
        <time>2021-11-14T17:50:03.638Z</time>
      </trkpt>
      <trkpt lat="47.445120" lon="7.809369">
        <ele>419.258318</ele>
        <time>2021-11-14T17:50:04.543Z</time>
      </trkpt>
      <trkpt lat="47.445298" lon="7.809256">
        <ele>418.047317</ele>
        <time>2021-11-14T17:50:06.314Z</time>
      </trkpt>
      <trkpt lat="47.445880" lon="7.808843">
        <ele>414.112967</ele>
        <time>2021-11-14T17:50:12.329Z</time>
      </trkpt>
      <trkpt lat="47.446066" lon="7.808703">
        <ele>412.967327</ele>
        <time>2021-11-14T17:50:14.214Z</time>
      </trkpt>
      <trkpt lat="47.446096" lon="7.808680">
        <ele>412.781835</ele>
        <time>2021-11-14T17:50:14.549Z</time>
      </trkpt>
      <trkpt lat="47.446142" lon="7.808642">
        <ele>412.492603</ele>
        <time>2021-11-14T17:50:15.029Z</time>
      </trkpt>
      <trkpt lat="47.446375" lon="7.808453">
        <ele>411.033836</ele>
        <time>2021-11-14T17:50:17.414Z</time>
      </trkpt>
      <trkpt lat="47.446473" lon="7.808376">
        <ele>410.424676</ele>
        <time>2021-11-14T17:50:18.410Z</time>
      </trkpt>
      <trkpt lat="47.446662" lon="7.808234">
        <ele>409.260995</ele>
        <time>2021-11-14T17:50:20.316Z</time>
      </trkpt>
      <trkpt lat="47.447314" lon="7.807756">
        <ele>405.266363</ele>
        <time>2021-11-14T17:50:27.205Z</time>
      </trkpt>
      <trkpt lat="47.447388" lon="7.807704">
        <ele>404.893523</ele>
        <time>2021-11-14T17:50:27.967Z</time>
      </trkpt>
      <trkpt lat="47.447457" lon="7.807654">
        <ele>404.683606</ele>
        <time>2021-11-14T17:50:28.814Z</time>
      </trkpt>
      <trkpt lat="47.447633" lon="7.807562">
        <ele>404.173638</ele>
        <time>2021-11-14T17:50:30.860Z</time>
      </trkpt>
      <trkpt lat="47.447668" lon="7.807553">
        <ele>404.076587</ele>
        <time>2021-11-14T17:50:31.224Z</time>
      </trkpt>
      <trkpt lat="47.447689" lon="7.807548">
        <ele>404.018479</ele>
        <time>2021-11-14T17:50:31.413Z</time>
      </trkpt>
      <trkpt lat="47.447914" lon="7.807549">
        <ele>403.403803</ele>
        <time>2021-11-14T17:50:33.933Z</time>
      </trkpt>
      <trkpt lat="47.448245" lon="7.807740">
        <ele>402.433141</ele>
        <time>2021-11-14T17:50:37.659Z</time>
      </trkpt>
      <trkpt lat="47.448284" lon="7.807767">
        <ele>402.315500</ele>
        <time>2021-11-14T17:50:38.073Z</time>
      </trkpt>
      <trkpt lat="47.448442" lon="7.807881">
        <ele>401.835222</ele>
        <time>2021-11-14T17:50:39.881Z</time>
      </trkpt>
      <trkpt lat="47.448807" lon="7.808072">
        <ele>400.777494</ele>
        <time>2021-11-14T17:50:44.012Z</time>
      </trkpt>
      <trkpt lat="47.448903" lon="7.808078">
        <ele>400.514999</ele>
        <time>2021-11-14T17:50:45.159Z</time>
      </trkpt>
      <trkpt lat="47.449015" lon="7.808053">
        <ele>400.205563</ele>
        <time>2021-11-14T17:50:46.344Z</time>
      </trkpt>
      <trkpt lat="47.449267" lon="7.807971">
        <ele>399.726631</ele>
        <time>2021-11-14T17:50:49.200Z</time>
      </trkpt>
      <trkpt lat="47.449353" lon="7.807942">
        <ele>399.583707</ele>
        <time>2021-11-14T17:50:50.113Z</time>
      </trkpt>
      <trkpt lat="47.449829" lon="7.807782">
        <ele>398.792764</ele>
        <time>2021-11-14T17:50:55.767Z</time>
      </trkpt>
      <trkpt lat="47.449896" lon="7.807771">
        <ele>398.683536</ele>
        <time>2021-11-14T17:50:56.556Z</time>
      </trkpt>
      <trkpt lat="47.450005" lon="7.807761">
        <ele>398.506582</ele>
        <time>2021-11-14T17:50:57.914Z</time>
      </trkpt>
      <trkpt lat="47.451415" lon="7.807774">
        <ele>396.238704</ele>
        <time>2021-11-14T17:51:14.128Z</time>
      </trkpt>
      <trkpt lat="47.451791" lon="7.807759">
        <ele>395.640382</ele>
        <time>2021-11-14T17:51:18.460Z</time>
      </trkpt>
      <trkpt lat="47.451923" lon="7.807754">
        <ele>395.430340</ele>
        <time>2021-11-14T17:51:19.983Z</time>
      </trkpt>
      <trkpt lat="47.452253" lon="7.807773">
        <ele>394.905010</ele>
        <time>2021-11-14T17:51:23.773Z</time>
      </trkpt>
      <trkpt lat="47.452456" lon="7.807753">
        <ele>394.581381</ele>
        <time>2021-11-14T17:51:26.083Z</time>
      </trkpt>
      <trkpt lat="47.452556" lon="7.807739">
        <ele>394.421600</ele>
        <time>2021-11-14T17:51:27.152Z</time>
      </trkpt>
      <trkpt lat="47.452649" lon="7.807724">
        <ele>394.273360</ele>
        <time>2021-11-14T17:51:28.215Z</time>
      </trkpt>
      <trkpt lat="47.452830" lon="7.807686">
        <ele>394.003991</ele>
        <time>2021-11-14T17:51:30.280Z</time>
      </trkpt>
      <trkpt lat="47.453183" lon="7.807608">
        <ele>393.478088</ele>
        <time>2021-11-14T17:51:34.164Z</time>
      </trkpt>
      <trkpt lat="47.453371" lon="7.807571">
        <ele>393.198637</ele>
        <time>2021-11-14T17:51:36.281Z</time>
      </trkpt>
      <trkpt lat="47.453677" lon="7.807487">
        <ele>392.740059</ele>
        <time>2021-11-14T17:51:40.009Z</time>
      </trkpt>
      <trkpt lat="47.453815" lon="7.807438">
        <ele>392.530944</ele>
        <time>2021-11-14T17:51:41.762Z</time>
      </trkpt>
      <trkpt lat="47.453901" lon="7.807402">
        <ele>392.399249</ele>
        <time>2021-11-14T17:51:42.862Z</time>
      </trkpt>
      <trkpt lat="47.453985" lon="7.807368">
        <ele>392.270927</ele>
        <time>2021-11-14T17:51:43.853Z</time>
      </trkpt>
      <trkpt lat="47.454310" lon="7.807191">
        <ele>391.760616</ele>
        <time>2021-11-14T17:51:48.104Z</time>
      </trkpt>
      <trkpt lat="47.454428" lon="7.807128">
        <ele>391.563460</ele>
        <time>2021-11-14T17:51:49.582Z</time>
      </trkpt>
      <trkpt lat="47.454559" lon="7.807067">
        <ele>391.315468</ele>
        <time>2021-11-14T17:51:51.373Z</time>
      </trkpt>
      <trkpt lat="47.455379" lon="7.806783">
        <ele>389.794749</ele>
        <time>2021-11-14T17:52:00.729Z</time>
      </trkpt>
      <trkpt lat="47.456100" lon="7.806718">
        <ele>388.490435</ele>
        <time>2021-11-14T17:52:08.624Z</time>
      </trkpt>
      <trkpt lat="47.456331" lon="7.806727">
        <ele>388.018842</ele>
        <time>2021-11-14T17:52:11.146Z</time>
      </trkpt>
      <trkpt lat="47.456502" lon="7.806745">
        <ele>387.654923</ele>
        <time>2021-11-14T17:52:12.964Z</time>
      </trkpt>
      <trkpt lat="47.456988" lon="7.806840">
        <ele>386.614265</ele>
        <time>2021-11-14T17:52:18.328Z</time>
      </trkpt>
      <trkpt lat="47.457291" lon="7.806917">
        <ele>385.961628</ele>
        <time>2021-11-14T17:52:21.618Z</time>
      </trkpt>
      <trkpt lat="47.457326" lon="7.806926">
        <ele>385.886215</ele>
        <time>2021-11-14T17:52:22.021Z</time>
      </trkpt>
      <trkpt lat="47.457732" lon="7.807037">
        <ele>385.009753</ele>
        <time>2021-11-14T17:52:26.460Z</time>
      </trkpt>
      <trkpt lat="47.458181" lon="7.807191">
        <ele>384.179414</ele>
        <time>2021-11-14T17:52:31.522Z</time>
      </trkpt>
      <trkpt lat="47.458237" lon="7.807215">
        <ele>384.090032</ele>
        <time>2021-11-14T17:52:32.154Z</time>
      </trkpt>
      <trkpt lat="47.458342" lon="7.807254">
        <ele>383.924063</ele>
        <time>2021-11-14T17:52:33.358Z</time>
      </trkpt>
      <trkpt lat="47.458678" lon="7.807409">
        <ele>383.384484</ele>
        <time>2021-11-14T17:52:37.352Z</time>
      </trkpt>
      <trkpt lat="47.459007" lon="7.807577">
        <ele>382.850897</ele>
        <time>2021-11-14T17:52:41.456Z</time>
      </trkpt>
      <trkpt lat="47.459282" lon="7.807707">
        <ele>382.408298</ele>
        <time>2021-11-14T17:52:45.007Z</time>
      </trkpt>
      <trkpt lat="47.459423" lon="7.807775">
        <ele>382.180937</ele>
        <time>2021-11-14T17:52:46.774Z</time>
      </trkpt>
      <trkpt lat="47.459865" lon="7.807952">
        <ele>381.495408</ele>
        <time>2021-11-14T17:52:52.027Z</time>
      </trkpt>
      <trkpt lat="47.460078" lon="7.808023">
        <ele>381.177491</ele>
        <time>2021-11-14T17:52:54.592Z</time>
      </trkpt>
      <trkpt lat="47.460298" lon="7.808103">
        <ele>380.847621</ele>
        <time>2021-11-14T17:52:57.202Z</time>
      </trkpt>
      <trkpt lat="47.460439" lon="7.808155">
        <ele>380.636032</ele>
        <time>2021-11-14T17:52:58.883Z</time>
      </trkpt>
      <trkpt lat="47.460827" lon="7.808276">
        <ele>380.058664</ele>
        <time>2021-11-14T17:53:03.456Z</time>
      </trkpt>
      <trkpt lat="47.460870" lon="7.808289">
        <ele>379.994760</ele>
        <time>2021-11-14T17:53:03.927Z</time>
      </trkpt>
      <trkpt lat="47.460938" lon="7.808308">
        <ele>379.893997</ele>
        <time>2021-11-14T17:53:04.772Z</time>
      </trkpt>
      <trkpt lat="47.461296" lon="7.808372">
        <ele>379.368938</ele>
        <time>2021-11-14T17:53:08.982Z</time>
      </trkpt>
      <trkpt lat="47.461822" lon="7.808433">
        <ele>378.689829</ele>
        <time>2021-11-14T17:53:14.973Z</time>
      </trkpt>
      <trkpt lat="47.461888" lon="7.808439">
        <ele>378.608158</ele>
        <time>2021-11-14T17:53:15.770Z</time>
      </trkpt>
      <trkpt lat="47.461997" lon="7.808450">
        <ele>378.473218</ele>
        <time>2021-11-14T17:53:16.957Z</time>
      </trkpt>
      <trkpt lat="47.462052" lon="7.808470">
        <ele>378.403264</ele>
        <time>2021-11-14T17:53:17.651Z</time>
      </trkpt>
      <trkpt lat="47.462087" lon="7.808494">
        <ele>378.355616</ele>
        <time>2021-11-14T17:53:18.131Z</time>
      </trkpt>
      <trkpt lat="47.462185" lon="7.808547">
        <ele>378.226738</ele>
        <time>2021-11-14T17:53:19.264Z</time>
      </trkpt>
      <trkpt lat="47.462879" lon="7.809121">
        <ele>377.244664</ele>
        <time>2021-11-14T17:53:28.848Z</time>
      </trkpt>
      <trkpt lat="47.462918" lon="7.809150">
        <ele>377.190751</ele>
        <time>2021-11-14T17:53:29.322Z</time>
      </trkpt>
      <trkpt lat="47.463007" lon="7.809215">
        <ele>377.068157</ele>
        <time>2021-11-14T17:53:30.728Z</time>
      </trkpt>
      <trkpt lat="47.463122" lon="7.809317">
        <ele>376.947225</ele>
        <time>2021-11-14T17:53:33.045Z</time>
      </trkpt>
      <trkpt lat="47.463347" lon="7.809533">
        <ele>376.847250</ele>
        <time>2021-11-14T17:53:38.107Z</time>
      </trkpt>
      <trkpt lat="47.463403" lon="7.809601">
        <ele>376.820246</ele>
        <time>2021-11-14T17:53:39.302Z</time>
      </trkpt>
      <trkpt lat="47.463603" lon="7.809961">
        <ele>376.702835</ele>
        <time>2021-11-14T17:53:45.260Z</time>
      </trkpt>
      <trkpt lat="47.463616" lon="7.809990">
        <ele>376.694068</ele>
        <time>2021-11-14T17:53:45.679Z</time>
      </trkpt>
      <trkpt lat="47.463652" lon="7.810060">
        <ele>376.671906</ele>
        <time>2021-11-14T17:53:46.822Z</time>
      </trkpt>
      <trkpt lat="47.463689" lon="7.810134">
        <ele>376.648714</ele>
        <time>2021-11-14T17:53:48.066Z</time>
      </trkpt>
      <trkpt lat="47.463753" lon="7.810251">
        <ele>376.610791</ele>
        <time>2021-11-14T17:53:49.790Z</time>
      </trkpt>
      <trkpt lat="47.463695" lon="7.810412">
        <ele>376.564823</ele>
        <time>2021-11-14T17:53:51.509Z</time>
      </trkpt>
      <trkpt lat="47.463647" lon="7.810559">
        <ele>376.523688</ele>
        <time>2021-11-14T17:53:53.092Z</time>
      </trkpt>
      <trkpt lat="47.463469" lon="7.810568">
        <ele>376.457307</ele>
        <time>2021-11-14T17:53:55.388Z</time>
      </trkpt>
      <trkpt lat="47.463301" lon="7.810602">
        <ele>376.394107</ele>
        <time>2021-11-14T17:53:57.883Z</time>
      </trkpt>
      <trkpt lat="47.463199" lon="7.810823">
        <ele>376.326681</ele>
        <time>2021-11-14T17:54:00.664Z</time>
      </trkpt>
      <trkpt lat="47.463053" lon="7.811430">
        <ele>376.325951</ele>
        <time>2021-11-14T17:54:07.732Z</time>
      </trkpt>
      <trkpt lat="47.463026" lon="7.811593">
        <ele>376.335508</ele>
        <time>2021-11-14T17:54:09.646Z</time>
      </trkpt>
      <trkpt lat="47.463020" lon="7.811691">
        <ele>376.341112</ele>
        <time>2021-11-14T17:54:10.642Z</time>
      </trkpt>
      <trkpt lat="47.462989" lon="7.811854">
        <ele>376.350756</ele>
        <time>2021-11-14T17:54:12.463Z</time>
      </trkpt>
      <trkpt lat="47.462865" lon="7.812376">
        <ele>376.382266</ele>
        <time>2021-11-14T17:54:18.392Z</time>
      </trkpt>
      <trkpt lat="47.462828" lon="7.812529">
        <ele>376.391520</ele>
        <time>2021-11-14T17:54:20.050Z</time>
      </trkpt>
      <trkpt lat="47.462817" lon="7.812574">
        <ele>376.394245</ele>
        <time>2021-11-14T17:54:20.555Z</time>
      </trkpt>
      <trkpt lat="47.462732" lon="7.812921">
        <ele>376.415264</ele>
        <time>2021-11-14T17:54:24.058Z</time>
      </trkpt>
      <trkpt lat="47.462698" lon="7.813056">
        <ele>376.423469</ele>
        <time>2021-11-14T17:54:25.389Z</time>
      </trkpt>
      <trkpt lat="47.462640" lon="7.813294">
        <ele>376.437877</ele>
        <time>2021-11-14T17:54:27.869Z</time>
      </trkpt>
      <trkpt lat="47.462613" lon="7.813401">
        <ele>376.444381</ele>
        <time>2021-11-14T17:54:28.907Z</time>
      </trkpt>
      <trkpt lat="47.462564" lon="7.813594">
        <ele>376.493002</ele>
        <time>2021-11-14T17:54:30.794Z</time>
      </trkpt>
      <trkpt lat="47.462396" lon="7.814329">
        <ele>376.730048</ele>
        <time>2021-11-14T17:54:39.132Z</time>
      </trkpt>
      <trkpt lat="47.462367" lon="7.814455">
        <ele>376.770714</ele>
        <time>2021-11-14T17:54:40.427Z</time>
      </trkpt>
      <trkpt lat="47.462241" lon="7.814875">
        <ele>376.911100</ele>
        <time>2021-11-14T17:54:46.063Z</time>
      </trkpt>
      <trkpt lat="47.462206" lon="7.814978">
        <ele>376.946321</ele>
        <time>2021-11-14T17:54:47.119Z</time>
      </trkpt>
      <trkpt lat="47.462171" lon="7.815069">
        <ele>376.978308</ele>
        <time>2021-11-14T17:54:48.243Z</time>
      </trkpt>
      <trkpt lat="47.462145" lon="7.815140">
        <ele>377.002978</ele>
        <time>2021-11-14T17:54:49.318Z</time>
      </trkpt>
      <trkpt lat="47.461994" lon="7.815782">
        <ele>377.210656</ele>
        <time>2021-11-14T17:54:57.726Z</time>
      </trkpt>
      <trkpt lat="47.461920" lon="7.816096">
        <ele>377.337937</ele>
        <time>2021-11-14T17:55:01.328Z</time>
      </trkpt>
      <trkpt lat="47.461846" lon="7.816333">
        <ele>377.457276</ele>
        <time>2021-11-14T17:55:05.025Z</time>
      </trkpt>
      <trkpt lat="47.461538" lon="7.817207">
        <ele>377.907838</ele>
        <time>2021-11-14T17:55:16.866Z</time>
      </trkpt>
      <trkpt lat="47.461416" lon="7.817861">
        <ele>378.217983</ele>
        <time>2021-11-14T17:55:24.812Z</time>
      </trkpt>
      <trkpt lat="47.461276" lon="7.818608">
        <ele>378.515676</ele>
        <time>2021-11-14T17:55:33.916Z</time>
      </trkpt>
      <trkpt lat="47.461324" lon="7.819030">
        <ele>378.595422</ele>
        <time>2021-11-14T17:55:38.541Z</time>
      </trkpt>
      <trkpt lat="47.461360" lon="7.819102">
        <ele>378.612110</ele>
        <time>2021-11-14T17:55:39.543Z</time>
      </trkpt>
      <trkpt lat="47.461404" lon="7.819154">
        <ele>378.627634</ele>
        <time>2021-11-14T17:55:40.444Z</time>
      </trkpt>
      <trkpt lat="47.461777" lon="7.819314">
        <ele>378.734681</ele>
        <time>2021-11-14T17:55:46.552Z</time>
      </trkpt>
      <trkpt lat="47.461803" lon="7.819336">
        <ele>378.742938</ele>
        <time>2021-11-14T17:55:46.853Z</time>
      </trkpt>
      <trkpt lat="47.461833" lon="7.819386">
        <ele>378.755395</ele>
        <time>2021-11-14T17:55:47.594Z</time>
      </trkpt>
      <trkpt lat="47.461832" lon="7.819582">
        <ele>378.791921</ele>
        <time>2021-11-14T17:55:49.709Z</time>
      </trkpt>
      <trkpt lat="47.461818" lon="7.819635">
        <ele>378.802525</ele>
        <time>2021-11-14T17:55:50.245Z</time>
      </trkpt>
      <trkpt lat="47.461754" lon="7.819910">
        <ele>378.856723</ele>
        <time>2021-11-14T17:55:53.365Z</time>
      </trkpt>
      <trkpt lat="47.461728" lon="7.820126">
        <ele>378.897607</ele>
        <time>2021-11-14T17:55:55.629Z</time>
      </trkpt>
      <trkpt lat="47.461722" lon="7.820179">
        <ele>378.907621</ele>
        <time>2021-11-14T17:55:56.198Z</time>
      </trkpt>
      <trkpt lat="47.461730" lon="7.820282">
        <ele>378.926942</ele>
        <time>2021-11-14T17:55:57.359Z</time>
      </trkpt>
      <trkpt lat="47.461748" lon="7.820387">
        <ele>378.947128</ele>
        <time>2021-11-14T17:55:58.409Z</time>
      </trkpt>
      <trkpt lat="47.461966" lon="7.821681">
        <ele>379.384914</ele>
        <time>2021-11-14T17:56:12.900Z</time>
      </trkpt>
      <trkpt lat="47.461985" lon="7.821867">
        <ele>379.449696</ele>
        <time>2021-11-14T17:56:15.614Z</time>
      </trkpt>
      <trkpt lat="47.461990" lon="7.821930">
        <ele>379.471541</ele>
        <time>2021-11-14T17:56:16.613Z</time>
      </trkpt>
      <trkpt lat="47.462122" lon="7.824085">
        <ele>380.158719</ele>
        <time>2021-11-14T17:56:41.310Z</time>
      </trkpt>
      <trkpt lat="47.462104" lon="7.824385">
        <ele>380.244104</ele>
        <time>2021-11-14T17:56:44.456Z</time>
      </trkpt>
      <trkpt lat="47.462075" lon="7.824560">
        <ele>380.295186</ele>
        <time>2021-11-14T17:56:46.344Z</time>
      </trkpt>
      <trkpt lat="47.462041" lon="7.824554">
        <ele>380.309544</ele>
        <time>2021-11-14T17:56:46.933Z</time>
      </trkpt>
      <trkpt lat="47.461981" lon="7.824592">
        <ele>380.336914</ele>
        <time>2021-11-14T17:56:47.916Z</time>
      </trkpt>
      <trkpt lat="47.461961" lon="7.824632">
        <ele>380.351018</ele>
        <time>2021-11-14T17:56:48.552Z</time>
      </trkpt>
      <trkpt lat="47.461951" lon="7.824677">
        <ele>380.364447</ele>
        <time>2021-11-14T17:56:48.938Z</time>
      </trkpt>
      <trkpt lat="47.461983" lon="7.824803">
        <ele>380.402606</ele>
        <time>2021-11-14T17:56:50.547Z</time>
      </trkpt>
      <trkpt lat="47.462009" lon="7.824828">
        <ele>380.415610</ele>
        <time>2021-11-14T17:56:50.982Z</time>
      </trkpt>
      <trkpt lat="47.462048" lon="7.824839">
        <ele>380.432259</ele>
        <time>2021-11-14T17:56:51.562Z</time>
      </trkpt>
      <trkpt lat="47.462087" lon="7.824826">
        <ele>380.449023</ele>
        <time>2021-11-14T17:56:52.256Z</time>
      </trkpt>
      <trkpt lat="47.462119" lon="7.824792">
        <ele>380.465545</ele>
        <time>2021-11-14T17:56:52.898Z</time>
      </trkpt>
      <trkpt lat="47.462172" lon="7.824876">
        <ele>380.498118</ele>
        <time>2021-11-14T17:56:54.195Z</time>
      </trkpt>
      <trkpt lat="47.462220" lon="7.824965">
        <ele>380.530395</ele>
        <time>2021-11-14T17:56:55.349Z</time>
      </trkpt>
      <trkpt lat="47.462266" lon="7.825058">
        <ele>380.563064</ele>
        <time>2021-11-14T17:56:56.738Z</time>
      </trkpt>
      <trkpt lat="47.462323" lon="7.825177">
        <ele>380.604409</ele>
        <time>2021-11-14T17:56:58.391Z</time>
      </trkpt>
      <trkpt lat="47.462301" lon="7.825212">
        <ele>380.617958</ele>
        <time>2021-11-14T17:56:58.926Z</time>
      </trkpt>
      <trkpt lat="47.462295" lon="7.825350">
        <ele>380.676155</ele>
        <time>2021-11-14T17:57:00.542Z</time>
      </trkpt>
      <trkpt lat="47.462312" lon="7.825390">
        <ele>380.707336</ele>
        <time>2021-11-14T17:57:00.968Z</time>
      </trkpt>
      <trkpt lat="47.462244" lon="7.825463">
        <ele>380.789357</ele>
        <time>2021-11-14T17:57:02.594Z</time>
      </trkpt>
      <trkpt lat="47.462057" lon="7.825761">
        <ele>381.057688</ele>
        <time>2021-11-14T17:57:07.182Z</time>
      </trkpt>
      <trkpt lat="47.461963" lon="7.826038">
        <ele>381.262237</ele>
        <time>2021-11-14T17:57:10.993Z</time>
      </trkpt>
      <trkpt lat="47.461900" lon="7.826316">
        <ele>381.455742</ele>
        <time>2021-11-14T17:57:14.483Z</time>
      </trkpt>
      <trkpt lat="47.461850" lon="7.826816">
        <ele>381.789318</ele>
        <time>2021-11-14T17:57:20.320Z</time>
      </trkpt>
      <trkpt lat="47.461804" lon="7.827389">
        <ele>382.170140</ele>
        <time>2021-11-14T17:57:28.421Z</time>
      </trkpt>
      <trkpt lat="47.461536" lon="7.829345">
        <ele>384.300947</ele>
        <time>2021-11-14T17:57:58.447Z</time>
      </trkpt>
      <trkpt lat="47.461525" lon="7.829524">
        <ele>384.508229</ele>
        <time>2021-11-14T17:58:01.515Z</time>
      </trkpt>
      <trkpt lat="47.461539" lon="7.829782">
        <ele>384.806722</ele>
        <time>2021-11-14T17:58:04.931Z</time>
      </trkpt>
      <trkpt lat="47.461548" lon="7.829918">
        <ele>384.964313</ele>
        <time>2021-11-14T17:58:06.886Z</time>
      </trkpt>
      <trkpt lat="47.461585" lon="7.830158">
        <ele>385.248196</ele>
        <time>2021-11-14T17:58:10.567Z</time>
      </trkpt>
      <trkpt lat="47.461787" lon="7.831158">
        <ele>386.074926</ele>
        <time>2021-11-14T17:58:24.460Z</time>
      </trkpt>
      <trkpt lat="47.461918" lon="7.831668">
        <ele>386.463382</ele>
        <time>2021-11-14T17:58:31.485Z</time>
      </trkpt>
      <trkpt lat="47.462048" lon="7.832204">
        <ele>386.868840</ele>
        <time>2021-11-14T17:58:38.522Z</time>
      </trkpt>
      <trkpt lat="47.462080" lon="7.832335">
        <ele>386.968017</ele>
        <time>2021-11-14T17:58:40.151Z</time>
      </trkpt>
      <trkpt lat="47.462179" lon="7.832744">
        <ele>387.277334</ele>
        <time>2021-11-14T17:58:45.351Z</time>
      </trkpt>
      <trkpt lat="47.462217" lon="7.832953">
        <ele>387.417048</ele>
        <time>2021-11-14T17:58:48.195Z</time>
      </trkpt>
      <trkpt lat="47.462285" lon="7.833721">
        <ele>387.855946</ele>
        <time>2021-11-14T17:58:57.702Z</time>
      </trkpt>
      <trkpt lat="47.462296" lon="7.833933">
        <ele>387.976428</ele>
        <time>2021-11-14T17:59:00.650Z</time>
      </trkpt>
      <trkpt lat="47.462317" lon="7.834216">
        <ele>388.137750</ele>
        <time>2021-11-14T17:59:04.160Z</time>
      </trkpt>
      <trkpt lat="47.462357" lon="7.834782">
        <ele>388.460217</ele>
        <time>2021-11-14T17:59:10.922Z</time>
      </trkpt>
      <trkpt lat="47.462375" lon="7.834910">
        <ele>388.534300</ele>
        <time>2021-11-14T17:59:12.706Z</time>
      </trkpt>
      <trkpt lat="47.462388" lon="7.834991">
        <ele>388.581473</ele>
        <time>2021-11-14T17:59:13.736Z</time>
      </trkpt>
      <trkpt lat="47.462586" lon="7.835900">
        <ele>389.224678</ele>
        <time>2021-11-14T17:59:24.884Z</time>
      </trkpt>
      <trkpt lat="47.462666" lon="7.836201">
        <ele>389.481536</ele>
        <time>2021-11-14T17:59:28.995Z</time>
      </trkpt>
      <trkpt lat="47.462700" lon="7.836337">
        <ele>389.596693</ele>
        <time>2021-11-14T17:59:30.868Z</time>
      </trkpt>
      <trkpt lat="47.462730" lon="7.836472">
        <ele>389.709551</ele>
        <time>2021-11-14T17:59:32.590Z</time>
      </trkpt>
      <trkpt lat="47.462748" lon="7.836556">
        <ele>389.779534</ele>
        <time>2021-11-14T17:59:33.478Z</time>
      </trkpt>
      <trkpt lat="47.462851" lon="7.837404">
        <ele>390.463783</ele>
        <time>2021-11-14T17:59:46.090Z</time>
      </trkpt>
      <trkpt lat="47.462856" lon="7.837506">
        <ele>390.545002</ele>
        <time>2021-11-14T17:59:47.982Z</time>
      </trkpt>
      <trkpt lat="47.462865" lon="7.837711">
        <ele>390.708152</ele>
        <time>2021-11-14T17:59:50.390Z</time>
      </trkpt>
      <trkpt lat="47.462869" lon="7.837866">
        <ele>390.831340</ele>
        <time>2021-11-14T17:59:52.346Z</time>
      </trkpt>
      <trkpt lat="47.462871" lon="7.837954">
        <ele>390.901267</ele>
        <time>2021-11-14T17:59:53.876Z</time>
      </trkpt>
      <trkpt lat="47.462873" lon="7.838016">
        <ele>390.950563</ele>
        <time>2021-11-14T17:59:54.917Z</time>
      </trkpt>
      <trkpt lat="47.462883" lon="7.838488">
        <ele>391.193954</ele>
        <time>2021-11-14T18:00:01.051Z</time>
      </trkpt>
      <trkpt lat="47.462936" lon="7.838934">
        <ele>391.416055</ele>
        <time>2021-11-14T18:00:06.393Z</time>
      </trkpt>
      <trkpt lat="47.462967" lon="7.839047">
        <ele>391.475867</ele>
        <time>2021-11-14T18:00:08.091Z</time>
      </trkpt>
      <trkpt lat="47.462982" lon="7.839106">
        <ele>391.506783</ele>
        <time>2021-11-14T18:00:09.030Z</time>
      </trkpt>
      <trkpt lat="47.463043" lon="7.839292">
        <ele>391.608176</ele>
        <time>2021-11-14T18:00:10.846Z</time>
      </trkpt>
      <trkpt lat="47.463133" lon="7.839561">
        <ele>391.755383</ele>
        <time>2021-11-14T18:00:14.752Z</time>
      </trkpt>
      <trkpt lat="47.463287" lon="7.840028">
        <ele>392.010224</ele>
        <time>2021-11-14T18:00:20.787Z</time>
      </trkpt>
      <trkpt lat="47.463588" lon="7.840904">
        <ele>392.169800</ele>
        <time>2021-11-14T18:00:32.082Z</time>
      </trkpt>
      <trkpt lat="47.463616" lon="7.840992">
        <ele>392.142835</ele>
        <time>2021-11-14T18:00:33.160Z</time>
      </trkpt>
      <trkpt lat="47.463685" lon="7.841203">
        <ele>392.077853</ele>
        <time>2021-11-14T18:00:35.103Z</time>
      </trkpt>
      <trkpt lat="47.463874" lon="7.841863">
        <ele>391.879137</ele>
        <time>2021-11-14T18:00:41.391Z</time>
      </trkpt>
      <trkpt lat="47.463922" lon="7.842123">
        <ele>391.804415</ele>
        <time>2021-11-14T18:00:43.375Z</time>
      </trkpt>
      <trkpt lat="47.463971" lon="7.842355">
        <ele>391.737030</ele>
        <time>2021-11-14T18:00:45.938Z</time>
      </trkpt>
      <trkpt lat="47.464053" lon="7.842690">
        <ele>391.638254</ele>
        <time>2021-11-14T18:00:48.739Z</time>
      </trkpt>
      <trkpt lat="47.464075" lon="7.842774">
        <ele>391.613280</ele>
        <time>2021-11-14T18:00:49.937Z</time>
      </trkpt>
      <trkpt lat="47.464165" lon="7.843130">
        <ele>391.584090</ele>
        <time>2021-11-14T18:00:53.062Z</time>
      </trkpt>
      <trkpt lat="47.464176" lon="7.843178">
        <ele>391.596329</ele>
        <time>2021-11-14T18:00:53.547Z</time>
      </trkpt>
      <trkpt lat="47.464234" lon="7.843434">
        <ele>391.661530</ele>
        <time>2021-11-14T18:00:56.611Z</time>
      </trkpt>
      <trkpt lat="47.464354" lon="7.843960">
        <ele>391.795592</ele>
        <time>2021-11-14T18:01:02.628Z</time>
      </trkpt>
      <trkpt lat="47.464386" lon="7.844088">
        <ele>391.828549</ele>
        <time>2021-11-14T18:01:03.970Z</time>
      </trkpt>
      <trkpt lat="47.464433" lon="7.844273">
        <ele>391.876275</ele>
        <time>2021-11-14T18:01:06.454Z</time>
      </trkpt>
      <trkpt lat="47.464585" lon="7.844988">
        <ele>392.057276</ele>
        <time>2021-11-14T18:01:14.967Z</time>
      </trkpt>
      <trkpt lat="47.464737" lon="7.846119">
        <ele>392.641302</ele>
        <time>2021-11-14T18:01:29.076Z</time>
      </trkpt>
      <trkpt lat="47.464771" lon="7.847028">
        <ele>393.325623</ele>
        <time>2021-11-14T18:01:41.186Z</time>
      </trkpt>
      <trkpt lat="47.464784" lon="7.847333">
        <ele>393.555341</ele>
        <time>2021-11-14T18:01:45.166Z</time>
      </trkpt>
      <trkpt lat="47.464820" lon="7.847644">
        <ele>393.792515</ele>
        <time>2021-11-14T18:01:49.437Z</time>
      </trkpt>
      <trkpt lat="47.464850" lon="7.847870">
        <ele>393.965638</ele>
        <time>2021-11-14T18:01:52.354Z</time>
      </trkpt>
      <trkpt lat="47.464909" lon="7.848219">
        <ele>394.244519</ele>
        <time>2021-11-14T18:01:57.420Z</time>
      </trkpt>
      <trkpt lat="47.464952" lon="7.848443">
        <ele>394.452442</ele>
        <time>2021-11-14T18:02:00.608Z</time>
      </trkpt>
      <trkpt lat="47.465152" lon="7.849351">
        <ele>395.305168</ele>
        <time>2021-11-14T18:02:13.867Z</time>
      </trkpt>
      <trkpt lat="47.465348" lon="7.849875">
        <ele>395.839903</ele>
        <time>2021-11-14T18:02:22.092Z</time>
      </trkpt>
      <trkpt lat="47.465558" lon="7.850405">
        <ele>396.388445</ele>
        <time>2021-11-14T18:02:30.393Z</time>
      </trkpt>
      <trkpt lat="47.465620" lon="7.850585">
        <ele>396.568577</ele>
        <time>2021-11-14T18:02:32.995Z</time>
      </trkpt>
      <trkpt lat="47.465714" lon="7.850917">
        <ele>396.852323</ele>
        <time>2021-11-14T18:02:37.636Z</time>
      </trkpt>
      <trkpt lat="47.465829" lon="7.851383">
        <ele>397.243387</ele>
        <time>2021-11-14T18:02:43.997Z</time>
      </trkpt>
      <trkpt lat="47.465804" lon="7.851399">
        <ele>397.275151</ele>
        <time>2021-11-14T18:02:44.553Z</time>
      </trkpt>
      <trkpt lat="47.465765" lon="7.851501">
        <ele>397.367528</ele>
        <time>2021-11-14T18:02:46.033Z</time>
      </trkpt>
      <trkpt lat="47.465770" lon="7.851542">
        <ele>397.400370</ele>
        <time>2021-11-14T18:02:46.583Z</time>
      </trkpt>
      <trkpt lat="47.465781" lon="7.851575">
        <ele>397.429375</ele>
        <time>2021-11-14T18:02:47.064Z</time>
      </trkpt>
      <trkpt lat="47.465821" lon="7.851619">
        <ele>397.487502</ele>
        <time>2021-11-14T18:02:47.972Z</time>
      </trkpt>
      <trkpt lat="47.465846" lon="7.851625">
        <ele>397.517035</ele>
        <time>2021-11-14T18:02:48.452Z</time>
      </trkpt>
      <trkpt lat="47.465871" lon="7.851620">
        <ele>397.546453</ele>
        <time>2021-11-14T18:02:48.904Z</time>
      </trkpt>
      <trkpt lat="47.465906" lon="7.851776">
        <ele>397.676024</ele>
        <time>2021-11-14T18:02:51.129Z</time>
      </trkpt>
      <trkpt lat="47.466256" lon="7.853287">
        <ele>399.022799</ele>
        <time>2021-11-14T18:03:12.284Z</time>
      </trkpt>
      <trkpt lat="47.466331" lon="7.853936">
        <ele>399.709672</ele>
        <time>2021-11-14T18:03:21.810Z</time>
      </trkpt>
      <trkpt lat="47.466338" lon="7.854554">
        <ele>400.354473</ele>
        <time>2021-11-14T18:03:30.377Z</time>
      </trkpt>
      <trkpt lat="47.466332" lon="7.854775">
        <ele>400.585211</ele>
        <time>2021-11-14T18:03:33.554Z</time>
      </trkpt>
      <trkpt lat="47.466324" lon="7.855062">
        <ele>400.884870</ele>
        <time>2021-11-14T18:03:37.818Z</time>
      </trkpt>
      <trkpt lat="47.466298" lon="7.855895">
        <ele>401.740986</ele>
        <time>2021-11-14T18:03:49.997Z</time>
      </trkpt>
      <trkpt lat="47.466295" lon="7.856234">
        <ele>402.079166</ele>
        <time>2021-11-14T18:03:55.231Z</time>
      </trkpt>
      <trkpt lat="47.466298" lon="7.856354">
        <ele>402.198947</ele>
        <time>2021-11-14T18:03:56.908Z</time>
      </trkpt>
      <trkpt lat="47.466271" lon="7.856363">
        <ele>402.239785</ele>
        <time>2021-11-14T18:03:57.510Z</time>
      </trkpt>
      <trkpt lat="47.466237" lon="7.856421">
        <ele>402.316362</ele>
        <time>2021-11-14T18:03:58.546Z</time>
      </trkpt>
      <trkpt lat="47.466235" lon="7.856461">
        <ele>402.356371</ele>
        <time>2021-11-14T18:03:59.063Z</time>
      </trkpt>
      <trkpt lat="47.466243" lon="7.856497">
        <ele>402.394171</ele>
        <time>2021-11-14T18:03:59.706Z</time>
      </trkpt>
      <trkpt lat="47.466284" lon="7.856540">
        <ele>402.468330</ele>
        <time>2021-11-14T18:04:00.859Z</time>
      </trkpt>
      <trkpt lat="47.466310" lon="7.856541">
        <ele>402.506707</ele>
        <time>2021-11-14T18:04:01.401Z</time>
      </trkpt>
      <trkpt lat="47.466322" lon="7.856655">
        <ele>402.621791</ele>
        <time>2021-11-14T18:04:03.176Z</time>
      </trkpt>
      <trkpt lat="47.466344" lon="7.856945">
        <ele>402.912880</ele>
        <time>2021-11-14T18:04:06.951Z</time>
      </trkpt>
      <trkpt lat="47.466347" lon="7.856973">
        <ele>402.941159</ele>
        <time>2021-11-14T18:04:07.619Z</time>
      </trkpt>
      <trkpt lat="47.466518" lon="7.858022">
        <ele>404.017518</ele>
        <time>2021-11-14T18:04:22.222Z</time>
      </trkpt>
      <trkpt lat="47.466576" lon="7.858236">
        <ele>404.194961</ele>
        <time>2021-11-14T18:04:25.144Z</time>
      </trkpt>
      <trkpt lat="47.466673" lon="7.858620">
        <ele>404.464257</ele>
        <time>2021-11-14T18:04:31.778Z</time>
      </trkpt>
      <trkpt lat="47.466824" lon="7.859137">
        <ele>404.834231</ele>
        <time>2021-11-14T18:04:41.137Z</time>
      </trkpt>
      <trkpt lat="47.466922" lon="7.859398">
        <ele>405.030360</ele>
        <time>2021-11-14T18:04:45.686Z</time>
      </trkpt>
      <trkpt lat="47.467047" lon="7.859682">
        <ele>405.252985</ele>
        <time>2021-11-14T18:04:51.281Z</time>
      </trkpt>
      <trkpt lat="47.467266" lon="7.860107">
        <ele>405.604038</ele>
        <time>2021-11-14T18:05:00.136Z</time>
      </trkpt>
      <trkpt lat="47.467944" lon="7.861300">
        <ele>406.802554</ele>
        <time>2021-11-14T18:05:24.854Z</time>
      </trkpt>
      <trkpt lat="47.468224" lon="7.861805">
        <ele>407.326898</ele>
        <time>2021-11-14T18:05:36.170Z</time>
      </trkpt>
      <trkpt lat="47.468543" lon="7.862357">
        <ele>407.909907</ele>
        <time>2021-11-14T18:05:48.858Z</time>
      </trkpt>
      <trkpt lat="47.468825" lon="7.862900">
        <ele>408.707360</ele>
        <time>2021-11-14T18:06:01.503Z</time>
      </trkpt>
      <trkpt lat="47.468859" lon="7.862978">
        <ele>408.820154</ele>
        <time>2021-11-14T18:06:03.303Z</time>
      </trkpt>
      <trkpt lat="47.468943" lon="7.863195">
        <ele>409.124059</ele>
        <time>2021-11-14T18:06:07.805Z</time>
      </trkpt>
      <trkpt lat="47.468986" lon="7.863323">
        <ele>409.297771</ele>
        <time>2021-11-14T18:06:10.473Z</time>
      </trkpt>
      <trkpt lat="47.469011" lon="7.863405">
        <ele>409.407094</ele>
        <time>2021-11-14T18:06:12.610Z</time>
      </trkpt>
      <trkpt lat="47.469305" lon="7.864692">
        <ele>411.058107</ele>
        <time>2021-11-14T18:06:37.763Z</time>
      </trkpt>
      <trkpt lat="47.469629" lon="7.865918">
        <ele>412.200273</ele>
        <time>2021-11-14T18:07:01.778Z</time>
      </trkpt>
      <trkpt lat="47.469710" lon="7.866208">
        <ele>412.460986</ele>
        <time>2021-11-14T18:07:06.758Z</time>
      </trkpt>
      <trkpt lat="47.469764" lon="7.866452">
        <ele>412.674309</ele>
        <time>2021-11-14T18:07:11.059Z</time>
      </trkpt>
      <trkpt lat="47.469808" lon="7.866690">
        <ele>412.879320</ele>
        <time>2021-11-14T18:07:14.914Z</time>
      </trkpt>
      <trkpt lat="47.469915" lon="7.867494">
        <ele>413.501638</ele>
        <time>2021-11-14T18:07:28.078Z</time>
      </trkpt>
      <trkpt lat="47.470127" lon="7.868484">
        <ele>413.999005</ele>
        <time>2021-11-14T18:07:43.474Z</time>
      </trkpt>
      <trkpt lat="47.470234" lon="7.868884">
        <ele>414.205032</ele>
        <time>2021-11-14T18:07:49.900Z</time>
      </trkpt>
      <trkpt lat="47.470309" lon="7.869201">
        <ele>414.365884</ele>
        <time>2021-11-14T18:07:55.270Z</time>
      </trkpt>
      <trkpt lat="47.470378" lon="7.869626">
        <ele>414.575218</ele>
        <time>2021-11-14T18:08:02.037Z</time>
      </trkpt>
      <trkpt lat="47.470397" lon="7.870147">
        <ele>414.978576</ele>
        <time>2021-11-14T18:08:10.771Z</time>
      </trkpt>
      <trkpt lat="47.470379" lon="7.870338">
        <ele>415.181020</ele>
        <time>2021-11-14T18:08:14.318Z</time>
      </trkpt>
      <trkpt lat="47.470350" lon="7.870570">
        <ele>415.428694</ele>
        <time>2021-11-14T18:08:17.236Z</time>
      </trkpt>
      <trkpt lat="47.470333" lon="7.870669">
        <ele>415.535921</ele>
        <time>2021-11-14T18:08:18.706Z</time>
      </trkpt>
      <trkpt lat="47.470316" lon="7.870753">
        <ele>415.627968</ele>
        <time>2021-11-14T18:08:20.216Z</time>
      </trkpt>
      <trkpt lat="47.470245" lon="7.871088">
        <ele>415.996520</ele>
        <time>2021-11-14T18:08:24.730Z</time>
      </trkpt>
      <trkpt lat="47.470217" lon="7.871214">
        <ele>416.135754</ele>
        <time>2021-11-14T18:08:26.760Z</time>
      </trkpt>
      <trkpt lat="47.470156" lon="7.871491">
        <ele>416.441581</ele>
        <time>2021-11-14T18:08:31.223Z</time>
      </trkpt>
      <trkpt lat="47.469969" lon="7.872276">
        <ele>417.315322</ele>
        <time>2021-11-14T18:08:43.579Z</time>
      </trkpt>
      <trkpt lat="47.469710" lon="7.873249">
        <ele>418.620865</ele>
        <time>2021-11-14T18:08:58.827Z</time>
      </trkpt>
      <trkpt lat="47.469682" lon="7.873326">
        <ele>418.733302</ele>
        <time>2021-11-14T18:09:00.604Z</time>
      </trkpt>
      <trkpt lat="47.469626" lon="7.873477">
        <ele>418.954785</ele>
        <time>2021-11-14T18:09:03.042Z</time>
      </trkpt>
      <trkpt lat="47.469489" lon="7.873809">
        <ele>419.454985</ele>
        <time>2021-11-14T18:09:09.071Z</time>
      </trkpt>
      <trkpt lat="47.469422" lon="7.873965">
        <ele>419.692661</ele>
        <time>2021-11-14T18:09:11.673Z</time>
      </trkpt>
      <trkpt lat="47.469224" lon="7.874328">
        <ele>420.292482</ele>
        <time>2021-11-14T18:09:18.950Z</time>
      </trkpt>
      <trkpt lat="47.469173" lon="7.874432">
        <ele>420.457708</ele>
        <time>2021-11-14T18:09:20.634Z</time>
      </trkpt>
      <trkpt lat="47.469136" lon="7.874516">
        <ele>420.586638</ele>
        <time>2021-11-14T18:09:22.128Z</time>
      </trkpt>
      <trkpt lat="47.469097" lon="7.874606">
        <ele>420.724113</ele>
        <time>2021-11-14T18:09:23.973Z</time>
      </trkpt>
      <trkpt lat="47.469068" lon="7.874689">
        <ele>420.844263</ele>
        <time>2021-11-14T18:09:25.819Z</time>
      </trkpt>
      <trkpt lat="47.469050" lon="7.874738">
        <ele>420.920961</ele>
        <time>2021-11-14T18:09:26.564Z</time>
      </trkpt>
      <trkpt lat="47.468989" lon="7.874967">
        <ele>421.570059</ele>
        <time>2021-11-14T18:09:30.164Z</time>
      </trkpt>
      <trkpt lat="47.468925" lon="7.875205">
        <ele>422.245535</ele>
        <time>2021-11-14T18:09:34.647Z</time>
      </trkpt>
      <trkpt lat="47.468806" lon="7.875696">
        <ele>423.621077</ele>
        <time>2021-11-14T18:09:42.486Z</time>
      </trkpt>
      <trkpt lat="47.468698" lon="7.876140">
        <ele>424.865466</ele>
        <time>2021-11-14T18:09:50.941Z</time>
      </trkpt>
      <trkpt lat="47.468639" lon="7.876439">
        <ele>425.686880</ele>
        <time>2021-11-14T18:09:57.054Z</time>
      </trkpt>
      <trkpt lat="47.468557" lon="7.876917">
        <ele>426.987396</ele>
        <time>2021-11-14T18:10:07.963Z</time>
      </trkpt>
      <trkpt lat="47.468377" lon="7.877826">
        <ele>431.009056</ele>
        <time>2021-11-14T18:10:37.668Z</time>
      </trkpt>
      <trkpt lat="47.468327" lon="7.877957">
        <ele>431.793973</ele>
        <time>2021-11-14T18:10:43.058Z</time>
      </trkpt>
      <trkpt lat="47.468308" lon="7.877998">
        <ele>432.053331</ele>
        <time>2021-11-14T18:10:46.233Z</time>
      </trkpt>
      <trkpt lat="47.468268" lon="7.878083">
        <ele>432.593699</ele>
        <time>2021-11-14T18:10:49.009Z</time>
      </trkpt>
      <trkpt lat="47.468104" lon="7.878354">
        <ele>434.491460</ele>
        <time>2021-11-14T18:10:59.612Z</time>
      </trkpt>
      <trkpt lat="47.468067" lon="7.878427">
        <ele>434.967510</ele>
        <time>2021-11-14T18:11:04.661Z</time>
      </trkpt>
      <trkpt lat="47.467908" lon="7.878819">
        <ele>437.352717</ele>
        <time>2021-11-14T18:11:17.837Z</time>
      </trkpt>
      <trkpt lat="47.467814" lon="7.879126">
        <ele>439.111159</ele>
        <time>2021-11-14T18:11:28.218Z</time>
      </trkpt>
      <trkpt lat="47.467758" lon="7.879308">
        <ele>440.154498</ele>
        <time>2021-11-14T18:11:35.334Z</time>
      </trkpt>
      <trkpt lat="47.467695" lon="7.879712">
        <ele>441.998202</ele>
        <time>2021-11-14T18:11:48.130Z</time>
      </trkpt>
      <trkpt lat="47.467712" lon="7.880819">
        <ele>444.136687</ele>
        <time>2021-11-14T18:12:17.277Z</time>
      </trkpt>
      <trkpt lat="47.467755" lon="7.881902">
        <ele>446.231872</ele>
        <time>2021-11-14T18:12:31.620Z</time>
      </trkpt>
      <trkpt lat="47.467789" lon="7.882188">
        <ele>446.792695</ele>
        <time>2021-11-14T18:12:33.871Z</time>
      </trkpt>
      <trkpt lat="47.467832" lon="7.882502">
        <ele>446.458422</ele>
        <time>2021-11-14T18:12:36.122Z</time>
      </trkpt>
      <trkpt lat="47.468085" lon="7.883534">
        <ele>444.209664</ele>
        <time>2021-11-14T18:12:43.502Z</time>
      </trkpt>
      <trkpt lat="47.468175" lon="7.884477">
        <ele>442.258793</ele>
        <time>2021-11-14T18:12:49.834Z</time>
      </trkpt>
      <trkpt lat="47.468170" lon="7.884753">
        <ele>441.693211</ele>
        <time>2021-11-14T18:12:51.662Z</time>
      </trkpt>
      <trkpt lat="47.468165" lon="7.884950">
        <ele>441.403673</ele>
        <time>2021-11-14T18:12:53.149Z</time>
      </trkpt>
      <trkpt lat="47.468160" lon="7.885131">
        <ele>441.235354</ele>
        <time>2021-11-14T18:12:54.417Z</time>
      </trkpt>
      <trkpt lat="47.468160" lon="7.885412">
        <ele>440.974259</ele>
        <time>2021-11-14T18:12:56.442Z</time>
      </trkpt>
      <trkpt lat="47.468174" lon="7.885724">
        <ele>440.683722</ele>
        <time>2021-11-14T18:12:58.712Z</time>
      </trkpt>
      <trkpt lat="47.468250" lon="7.886308">
        <ele>440.131128</ele>
        <time>2021-11-14T18:13:03.194Z</time>
      </trkpt>
      <trkpt lat="47.468546" lon="7.888014">
        <ele>439.269444</ele>
        <time>2021-11-14T18:13:20.274Z</time>
      </trkpt>
      <trkpt lat="47.468718" lon="7.888938">
        <ele>439.676634</ele>
        <time>2021-11-14T18:13:31.620Z</time>
      </trkpt>
      <trkpt lat="47.468951" lon="7.890216">
        <ele>440.293924</ele>
        <time>2021-11-14T18:13:48.601Z</time>
      </trkpt>
      <trkpt lat="47.469288" lon="7.891996">
        <ele>441.603644</ele>
        <time>2021-11-14T18:14:12.814Z</time>
      </trkpt>
      <trkpt lat="47.469496" lon="7.893085">
        <ele>442.280042</ele>
        <time>2021-11-14T18:14:26.879Z</time>
      </trkpt>
      <trkpt lat="47.469658" lon="7.894567">
        <ele>442.976694</ele>
        <time>2021-11-14T18:14:44.342Z</time>
      </trkpt>
      <trkpt lat="47.469691" lon="7.894970">
        <ele>443.165072</ele>
        <time>2021-11-14T18:14:48.906Z</time>
      </trkpt>
      <trkpt lat="47.469714" lon="7.895204">
        <ele>443.274801</ele>
        <time>2021-11-14T18:14:51.555Z</time>
      </trkpt>
      <trkpt lat="47.469728" lon="7.895384">
        <ele>443.492138</ele>
        <time>2021-11-14T18:14:53.558Z</time>
      </trkpt>
      <trkpt lat="47.469734" lon="7.895575">
        <ele>443.724830</ele>
        <time>2021-11-14T18:14:55.959Z</time>
      </trkpt>
      <trkpt lat="47.469747" lon="7.895922">
        <ele>444.147765</ele>
        <time>2021-11-14T18:15:00.022Z</time>
      </trkpt>
      <trkpt lat="47.469738" lon="7.896220">
        <ele>444.510782</ele>
        <time>2021-11-14T18:15:04.503Z</time>
      </trkpt>
      <trkpt lat="47.469692" lon="7.896826">
        <ele>445.252898</ele>
        <time>2021-11-14T18:15:13.648Z</time>
      </trkpt>
      <trkpt lat="47.469678" lon="7.896938">
        <ele>445.391509</ele>
        <time>2021-11-14T18:15:15.212Z</time>
      </trkpt>
      <trkpt lat="47.469652" lon="7.897139">
        <ele>445.640558</ele>
        <time>2021-11-14T18:15:18.626Z</time>
      </trkpt>
      <trkpt lat="47.469598" lon="7.897405">
        <ele>445.978554</ele>
        <time>2021-11-14T18:15:23.104Z</time>
      </trkpt>
      <trkpt lat="47.469534" lon="7.897638">
        <ele>446.284623</ele>
        <time>2021-11-14T18:15:27.373Z</time>
      </trkpt>
      <trkpt lat="47.469806" lon="7.897795">
        <ele>447.246345</ele>
        <time>2021-11-14T18:15:34.619Z</time>
      </trkpt>
      <trkpt lat="47.469999" lon="7.897879">
        <ele>448.143179</ele>
        <time>2021-11-14T18:15:40.292Z</time>
      </trkpt>
      <trkpt lat="47.471002" lon="7.898222">
        <ele>452.732343</ele>
        <time>2021-11-14T18:16:15.423Z</time>
      </trkpt>
      <trkpt lat="47.471597" lon="7.898344">
        <ele>455.562084</ele>
        <time>2021-11-14T18:16:37.531Z</time>
      </trkpt>
      <trkpt lat="47.471825" lon="7.898370">
        <ele>456.758086</ele>
        <time>2021-11-14T18:16:45.489Z</time>
      </trkpt>
      <trkpt lat="47.471910" lon="7.898392">
        <ele>457.209398</ele>
        <time>2021-11-14T18:16:48.871Z</time>
      </trkpt>
      <trkpt lat="47.473317" lon="7.898945">
        <ele>464.748293</ele>
        <time>2021-11-14T18:17:41.513Z</time>
      </trkpt>
      <trkpt lat="47.473931" lon="7.899567">
        <ele>468.309250</ele>
        <time>2021-11-14T18:18:04.786Z</time>
      </trkpt>
      <trkpt lat="47.474087" lon="7.899774">
        <ele>469.312022</ele>
        <time>2021-11-14T18:18:12.307Z</time>
      </trkpt>
      <trkpt lat="47.474186" lon="7.899915">
        <ele>469.969612</ele>
        <time>2021-11-14T18:18:16.964Z</time>
      </trkpt>
      <trkpt lat="47.474336" lon="7.900125">
        <ele>470.957839</ele>
        <time>2021-11-14T18:18:24.243Z</time>
      </trkpt>
      <trkpt lat="47.474617" lon="7.900560">
        <ele>472.963284</ele>
        <time>2021-11-14T18:18:38.351Z</time>
      </trkpt>
      <trkpt lat="47.474888" lon="7.900841">
        <ele>474.809654</ele>
        <time>2021-11-14T18:18:49.678Z</time>
      </trkpt>
      <trkpt lat="47.475163" lon="7.901034">
        <ele>476.507846</ele>
        <time>2021-11-14T18:19:00.655Z</time>
      </trkpt>
      <trkpt lat="47.475300" lon="7.901112">
        <ele>477.326857</ele>
        <time>2021-11-14T18:19:06.667Z</time>
      </trkpt>
      <trkpt lat="47.476364" lon="7.901870">
        <ele>484.091378</ele>
        <time>2021-11-14T18:19:51.332Z</time>
      </trkpt>
      <trkpt lat="47.476536" lon="7.901977">
        <ele>485.269634</ele>
        <time>2021-11-14T18:19:58.992Z</time>
      </trkpt>
      <trkpt lat="47.476982" lon="7.902234">
        <ele>488.292112</ele>
        <time>2021-11-14T18:20:17.966Z</time>
      </trkpt>
      <trkpt lat="47.478118" lon="7.903075">
        <ele>496.055162</ele>
        <time>2021-11-14T18:21:10.611Z</time>
      </trkpt>
      <trkpt lat="47.478182" lon="7.903109">
        <ele>496.437802</ele>
        <time>2021-11-14T18:21:13.949Z</time>
      </trkpt>
      <trkpt lat="47.478367" lon="7.903166">
        <ele>497.501131</ele>
        <time>2021-11-14T18:21:21.020Z</time>
      </trkpt>
      <trkpt lat="47.480980" lon="7.903461">
        <ele>511.868722</ele>
        <time>2021-11-14T18:22:53.495Z</time>
      </trkpt>
      <trkpt lat="47.481478" lon="7.903693">
        <ele>514.943971</ele>
        <time>2021-11-14T18:23:12.959Z</time>
      </trkpt>
      <trkpt lat="47.481588" lon="7.903776">
        <ele>515.795981</ele>
        <time>2021-11-14T18:23:17.861Z</time>
      </trkpt>
      <trkpt lat="47.481709" lon="7.903892">
        <ele>516.790825</ele>
        <time>2021-11-14T18:23:24.200Z</time>
      </trkpt>
      <trkpt lat="47.481988" lon="7.904174">
        <ele>519.122251</ele>
        <time>2021-11-14T18:23:39.728Z</time>
      </trkpt>
      <trkpt lat="47.482157" lon="7.904346">
        <ele>520.537594</ele>
        <time>2021-11-14T18:23:48.299Z</time>
      </trkpt>
      <trkpt lat="47.482231" lon="7.904397">
        <ele>521.100876</ele>
        <time>2021-11-14T18:23:52.529Z</time>
      </trkpt>
      <trkpt lat="47.482433" lon="7.904538">
        <ele>522.642014</ele>
        <time>2021-11-14T18:24:02.245Z</time>
      </trkpt>
      <trkpt lat="47.483101" lon="7.904680">
        <ele>526.613852</ele>
        <time>2021-11-14T18:24:33.368Z</time>
      </trkpt>
      <trkpt lat="47.483329" lon="7.904705">
        <ele>527.270685</ele>
        <time>2021-11-14T18:24:41.859Z</time>
      </trkpt>
      <trkpt lat="47.483385" lon="7.904708">
        <ele>527.431677</ele>
        <time>2021-11-14T18:24:44.206Z</time>
      </trkpt>
      <trkpt lat="47.484005" lon="7.904793">
        <ele>529.220548</ele>
        <time>2021-11-14T18:25:00.477Z</time>
      </trkpt>
      <trkpt lat="47.484064" lon="7.904808">
        <ele>529.392537</ele>
        <time>2021-11-14T18:25:01.573Z</time>
      </trkpt>
      <trkpt lat="47.484124" lon="7.904824">
        <ele>529.567692</ele>
        <time>2021-11-14T18:25:02.965Z</time>
      </trkpt>
      <trkpt lat="47.484248" lon="7.904856">
        <ele>529.929318</ele>
        <time>2021-11-14T18:25:05.524Z</time>
      </trkpt>
      <trkpt lat="47.484481" lon="7.904947">
        <ele>530.621644</ele>
        <time>2021-11-14T18:25:09.894Z</time>
      </trkpt>
      <trkpt lat="47.484713" lon="7.905133">
        <ele>531.170611</ele>
        <time>2021-11-14T18:25:14.515Z</time>
      </trkpt>
      <trkpt lat="47.484936" lon="7.905289">
        <ele>530.174857</ele>
        <time>2021-11-14T18:25:17.227Z</time>
      </trkpt>
      <trkpt lat="47.485049" lon="7.905336">
        <ele>529.701011</ele>
        <time>2021-11-14T18:25:18.533Z</time>
      </trkpt>
      <trkpt lat="47.485073" lon="7.905345">
        <ele>529.601063</ele>
        <time>2021-11-14T18:25:18.743Z</time>
      </trkpt>
      <trkpt lat="47.485331" lon="7.905337">
        <ele>528.559316</ele>
        <time>2021-11-14T18:25:21.430Z</time>
      </trkpt>
      <trkpt lat="47.485593" lon="7.905145">
        <ele>527.379060</ele>
        <time>2021-11-14T18:25:24.337Z</time>
      </trkpt>
      <trkpt lat="47.486049" lon="7.904262">
        <ele>524.347368</ele>
        <time>2021-11-14T18:25:31.193Z</time>
      </trkpt>
      <trkpt lat="47.486247" lon="7.904043">
        <ele>523.012199</ele>
        <time>2021-11-14T18:25:33.384Z</time>
      </trkpt>
      <trkpt lat="47.486480" lon="7.904016">
        <ele>521.602414</ele>
        <time>2021-11-14T18:25:35.551Z</time>
      </trkpt>
      <trkpt lat="47.486688" lon="7.904238">
        <ele>520.055441</ele>
        <time>2021-11-14T18:25:37.964Z</time>
      </trkpt>
      <trkpt lat="47.486721" lon="7.904326">
        <ele>519.645199</ele>
        <time>2021-11-14T18:25:38.567Z</time>
      </trkpt>
      <trkpt lat="47.486755" lon="7.904487">
        <ele>518.957620</ele>
        <time>2021-11-14T18:25:39.585Z</time>
      </trkpt>
      <trkpt lat="47.486724" lon="7.905485">
        <ele>514.885212</ele>
        <time>2021-11-14T18:25:45.749Z</time>
      </trkpt>
      <trkpt lat="47.486769" lon="7.905976">
        <ele>512.991067</ele>
        <time>2021-11-14T18:25:48.836Z</time>
      </trkpt>
      <trkpt lat="47.486969" lon="7.906583">
        <ele>511.329959</ele>
        <time>2021-11-14T18:25:53.127Z</time>
      </trkpt>
      <trkpt lat="47.487197" lon="7.906946">
        <ele>510.110930</ele>
        <time>2021-11-14T18:25:56.678Z</time>
      </trkpt>
      <trkpt lat="47.487378" lon="7.907191">
        <ele>509.218042</ele>
        <time>2021-11-14T18:25:59.257Z</time>
      </trkpt>
      <trkpt lat="47.487587" lon="7.907459">
        <ele>508.211404</ele>
        <time>2021-11-14T18:26:02.127Z</time>
      </trkpt>
      <trkpt lat="47.487763" lon="7.907711">
        <ele>507.319978</ele>
        <time>2021-11-14T18:26:04.646Z</time>
      </trkpt>
      <trkpt lat="47.488080" lon="7.908344">
        <ele>505.444297</ele>
        <time>2021-11-14T18:26:10.004Z</time>
      </trkpt>
      <trkpt lat="47.488185" lon="7.908663">
        <ele>504.614894</ele>
        <time>2021-11-14T18:26:12.535Z</time>
      </trkpt>
      <trkpt lat="47.488241" lon="7.908835">
        <ele>504.168620</ele>
        <time>2021-11-14T18:26:13.793Z</time>
      </trkpt>
      <trkpt lat="47.488366" lon="7.909318">
        <ele>502.959665</ele>
        <time>2021-11-14T18:26:17.397Z</time>
      </trkpt>
      <trkpt lat="47.488699" lon="7.910498">
        <ele>499.911203</ele>
        <time>2021-11-14T18:26:25.918Z</time>
      </trkpt>
      <trkpt lat="47.488908" lon="7.911009">
        <ele>498.327690</ele>
        <time>2021-11-14T18:26:29.754Z</time>
      </trkpt>
      <trkpt lat="47.489040" lon="7.911300">
        <ele>497.398534</ele>
        <time>2021-11-14T18:26:31.966Z</time>
      </trkpt>
      <trkpt lat="47.489216" lon="7.911685">
        <ele>496.166258</ele>
        <time>2021-11-14T18:26:35.055Z</time>
      </trkpt>
      <trkpt lat="47.489607" lon="7.912646">
        <ele>493.253653</ele>
        <time>2021-11-14T18:26:42.568Z</time>
      </trkpt>
      <trkpt lat="47.489843" lon="7.913398">
        <ele>491.873267</ele>
        <time>2021-11-14T18:26:48.440Z</time>
      </trkpt>
      <trkpt lat="47.489922" lon="7.913738">
        <ele>491.274698</ele>
        <time>2021-11-14T18:26:51.150Z</time>
      </trkpt>
      <trkpt lat="47.489951" lon="7.913893">
        <ele>491.006941</ele>
        <time>2021-11-14T18:26:52.344Z</time>
      </trkpt>
      <trkpt lat="47.489987" lon="7.914083">
        <ele>490.678425</ele>
        <time>2021-11-14T18:26:53.815Z</time>
      </trkpt>
      <trkpt lat="47.490283" lon="7.915612">
        <ele>487.926038</ele>
        <time>2021-11-14T18:27:05.359Z</time>
      </trkpt>
      <trkpt lat="47.490429" lon="7.916164">
        <ele>486.823971</ele>
        <time>2021-11-14T18:27:09.606Z</time>
      </trkpt>
      <trkpt lat="47.490607" lon="7.916690">
        <ele>485.730282</ele>
        <time>2021-11-14T18:27:13.815Z</time>
      </trkpt>
      <trkpt lat="47.490822" lon="7.917158">
        <ele>484.678162</ele>
        <time>2021-11-14T18:27:17.731Z</time>
      </trkpt>
      <trkpt lat="47.491324" lon="7.917985">
        <ele>481.867582</ele>
        <time>2021-11-14T18:27:25.182Z</time>
      </trkpt>
      <trkpt lat="47.492227" lon="7.918989">
        <ele>477.067244</ele>
        <time>2021-11-14T18:27:36.033Z</time>
      </trkpt>
      <trkpt lat="47.492584" lon="7.919482">
        <ele>474.874813</ele>
        <time>2021-11-14T18:27:40.639Z</time>
      </trkpt>
      <trkpt lat="47.492813" lon="7.919900">
        <ele>473.194309</ele>
        <time>2021-11-14T18:27:44.065Z</time>
      </trkpt>
      <trkpt lat="47.493132" lon="7.920716">
        <ele>470.250316</ele>
        <time>2021-11-14T18:27:50.121Z</time>
      </trkpt>
      <trkpt lat="47.493236" lon="7.921091">
        <ele>468.984457</ele>
        <time>2021-11-14T18:27:52.746Z</time>
      </trkpt>
      <trkpt lat="47.493307" lon="7.921373">
        <ele>468.044676</ele>
        <time>2021-11-14T18:27:54.721Z</time>
      </trkpt>
      <trkpt lat="47.493397" lon="7.921760">
        <ele>467.048565</ele>
        <time>2021-11-14T18:27:57.427Z</time>
      </trkpt>
      <trkpt lat="47.493708" lon="7.923049">
        <ele>463.736468</ele>
        <time>2021-11-14T18:28:06.616Z</time>
      </trkpt>
      <trkpt lat="47.494034" lon="7.924101">
        <ele>460.939499</ele>
        <time>2021-11-14T18:28:14.556Z</time>
      </trkpt>
      <trkpt lat="47.494438" lon="7.925289">
        <ele>457.739592</ele>
        <time>2021-11-14T18:28:23.634Z</time>
      </trkpt>
      <trkpt lat="47.494515" lon="7.925509">
        <ele>457.143480</ele>
        <time>2021-11-14T18:28:25.245Z</time>
      </trkpt>
      <trkpt lat="47.494945" lon="7.926765">
        <ele>453.717636</ele>
        <time>2021-11-14T18:28:34.625Z</time>
      </trkpt>
      <trkpt lat="47.495031" lon="7.927006">
        <ele>453.044234</ele>
        <time>2021-11-14T18:28:36.345Z</time>
      </trkpt>
      <trkpt lat="47.495268" lon="7.927740">
        <ele>451.034246</ele>
        <time>2021-11-14T18:28:41.717Z</time>
      </trkpt>
      <trkpt lat="47.495455" lon="7.928595">
        <ele>448.813828</ele>
        <time>2021-11-14T18:28:47.850Z</time>
      </trkpt>
      <trkpt lat="47.495530" lon="7.929063">
        <ele>448.060414</ele>
        <time>2021-11-14T18:28:51.158Z</time>
      </trkpt>
      <trkpt lat="47.495562" lon="7.929221">
        <ele>447.835613</ele>
        <time>2021-11-14T18:28:52.403Z</time>
      </trkpt>
      <trkpt lat="47.495622" lon="7.929400">
        <ele>447.563287</ele>
        <time>2021-11-14T18:28:53.910Z</time>
      </trkpt>
      <trkpt lat="47.495801" lon="7.929891">
        <ele>446.802920</ele>
        <time>2021-11-14T18:28:58.049Z</time>
      </trkpt>
      <trkpt lat="47.495985" lon="7.930428">
        <ele>445.982327</ele>
        <time>2021-11-14T18:29:02.442Z</time>
      </trkpt>
      <trkpt lat="47.496051" lon="7.930607">
        <ele>445.704412</ele>
        <time>2021-11-14T18:29:04.033Z</time>
      </trkpt>
      <trkpt lat="47.496117" lon="7.930763">
        <ele>445.453562</ele>
        <time>2021-11-14T18:29:05.419Z</time>
      </trkpt>
      <trkpt lat="47.496162" lon="7.930842">
        <ele>445.312738</ele>
        <time>2021-11-14T18:29:06.290Z</time>
      </trkpt>
      <trkpt lat="47.496205" lon="7.930904">
        <ele>445.191647</ele>
        <time>2021-11-14T18:29:06.915Z</time>
      </trkpt>
      <trkpt lat="47.496424" lon="7.931075">
        <ele>444.752754</ele>
        <time>2021-11-14T18:29:10.273Z</time>
      </trkpt>
      <trkpt lat="47.496998" lon="7.931330">
        <ele>443.809918</ele>
        <time>2021-11-14T18:29:17.848Z</time>
      </trkpt>
      <trkpt lat="47.497104" lon="7.931414">
        <ele>443.620758</ele>
        <time>2021-11-14T18:29:19.263Z</time>
      </trkpt>
      <trkpt lat="47.497221" lon="7.931528">
        <ele>443.400386</ele>
        <time>2021-11-14T18:29:20.916Z</time>
      </trkpt>
      <trkpt lat="47.497430" lon="7.931757">
        <ele>442.991289</ele>
        <time>2021-11-14T18:29:23.759Z</time>
      </trkpt>
      <trkpt lat="47.497676" lon="7.932013">
        <ele>442.518190</ele>
        <time>2021-11-14T18:29:26.920Z</time>
      </trkpt>
      <trkpt lat="47.497907" lon="7.932254">
        <ele>442.070730</ele>
        <time>2021-11-14T18:29:30.014Z</time>
      </trkpt>
      <trkpt lat="47.498068" lon="7.932426">
        <ele>441.744539</ele>
        <time>2021-11-14T18:29:32.152Z</time>
      </trkpt>
      <trkpt lat="47.498138" lon="7.932522">
        <ele>441.587768</ele>
        <time>2021-11-14T18:29:33.154Z</time>
      </trkpt>
      <trkpt lat="47.498196" lon="7.932613">
        <ele>441.448915</ele>
        <time>2021-11-14T18:29:34.063Z</time>
      </trkpt>
      <trkpt lat="47.498391" lon="7.932972">
        <ele>440.937653</ele>
        <time>2021-11-14T18:29:37.571Z</time>
      </trkpt>
      <trkpt lat="47.498431" lon="7.932995">
        <ele>440.867156</ele>
        <time>2021-11-14T18:29:38.061Z</time>
      </trkpt>
      <trkpt lat="47.498481" lon="7.933011">
        <ele>440.783118</ele>
        <time>2021-11-14T18:29:38.613Z</time>
      </trkpt>
      <trkpt lat="47.498925" lon="7.932781">
        <ele>440.010330</ele>
        <time>2021-11-14T18:29:44.211Z</time>
      </trkpt>
      <trkpt lat="47.498997" lon="7.932758">
        <ele>439.889325</ele>
        <time>2021-11-14T18:29:45.006Z</time>
      </trkpt>
      <trkpt lat="47.499088" lon="7.932741">
        <ele>439.738643</ele>
        <time>2021-11-14T18:29:46.202Z</time>
      </trkpt>
      <trkpt lat="47.499354" lon="7.932769">
        <ele>439.300552</ele>
        <time>2021-11-14T18:29:49.336Z</time>
      </trkpt>
      <trkpt lat="47.499421" lon="7.932805">
        <ele>439.183456</ele>
        <time>2021-11-14T18:29:50.203Z</time>
      </trkpt>
      <trkpt lat="47.499538" lon="7.932868">
        <ele>439.097135</ele>
        <time>2021-11-14T18:29:51.608Z</time>
      </trkpt>
      <trkpt lat="47.499822" lon="7.933272">
        <ele>438.825080</ele>
        <time>2021-11-14T18:29:56.157Z</time>
      </trkpt>
      <trkpt lat="47.499993" lon="7.933864">
        <ele>438.524653</ele>
        <time>2021-11-14T18:30:01.635Z</time>
      </trkpt>
      <trkpt lat="47.500034" lon="7.933965">
        <ele>438.469672</ele>
        <time>2021-11-14T18:30:02.523Z</time>
      </trkpt>
      <trkpt lat="47.500007" lon="7.933994">
        <ele>438.446631</ele>
        <time>2021-11-14T18:30:03.010Z</time>
      </trkpt>
      <trkpt lat="47.499971" lon="7.934127">
        <ele>438.379775</ele>
        <time>2021-11-14T18:30:04.730Z</time>
      </trkpt>
      <trkpt lat="47.499976" lon="7.934175">
        <ele>438.357113</ele>
        <time>2021-11-14T18:30:05.413Z</time>
      </trkpt>
      <trkpt lat="47.499991" lon="7.934221">
        <ele>438.333279</ele>
        <time>2021-11-14T18:30:05.809Z</time>
      </trkpt>
      <trkpt lat="47.500077" lon="7.934300">
        <ele>438.263372</ele>
        <time>2021-11-14T18:30:06.994Z</time>
      </trkpt>
      <trkpt lat="47.500111" lon="7.934299">
        <ele>438.239884</ele>
        <time>2021-11-14T18:30:07.536Z</time>
      </trkpt>
      <trkpt lat="47.500150" lon="7.934279">
        <ele>438.211376</ele>
        <time>2021-11-14T18:30:08.083Z</time>
      </trkpt>
      <trkpt lat="47.500213" lon="7.934131">
        <ele>438.129752</ele>
        <time>2021-11-14T18:30:10.425Z</time>
      </trkpt>
      <trkpt lat="47.500208" lon="7.934071">
        <ele>438.101543</ele>
        <time>2021-11-14T18:30:11.194Z</time>
      </trkpt>
      <trkpt lat="47.500275" lon="7.934029">
        <ele>438.051289</ele>
        <time>2021-11-14T18:30:12.055Z</time>
      </trkpt>
      <trkpt lat="47.500352" lon="7.933976">
        <ele>437.992638</ele>
        <time>2021-11-14T18:30:13.265Z</time>
      </trkpt>
      <trkpt lat="47.500386" lon="7.933937">
        <ele>437.962929</ele>
        <time>2021-11-14T18:30:13.911Z</time>
      </trkpt>
      <trkpt lat="47.500435" lon="7.933872">
        <ele>437.920941</ele>
        <time>2021-11-14T18:30:15.025Z</time>
      </trkpt>
      <trkpt lat="47.500843" lon="7.933102">
        <ele>437.532617</ele>
        <time>2021-11-14T18:30:24.236Z</time>
      </trkpt>
      <trkpt lat="47.500990" lon="7.932950">
        <ele>437.427292</ele>
        <time>2021-11-14T18:30:26.847Z</time>
      </trkpt>
      <trkpt lat="47.501075" lon="7.932885">
        <ele>437.371095</ele>
        <time>2021-11-14T18:30:27.855Z</time>
      </trkpt>
      <trkpt lat="47.501463" lon="7.932668">
        <ele>437.127468</ele>
        <time>2021-11-14T18:30:32.859Z</time>
      </trkpt>
      <trkpt lat="47.501794" lon="7.932466">
        <ele>436.917170</ele>
        <time>2021-11-14T18:30:37.531Z</time>
      </trkpt>
      <trkpt lat="47.501901" lon="7.932351">
        <ele>436.819850</ele>
        <time>2021-11-14T18:30:39.675Z</time>
      </trkpt>
      <trkpt lat="47.502023" lon="7.932158">
        <ele>436.668769</ele>
        <time>2021-11-14T18:30:41.695Z</time>
      </trkpt>
      <trkpt lat="47.502400" lon="7.931256">
        <ele>436.062493</ele>
        <time>2021-11-14T18:30:50.667Z</time>
      </trkpt>
      <trkpt lat="47.502613" lon="7.930856">
        <ele>435.771368</ele>
        <time>2021-11-14T18:30:54.751Z</time>
      </trkpt>
      <trkpt lat="47.502761" lon="7.930610">
        <ele>435.583080</ele>
        <time>2021-11-14T18:30:57.655Z</time>
      </trkpt>
      <trkpt lat="47.503014" lon="7.930220">
        <ele>435.230789</ele>
        <time>2021-11-14T18:31:02.378Z</time>
      </trkpt>
      <trkpt lat="47.503485" lon="7.929688">
        <ele>434.483945</ele>
        <time>2021-11-14T18:31:10.160Z</time>
      </trkpt>
      <trkpt lat="47.503528" lon="7.929650">
        <ele>434.420815</ele>
        <time>2021-11-14T18:31:10.645Z</time>
      </trkpt>
      <trkpt lat="47.503598" lon="7.929585">
        <ele>434.316649</ele>
        <time>2021-11-14T18:31:12.098Z</time>
      </trkpt>
      <trkpt lat="47.503815" lon="7.929426">
        <ele>434.011424</ele>
        <time>2021-11-14T18:31:14.786Z</time>
      </trkpt>
      <trkpt lat="47.504005" lon="7.929312">
        <ele>433.752985</ele>
        <time>2021-11-14T18:31:18.013Z</time>
      </trkpt>
      <trkpt lat="47.504650" lon="7.928941">
        <ele>432.511556</ele>
        <time>2021-11-14T18:31:25.733Z</time>
      </trkpt>
      <trkpt lat="47.504724" lon="7.928871">
        <ele>432.210119</ele>
        <time>2021-11-14T18:31:26.698Z</time>
      </trkpt>
      <trkpt lat="47.504799" lon="7.928777">
        <ele>431.872802</ele>
        <time>2021-11-14T18:31:27.572Z</time>
      </trkpt>
      <trkpt lat="47.505253" lon="7.928170">
        <ele>429.772927</ele>
        <time>2021-11-14T18:31:33.922Z</time>
      </trkpt>
      <trkpt lat="47.505814" lon="7.927657">
        <ele>427.509523</ele>
        <time>2021-11-14T18:31:40.223Z</time>
      </trkpt>
      <trkpt lat="47.505868" lon="7.927611">
        <ele>427.295670</ele>
        <time>2021-11-14T18:31:40.842Z</time>
      </trkpt>
      <trkpt lat="47.505881" lon="7.927601">
        <ele>427.245382</ele>
        <time>2021-11-14T18:31:40.979Z</time>
      </trkpt>
      <trkpt lat="47.506112" lon="7.927414">
        <ele>426.408111</ele>
        <time>2021-11-14T18:31:43.438Z</time>
      </trkpt>
      <trkpt lat="47.507856" lon="7.925990">
        <ele>420.669849</ele>
        <time>2021-11-14T18:32:04.210Z</time>
      </trkpt>
      <trkpt lat="47.508002" lon="7.925879">
        <ele>420.313590</ele>
        <time>2021-11-14T18:32:06.018Z</time>
      </trkpt>
      <trkpt lat="47.508106" lon="7.925799">
        <ele>420.059190</ele>
        <time>2021-11-14T18:32:07.415Z</time>
      </trkpt>
      <trkpt lat="47.508355" lon="7.925609">
        <ele>419.451136</ele>
        <time>2021-11-14T18:32:10.577Z</time>
      </trkpt>
      <trkpt lat="47.508667" lon="7.925295">
        <ele>418.632232</ele>
        <time>2021-11-14T18:32:14.833Z</time>
      </trkpt>
      <trkpt lat="47.509016" lon="7.924882">
        <ele>417.662410</ele>
        <time>2021-11-14T18:32:19.573Z</time>
      </trkpt>
      <trkpt lat="47.509032" lon="7.924863">
        <ele>417.617888</ele>
        <time>2021-11-14T18:32:19.776Z</time>
      </trkpt>
      <trkpt lat="47.509223" lon="7.924628">
        <ele>417.078194</ele>
        <time>2021-11-14T18:32:22.442Z</time>
      </trkpt>
      <trkpt lat="47.509572" lon="7.924311">
        <ele>416.188268</ele>
        <time>2021-11-14T18:32:26.799Z</time>
      </trkpt>
      <trkpt lat="47.509605" lon="7.924290">
        <ele>416.110199</ele>
        <time>2021-11-14T18:32:27.138Z</time>
      </trkpt>
      <trkpt lat="47.509676" lon="7.924247">
        <ele>415.943470</ele>
        <time>2021-11-14T18:32:27.926Z</time>
      </trkpt>
      <trkpt lat="47.509806" lon="7.924174">
        <ele>415.641277</ele>
        <time>2021-11-14T18:32:29.512Z</time>
      </trkpt>
      <trkpt lat="47.509886" lon="7.924134">
        <ele>415.457752</ele>
        <time>2021-11-14T18:32:30.487Z</time>
      </trkpt>
      <trkpt lat="47.509869" lon="7.923971">
        <ele>415.215617</ele>
        <time>2021-11-14T18:32:31.597Z</time>
      </trkpt>
      <trkpt lat="47.509817" lon="7.923703">
        <ele>414.806257</ele>
        <time>2021-11-14T18:32:33.750Z</time>
      </trkpt>
      <trkpt lat="47.509668" lon="7.923400">
        <ele>414.256027</ele>
        <time>2021-11-14T18:32:36.452Z</time>
      </trkpt>
      <trkpt lat="47.509595" lon="7.923295">
        <ele>414.034812</ele>
        <time>2021-11-14T18:32:37.676Z</time>
      </trkpt>
      <trkpt lat="47.509550" lon="7.923245">
        <ele>413.912524</ele>
        <time>2021-11-14T18:32:38.346Z</time>
      </trkpt>
      <trkpt lat="47.509583" lon="7.922962">
        <ele>413.565368</ele>
        <time>2021-11-14T18:32:40.418Z</time>
      </trkpt>
      <trkpt lat="47.509615" lon="7.922742">
        <ele>413.397997</ele>
        <time>2021-11-14T18:32:42.312Z</time>
      </trkpt>
      <trkpt lat="47.509688" lon="7.922616">
        <ele>413.274539</ele>
        <time>2021-11-14T18:32:43.466Z</time>
      </trkpt>
      <trkpt lat="47.509909" lon="7.922425">
        <ele>412.992777</ele>
        <time>2021-11-14T18:32:46.529Z</time>
      </trkpt>
      <trkpt lat="47.510639" lon="7.921796">
        <ele>412.062786</ele>
        <time>2021-11-14T18:32:57.032Z</time>
      </trkpt>
      <trkpt lat="47.510872" lon="7.921477">
        <ele>411.713357</ele>
        <time>2021-11-14T18:33:01.128Z</time>
      </trkpt>
      <trkpt lat="47.511052" lon="7.921232">
        <ele>411.446163</ele>
        <time>2021-11-14T18:33:04.250Z</time>
      </trkpt>
      <trkpt lat="47.511067" lon="7.921207">
        <ele>411.421526</ele>
        <time>2021-11-14T18:33:04.520Z</time>
      </trkpt>
      <trkpt lat="47.511186" lon="7.920984">
        <ele>411.212138</ele>
        <time>2021-11-14T18:33:07.029Z</time>
      </trkpt>
      <trkpt lat="47.511613" lon="7.920183">
        <ele>410.460329</ele>
        <time>2021-11-14T18:33:15.614Z</time>
      </trkpt>
      <trkpt lat="47.511632" lon="7.920105">
        <ele>410.399238</ele>
        <time>2021-11-14T18:33:16.361Z</time>
      </trkpt>
      <trkpt lat="47.511883" lon="7.920133">
        <ele>410.124674</ele>
        <time>2021-11-14T18:33:20.490Z</time>
      </trkpt>
      <trkpt lat="47.511964" lon="7.919989">
        <ele>409.986607</ele>
        <time>2021-11-14T18:33:21.946Z</time>
      </trkpt>
      <trkpt lat="47.512085" lon="7.919732">
        <ele>409.755799</ele>
        <time>2021-11-14T18:33:24.336Z</time>
      </trkpt>
      <trkpt lat="47.512255" lon="7.919538">
        <ele>409.393582</ele>
        <time>2021-11-14T18:33:26.762Z</time>
      </trkpt>
      <trkpt lat="47.512664" lon="7.919306">
        <ele>408.571634</ele>
        <time>2021-11-14T18:33:31.651Z</time>
      </trkpt>
      <trkpt lat="47.512938" lon="7.919052">
        <ele>407.964961</ele>
        <time>2021-11-14T18:33:35.217Z</time>
      </trkpt>
      <trkpt lat="47.513058" lon="7.918896">
        <ele>407.665275</ele>
        <time>2021-11-14T18:33:36.940Z</time>
      </trkpt>
      <trkpt lat="47.513160" lon="7.918764">
        <ele>407.411044</ele>
        <time>2021-11-14T18:33:38.417Z</time>
      </trkpt>
      <trkpt lat="47.513378" lon="7.918393">
        <ele>406.787745</ele>
        <time>2021-11-14T18:33:42.081Z</time>
      </trkpt>
      <trkpt lat="47.514255" lon="7.917714">
        <ele>405.275182</ele>
        <time>2021-11-14T18:33:53.155Z</time>
      </trkpt>
      <trkpt lat="47.514561" lon="7.917409">
        <ele>404.754152</ele>
        <time>2021-11-14T18:33:57.467Z</time>
      </trkpt>
      <trkpt lat="47.514635" lon="7.917349">
        <ele>404.634983</ele>
        <time>2021-11-14T18:33:58.410Z</time>
      </trkpt>
      <trkpt lat="47.515014" lon="7.917030">
        <ele>404.019203</ele>
        <time>2021-11-14T18:34:03.774Z</time>
      </trkpt>
      <trkpt lat="47.516391" lon="7.915243">
        <ele>402.270859</ele>
        <time>2021-11-14T18:34:26.476Z</time>
      </trkpt>
      <trkpt lat="47.516544" lon="7.914936">
        <ele>402.032514</ele>
        <time>2021-11-14T18:34:29.646Z</time>
      </trkpt>
      <trkpt lat="47.516569" lon="7.914864">
        <ele>401.980985</ele>
        <time>2021-11-14T18:34:30.425Z</time>
      </trkpt>
      <trkpt lat="47.516590" lon="7.914840">
        <ele>401.955984</ele>
        <time>2021-11-14T18:34:30.742Z</time>
      </trkpt>
      <trkpt lat="47.516626" lon="7.914830">
        <ele>401.921464</ele>
        <time>2021-11-14T18:34:31.220Z</time>
      </trkpt>
      <trkpt lat="47.516662" lon="7.914835">
        <ele>401.887388</ele>
        <time>2021-11-14T18:34:31.655Z</time>
      </trkpt>
      <trkpt lat="47.516748" lon="7.914873">
        <ele>401.802807</ele>
        <time>2021-11-14T18:34:32.731Z</time>
      </trkpt>
      <trkpt lat="47.516806" lon="7.914896">
        <ele>401.746219</ele>
        <time>2021-11-14T18:34:33.436Z</time>
      </trkpt>
      <trkpt lat="47.517140" lon="7.915259">
        <ele>401.355753</ele>
        <time>2021-11-14T18:34:38.599Z</time>
      </trkpt>
      <trkpt lat="47.517281" lon="7.915238">
        <ele>401.222200</ele>
        <time>2021-11-14T18:34:40.407Z</time>
      </trkpt>
      <trkpt lat="47.517688" lon="7.914418">
        <ele>400.574493</ele>
        <time>2021-11-14T18:34:48.779Z</time>
      </trkpt>
      <trkpt lat="47.519421" lon="7.912098">
        <ele>398.110320</ele>
        <time>2021-11-14T18:35:17.097Z</time>
      </trkpt>
      <trkpt lat="47.519720" lon="7.911522">
        <ele>397.609903</ele>
        <time>2021-11-14T18:35:22.978Z</time>
      </trkpt>
      <trkpt lat="47.519891" lon="7.911129">
        <ele>397.287881</ele>
        <time>2021-11-14T18:35:26.774Z</time>
      </trkpt>
      <trkpt lat="47.519997" lon="7.910833">
        <ele>397.057104</ele>
        <time>2021-11-14T18:35:29.418Z</time>
      </trkpt>
      <trkpt lat="47.520493" lon="7.908683">
        <ele>396.408435</ele>
        <time>2021-11-14T18:35:49.674Z</time>
      </trkpt>
      <trkpt lat="47.520738" lon="7.907839">
        <ele>396.258365</ele>
        <time>2021-11-14T18:36:00.179Z</time>
      </trkpt>
      <trkpt lat="47.520733" lon="7.907655">
        <ele>396.195988</ele>
        <time>2021-11-14T18:36:01.789Z</time>
      </trkpt>
      <trkpt lat="47.520551" lon="7.907422">
        <ele>396.075012</ele>
        <time>2021-11-14T18:36:05.839Z</time>
      </trkpt>
      <trkpt lat="47.520506" lon="7.907236">
        <ele>396.007920</ele>
        <time>2021-11-14T18:36:07.520Z</time>
      </trkpt>
      <trkpt lat="47.520515" lon="7.907103">
        <ele>395.962530</ele>
        <time>2021-11-14T18:36:09.282Z</time>
      </trkpt>
      <trkpt lat="47.520528" lon="7.906930">
        <ele>395.903421</ele>
        <time>2021-11-14T18:36:10.972Z</time>
      </trkpt>
      <trkpt lat="47.520566" lon="7.906668">
        <ele>395.812424</ele>
        <time>2021-11-14T18:36:13.250Z</time>
      </trkpt>
      <trkpt lat="47.520678" lon="7.906050">
        <ele>395.595141</ele>
        <time>2021-11-14T18:36:19.145Z</time>
      </trkpt>
      <trkpt lat="47.520989" lon="7.905130">
        <ele>394.740086</ele>
        <time>2021-11-14T18:36:27.487Z</time>
      </trkpt>
      <trkpt lat="47.521297" lon="7.904312">
        <ele>392.933310</ele>
        <time>2021-11-14T18:36:34.227Z</time>
      </trkpt>
      <trkpt lat="47.521792" lon="7.903347">
        <ele>390.595520</ele>
        <time>2021-11-14T18:36:42.349Z</time>
      </trkpt>
      <trkpt lat="47.522013" lon="7.902637">
        <ele>388.586223</ele>
        <time>2021-11-14T18:36:47.527Z</time>
      </trkpt>
      <trkpt lat="47.522038" lon="7.902562">
        <ele>388.353212</ele>
        <time>2021-11-14T18:36:48.047Z</time>
      </trkpt>
      <trkpt lat="47.522065" lon="7.902526">
        <ele>388.203327</ele>
        <time>2021-11-14T18:36:48.378Z</time>
      </trkpt>
      <trkpt lat="47.522132" lon="7.902476">
        <ele>387.893809</ele>
        <time>2021-11-14T18:36:49.121Z</time>
      </trkpt>
      <trkpt lat="47.522260" lon="7.902356">
        <ele>387.268828</ele>
        <time>2021-11-14T18:36:50.612Z</time>
      </trkpt>
      <trkpt lat="47.522554" lon="7.901999">
        <ele>385.700323</ele>
        <time>2021-11-14T18:36:54.264Z</time>
      </trkpt>
      <trkpt lat="47.522688" lon="7.901843">
        <ele>384.997139</ele>
        <time>2021-11-14T18:36:55.854Z</time>
      </trkpt>
      <trkpt lat="47.523036" lon="7.901580">
        <ele>383.385341</ele>
        <time>2021-11-14T18:36:59.639Z</time>
      </trkpt>
      <trkpt lat="47.523340" lon="7.901197">
        <ele>382.320864</ele>
        <time>2021-11-14T18:37:03.599Z</time>
      </trkpt>
      <trkpt lat="47.523433" lon="7.901043">
        <ele>382.062357</ele>
        <time>2021-11-14T18:37:04.989Z</time>
      </trkpt>
      <trkpt lat="47.523567" lon="7.900820">
        <ele>381.688849</ele>
        <time>2021-11-14T18:37:07.089Z</time>
      </trkpt>
      <trkpt lat="47.523620" lon="7.900698">
        <ele>381.507335</ele>
        <time>2021-11-14T18:37:08.190Z</time>
      </trkpt>
      <trkpt lat="47.523648" lon="7.900606">
        <ele>381.381068</ele>
        <time>2021-11-14T18:37:08.875Z</time>
      </trkpt>
      <trkpt lat="47.523739" lon="7.900557">
        <ele>381.201650</ele>
        <time>2021-11-14T18:37:09.931Z</time>
      </trkpt>
      <trkpt lat="47.523878" lon="7.900445">
        <ele>380.908435</ele>
        <time>2021-11-14T18:37:11.898Z</time>
      </trkpt>
      <trkpt lat="47.523957" lon="7.900371">
        <ele>380.735227</ele>
        <time>2021-11-14T18:37:12.930Z</time>
      </trkpt>
      <trkpt lat="47.523989" lon="7.900340">
        <ele>380.664373</ele>
        <time>2021-11-14T18:37:13.395Z</time>
      </trkpt>
      <trkpt lat="47.523945" lon="7.900256">
        <ele>380.531354</ele>
        <time>2021-11-14T18:37:14.472Z</time>
      </trkpt>
      <trkpt lat="47.523890" lon="7.900131">
        <ele>380.344676</ele>
        <time>2021-11-14T18:37:15.887Z</time>
      </trkpt>
      <trkpt lat="47.523861" lon="7.900049">
        <ele>380.228854</ele>
        <time>2021-11-14T18:37:16.783Z</time>
      </trkpt>
      <trkpt lat="47.523896" lon="7.900001">
        <ele>380.140462</ele>
        <time>2021-11-14T18:37:17.326Z</time>
      </trkpt>
      <trkpt lat="47.524309" lon="7.899115">
        <ele>379.475937</ele>
        <time>2021-11-14T18:37:27.136Z</time>
      </trkpt>
      <trkpt lat="47.524360" lon="7.898951">
        <ele>379.480388</ele>
        <time>2021-11-14T18:37:28.836Z</time>
      </trkpt>
      <trkpt lat="47.524486" lon="7.898592">
        <ele>379.490361</ele>
        <time>2021-11-14T18:37:33.116Z</time>
      </trkpt>
      <trkpt lat="47.524617" lon="7.898216">
        <ele>379.500790</ele>
        <time>2021-11-14T18:37:38.095Z</time>
      </trkpt>
      <trkpt lat="47.524649" lon="7.898132">
        <ele>379.503167</ele>
        <time>2021-11-14T18:37:39.092Z</time>
      </trkpt>
      <trkpt lat="47.524834" lon="7.897636">
        <ele>379.517134</ele>
        <time>2021-11-14T18:37:45.218Z</time>
      </trkpt>
      <trkpt lat="47.525518" lon="7.896336">
        <ele>378.380136</ele>
        <time>2021-11-14T18:38:01.308Z</time>
      </trkpt>
      <trkpt lat="47.525590" lon="7.896117">
        <ele>378.145250</ele>
        <time>2021-11-14T18:38:02.951Z</time>
      </trkpt>
      <trkpt lat="47.525622" lon="7.895944">
        <ele>377.972277</ele>
        <time>2021-11-14T18:38:05.108Z</time>
      </trkpt>
      <trkpt lat="47.525631" lon="7.895583">
        <ele>377.623922</ele>
        <time>2021-11-14T18:38:07.497Z</time>
      </trkpt>
      <trkpt lat="47.525631" lon="7.895442">
        <ele>377.487953</ele>
        <time>2021-11-14T18:38:09.234Z</time>
      </trkpt>
      <trkpt lat="47.525603" lon="7.895265">
        <ele>377.312647</ele>
        <time>2021-11-14T18:38:10.581Z</time>
      </trkpt>
      <trkpt lat="47.525725" lon="7.895110">
        <ele>377.083093</ele>
        <time>2021-11-14T18:38:12.103Z</time>
      </trkpt>
      <trkpt lat="47.526257" lon="7.894278">
        <ele>375.040348</ele>
        <time>2021-11-14T18:38:20.299Z</time>
      </trkpt>
      <trkpt lat="47.526335" lon="7.893960">
        <ele>374.402417</ele>
        <time>2021-11-14T18:38:22.631Z</time>
      </trkpt>
      <trkpt lat="47.526401" lon="7.893964">
        <ele>374.217969</ele>
        <time>2021-11-14T18:38:23.267Z</time>
      </trkpt>
      <trkpt lat="47.526451" lon="7.893983">
        <ele>374.073830</ele>
        <time>2021-11-14T18:38:24.000Z</time>
      </trkpt>
      <trkpt lat="47.526504" lon="7.894030">
        <ele>373.901332</ele>
        <time>2021-11-14T18:38:24.669Z</time>
      </trkpt>
      <trkpt lat="47.526709" lon="7.893617">
        <ele>372.934856</ele>
        <time>2021-11-14T18:38:28.095Z</time>
      </trkpt>
      <trkpt lat="47.527011" lon="7.893061">
        <ele>371.743792</ele>
        <time>2021-11-14T18:38:33.100Z</time>
      </trkpt>
      <trkpt lat="47.527498" lon="7.892650">
        <ele>370.872891</ele>
        <time>2021-11-14T18:38:39.174Z</time>
      </trkpt>
      <trkpt lat="47.528003" lon="7.892732">
        <ele>370.083559</ele>
        <time>2021-11-14T18:38:45.423Z</time>
      </trkpt>
      <trkpt lat="47.528331" lon="7.892682">
        <ele>369.571245</ele>
        <time>2021-11-14T18:38:49.691Z</time>
      </trkpt>
      <trkpt lat="47.529235" lon="7.892158">
        <ele>368.413309</ele>
        <time>2021-11-14T18:39:01.390Z</time>
      </trkpt>
      <trkpt lat="47.529695" lon="7.891638">
        <ele>367.805915</ele>
        <time>2021-11-14T18:39:08.449Z</time>
      </trkpt>
      <trkpt lat="47.529714" lon="7.891609">
        <ele>367.777277</ele>
        <time>2021-11-14T18:39:08.711Z</time>
      </trkpt>
      <trkpt lat="47.529972" lon="7.891210">
        <ele>367.385752</ele>
        <time>2021-11-14T18:39:13.137Z</time>
      </trkpt>
      <trkpt lat="47.530322" lon="7.890690">
        <ele>367.214875</ele>
        <time>2021-11-14T18:39:19.275Z</time>
      </trkpt>
      <trkpt lat="47.530493" lon="7.890499">
        <ele>367.191748</ele>
        <time>2021-11-14T18:39:22.101Z</time>
      </trkpt>
      <trkpt lat="47.530606" lon="7.890373">
        <ele>367.176475</ele>
        <time>2021-11-14T18:39:23.983Z</time>
      </trkpt>
      <trkpt lat="47.531076" lon="7.890029">
        <ele>367.119865</ele>
        <time>2021-11-14T18:39:31.696Z</time>
      </trkpt>
      <trkpt lat="47.531265" lon="7.889937">
        <ele>367.098383</ele>
        <time>2021-11-14T18:39:34.753Z</time>
      </trkpt>
      <trkpt lat="47.531560" lon="7.889776">
        <ele>367.064435</ele>
        <time>2021-11-14T18:39:40.410Z</time>
      </trkpt>
      <trkpt lat="47.531843" lon="7.889349">
        <ele>367.630713</ele>
        <time>2021-11-14T18:39:47.989Z</time>
      </trkpt>
      <trkpt lat="47.532011" lon="7.888896">
        <ele>368.168710</ele>
        <time>2021-11-14T18:39:55.186Z</time>
      </trkpt>
      <trkpt lat="47.532288" lon="7.887728">
        <ele>369.457343</ele>
        <time>2021-11-14T18:40:14.065Z</time>
      </trkpt>
      <trkpt lat="47.532505" lon="7.887120">
        <ele>370.184119</ele>
        <time>2021-11-14T18:40:24.351Z</time>
      </trkpt>
      <trkpt lat="47.532650" lon="7.885569">
        <ele>371.866362</ele>
        <time>2021-11-14T18:40:47.113Z</time>
      </trkpt>
      <trkpt lat="47.532658" lon="7.884989">
        <ele>372.489624</ele>
        <time>2021-11-14T18:40:55.300Z</time>
      </trkpt>
      <trkpt lat="47.532670" lon="7.884773">
        <ele>372.699578</ele>
        <time>2021-11-14T18:40:58.603Z</time>
      </trkpt>
      <trkpt lat="47.532699" lon="7.884224">
        <ele>372.782671</ele>
        <time>2021-11-14T18:41:05.719Z</time>
      </trkpt>
      <trkpt lat="47.532713" lon="7.884122">
        <ele>372.798376</ele>
        <time>2021-11-14T18:41:06.882Z</time>
      </trkpt>
      <trkpt lat="47.532859" lon="7.883508">
        <ele>372.896602</ele>
        <time>2021-11-14T18:41:14.493Z</time>
      </trkpt>
      <trkpt lat="47.533014" lon="7.882949">
        <ele>372.987786</ele>
        <time>2021-11-14T18:41:20.713Z</time>
      </trkpt>
      <trkpt lat="47.533374" lon="7.881639">
        <ele>372.113572</ele>
        <time>2021-11-14T18:41:32.425Z</time>
      </trkpt>
      <trkpt lat="47.533606" lon="7.880961">
        <ele>371.021719</ele>
        <time>2021-11-14T18:41:38.220Z</time>
      </trkpt>
      <trkpt lat="47.533892" lon="7.880353">
        <ele>369.957290</ele>
        <time>2021-11-14T18:41:43.537Z</time>
      </trkpt>
      <trkpt lat="47.534616" lon="7.879490">
        <ele>366.291850</ele>
        <time>2021-11-14T18:41:52.707Z</time>
      </trkpt>
      <trkpt lat="47.534908" lon="7.878975">
        <ele>364.062595</ele>
        <time>2021-11-14T18:41:56.910Z</time>
      </trkpt>
      <trkpt lat="47.534946" lon="7.878790">
        <ele>363.421609</ele>
        <time>2021-11-14T18:41:58.185Z</time>
      </trkpt>
      <trkpt lat="47.534825" lon="7.878414">
        <ele>362.040909</ele>
        <time>2021-11-14T18:42:00.712Z</time>
      </trkpt>
      <trkpt lat="47.534778" lon="7.878270">
        <ele>361.510728</ele>
        <time>2021-11-14T18:42:01.863Z</time>
      </trkpt>
      <trkpt lat="47.534855" lon="7.878090">
        <ele>360.804381</ele>
        <time>2021-11-14T18:42:03.114Z</time>
      </trkpt>
      <trkpt lat="47.535088" lon="7.877742">
        <ele>359.171349</ele>
        <time>2021-11-14T18:42:06.209Z</time>
      </trkpt>
      <trkpt lat="47.535322" lon="7.877590">
        <ele>357.908449</ele>
        <time>2021-11-14T18:42:08.706Z</time>
      </trkpt>
      <trkpt lat="47.535551" lon="7.877487">
        <ele>356.725560</ele>
        <time>2021-11-14T18:42:10.860Z</time>
      </trkpt>
      <trkpt lat="47.535635" lon="7.877484">
        <ele>356.310262</ele>
        <time>2021-11-14T18:42:11.797Z</time>
      </trkpt>
      <trkpt lat="47.535770" lon="7.877432">
        <ele>355.620818</ele>
        <time>2021-11-14T18:42:13.049Z</time>
      </trkpt>
      <trkpt lat="47.535851" lon="7.877319">
        <ele>355.070853</ele>
        <time>2021-11-14T18:42:14.079Z</time>
      </trkpt>
      <trkpt lat="47.536444" lon="7.876177">
        <ele>351.009980</ele>
        <time>2021-11-14T18:42:23.458Z</time>
      </trkpt>
      <trkpt lat="47.536632" lon="7.875912">
        <ele>350.471489</ele>
        <time>2021-11-14T18:42:26.108Z</time>
      </trkpt>
      <trkpt lat="47.536757" lon="7.875759">
        <ele>350.135026</ele>
        <time>2021-11-14T18:42:28.054Z</time>
      </trkpt>
      <trkpt lat="47.536921" lon="7.875537">
        <ele>349.674041</ele>
        <time>2021-11-14T18:42:30.621Z</time>
      </trkpt>
      <trkpt lat="47.537182" lon="7.875293">
        <ele>349.033641</ele>
        <time>2021-11-14T18:42:34.331Z</time>
      </trkpt>
      <trkpt lat="47.537261" lon="7.875237">
        <ele>348.851917</ele>
        <time>2021-11-14T18:42:35.292Z</time>
      </trkpt>
      <trkpt lat="47.537716" lon="7.874966">
        <ele>347.834358</ele>
        <time>2021-11-14T18:42:41.181Z</time>
      </trkpt>
      <trkpt lat="47.538278" lon="7.874319">
        <ele>347.108479</ele>
        <time>2021-11-14T18:42:49.656Z</time>
      </trkpt>
      <trkpt lat="47.539222" lon="7.873416">
        <ele>345.953304</ele>
        <time>2021-11-14T18:43:04.102Z</time>
      </trkpt>
      <trkpt lat="47.539678" lon="7.872430">
        <ele>344.518906</ele>
        <time>2021-11-14T18:43:13.184Z</time>
      </trkpt>
      <trkpt lat="47.539841" lon="7.872151">
        <ele>344.076086</ele>
        <time>2021-11-14T18:43:15.951Z</time>
      </trkpt>
      <trkpt lat="47.539930" lon="7.872041">
        <ele>343.870022</ele>
        <time>2021-11-14T18:43:17.148Z</time>
      </trkpt>
      <trkpt lat="47.540034" lon="7.871970">
        <ele>343.666442</ele>
        <time>2021-11-14T18:43:18.411Z</time>
      </trkpt>
      <trkpt lat="47.540216" lon="7.871851">
        <ele>343.312768</ele>
        <time>2021-11-14T18:43:20.594Z</time>
      </trkpt>
      <trkpt lat="47.540265" lon="7.871808">
        <ele>343.211518</ele>
        <time>2021-11-14T18:43:21.199Z</time>
      </trkpt>
      <trkpt lat="47.540463" lon="7.871584">
        <ele>342.807341</ele>
        <time>2021-11-14T18:43:23.985Z</time>
      </trkpt>
      <trkpt lat="47.540693" lon="7.871390">
        <ele>342.807341</ele>
        <time>2021-11-14T18:43:26.853Z</time>
      </trkpt>
      <trkpt lat="47.540894" lon="7.871220">
        <ele>342.807341</ele>
        <time>2021-11-14T18:43:29.365Z</time>
      </trkpt>
      <trkpt lat="47.540933" lon="7.871187">
        <ele>342.807341</ele>
        <time>2021-11-14T18:43:29.839Z</time>
      </trkpt>
      <trkpt lat="47.540980" lon="7.871148">
        <ele>342.807341</ele>
        <time>2021-11-14T18:43:30.468Z</time>
      </trkpt>
      <trkpt lat="47.541375" lon="7.870820">
        <ele>342.807341</ele>
        <time>2021-11-14T18:43:35.432Z</time>
      </trkpt>
    </trkseg>
  </trk>
</gpx>